Wetterdaten: Sonntag, 21.04.2019
Datum Zeit Temp. A. Pool Temp. Temp. 5cm Feuchte A. Luftdruck Regen Wind Richtung Richtung Sonnenschein ET UV Solar Taupunkt Windchill Windben Empfang
21.04.2019 00:00 11,8 C 14,4 C 3,3 C 39 % 1023,2 hPa 0,0 l/m 4,8 km/h (1 Bft) O-NO 67 0 min 0,000 mm 0,0 UV-I 0 W/m -1,7 C 11,8 C 6,4 km/h (2 Bft) 98,00 %
21.04.2019 00:02 11,7 C 14,4 C 3,3 C 39 % 1023,2 hPa 0,0 l/m 3,7 km/h (1 Bft) O-NO 66 0 min 0,000 mm 0,0 UV-I 0 W/m -1,8 C 11,7 C 4,8 km/h (1 Bft) 97,22 %
21.04.2019 00:04 11,8 C 14,4 C 3,3 C 39 % 1023,2 hPa 0,0 l/m 4,6 km/h (1 Bft) O-NO 65 0 min 0,000 mm 0,0 UV-I 0 W/m -1,7 C 11,8 C 6,4 km/h (2 Bft) 98,21 %
21.04.2019 00:06 11,8 C 14,4 C 3,3 C 39 % 1023,2 hPa 0,0 l/m 5,6 km/h (1 Bft) NO 56 0 min 0,000 mm 0,0 UV-I 0 W/m -1,7 C 11,8 C 8,0 km/h (2 Bft) 100,00 %
21.04.2019 00:08 11,7 C 14,4 C 3,3 C 39 % 1023,2 hPa 0,0 l/m 5,6 km/h (1 Bft) NO 50 0 min 0,000 mm 0,0 UV-I 0 W/m -1,8 C 11,7 C 6,4 km/h (2 Bft) 96,23 %
21.04.2019 00:10 11,6 C 14,4 C 3,9 C 40 % 1023,2 hPa 0,0 l/m 5,4 km/h (1 Bft) NO 49 0 min 0,000 mm 0,0 UV-I 0 W/m -1,5 C 11,6 C 8,0 km/h (2 Bft) 97,87 %
21.04.2019 00:12 11,4 C 14,4 C 3,9 C 40 % 1023,2 hPa 0,0 l/m 4,9 km/h (1 Bft) NO 55 0 min 0,000 mm 0,0 UV-I 0 W/m -1,7 C 11,4 C 6,4 km/h (2 Bft) 95,45 %
21.04.2019 00:14 11,5 C 14,4 C 3,9 C 40 % 1023,2 hPa 0,0 l/m 4,0 km/h (1 Bft) O-NO 70 0 min 0,000 mm 0,0 UV-I 0 W/m -1,6 C 11,5 C 4,8 km/h (1 Bft) 100,00 %
21.04.2019 00:16 11,4 C 14,4 C 3,9 C 40 % 1023,2 hPa 0,0 l/m 4,0 km/h (1 Bft) O-NO 71 0 min 0,000 mm 0,0 UV-I 0 W/m -1,7 C 11,4 C 6,4 km/h (2 Bft) 100,00 %
21.04.2019 00:18 11,6 C 14,4 C 3,9 C 39 % 1023,2 hPa 0,0 l/m 3,9 km/h (1 Bft) O-NO 71 0 min 0,000 mm 0,0 UV-I 0 W/m -1,9 C 11,6 C 4,8 km/h (1 Bft) 100,00 %
21.04.2019 00:20 11,7 C 14,4 C 3,3 C 39 % 1023,2 hPa 0,0 l/m 4,0 km/h (1 Bft) O-NO 71 0 min 0,000 mm 0,0 UV-I 0 W/m -1,8 C 11,7 C 4,8 km/h (1 Bft) 100,00 %
21.04.2019 00:22 11,7 C 14,4 C 3,3 C 39 % 1023,2 hPa 0,0 l/m 3,0 km/h (1 Bft) O-NO 71 0 min 0,000 mm 0,0 UV-I 0 W/m -1,8 C 11,7 C 4,8 km/h (1 Bft) 100,00 %
21.04.2019 00:24 11,3 C 14,4 C 3,9 C 43 % 1023,2 hPa 0,0 l/m 2,3 km/h (1 Bft) O-NO 71 0 min 0,000 mm 0,0 UV-I 0 W/m -0,8 C 11,3 C 4,8 km/h (1 Bft) 100,00 %
21.04.2019 00:26 10,2 C 14,4 C 4,4 C 46 % 1023,2 hPa 0,0 l/m 1,3 km/h (1 Bft) O-NO 71 0 min 0,000 mm 0,0 UV-I 0 W/m -0,9 C 10,2 C 1,6 km/h (1 Bft) 100,00 %
21.04.2019 00:28 9,5 C 14,4 C 4,4 C 49 % 1023,2 hPa 0,0 l/m 1,5 km/h (1 Bft) O-NO 71 0 min 0,000 mm 0,0 UV-I 0 W/m -0,7 C 9,5 C 3,2 km/h (1 Bft) 100,00 %
21.04.2019 00:30 9,2 C 14,4 C 3,9 C 50 % 1023,2 hPa 0,0 l/m 2,2 km/h (1 Bft) O-NO 71 0 min 0,000 mm 0,0 UV-I 0 W/m -0,7 C 9,2 C 3,2 km/h (1 Bft) 100,00 %
21.04.2019 00:32 9,0 C 14,4 C 4,4 C 50 % 1023,2 hPa 0,0 l/m 2,0 km/h (1 Bft) O-NO 71 0 min 0,000 mm 0,0 UV-I 0 W/m -0,9 C 9,0 C 3,2 km/h (1 Bft) 100,00 %
21.04.2019 00:34 8,8 C 14,4 C 3,9 C 51 % 1023,2 hPa 0,0 l/m 2,3 km/h (1 Bft) O-NO 71 0 min 0,000 mm 0,0 UV-I 0 W/m -0,8 C 8,8 C 3,2 km/h (1 Bft) 96,88 %
21.04.2019 00:36 8,7 C 14,4 C 3,9 C 50 % 1023,2 hPa 0,0 l/m 2,2 km/h (1 Bft) O-NO 71 0 min 0,000 mm 0,0 UV-I 0 W/m -1,1 C 8,7 C 3,2 km/h (1 Bft) 97,44 %
21.04.2019 00:38 8,5 C 14,4 C 3,9 C 51 % 1023,1 hPa 0,0 l/m 2,7 km/h (1 Bft) O-NO 71 0 min 0,000 mm 0,0 UV-I 0 W/m -1,0 C 8,5 C 3,2 km/h (1 Bft) 92,00 %
21.04.2019 00:40 8,3 C 14,4 C 3,9 C 53 % 1023,1 hPa 0,0 l/m 2,2 km/h (1 Bft) O-NO 71 0 min 0,000 mm 0,0 UV-I 0 W/m -0,7 C 8,3 C 3,2 km/h (1 Bft) 94,00 %
21.04.2019 00:42 8,2 C 14,4 C 3,3 C 53 % 1023,2 hPa 0,0 l/m 1,8 km/h (1 Bft) O-NO 71 0 min 0,000 mm 0,0 UV-I 0 W/m -0,8 C 8,2 C 3,2 km/h (1 Bft) 96,00 %
21.04.2019 00:44 8,1 C 14,4 C 3,3 C 53 % 1023,2 hPa 0,0 l/m 1,7 km/h (1 Bft) O-NO 71 0 min 0,000 mm 0,0 UV-I 0 W/m -0,9 C 8,1 C 3,2 km/h (1 Bft) 93,18 %
21.04.2019 00:46 8,1 C 14,4 C 3,3 C 53 % 1023,1 hPa 0,0 l/m 1,4 km/h (1 Bft) O-NO 71 0 min 0,000 mm 0,0 UV-I 0 W/m -0,9 C 8,1 C 3,2 km/h (1 Bft) 96,00 %
21.04.2019 00:48 8,3 C 14,4 C 3,3 C 52 % 1023,1 hPa 0,0 l/m 1,1 km/h (1 Bft) O-NO 71 0 min 0,000 mm 0,0 UV-I 0 W/m -1,0 C 8,3 C 1,6 km/h (1 Bft) 94,74 %
21.04.2019 00:50 8,4 C 14,4 C 3,3 C 52 % 1023,1 hPa 0,0 l/m 2,2 km/h (1 Bft) O-NO 74 0 min 0,000 mm 0,0 UV-I 0 W/m -0,9 C 8,4 C 3,2 km/h (1 Bft) 96,43 %
21.04.2019 00:52 8,3 C 14,4 C 3,3 C 52 % 1023,1 hPa 0,0 l/m 3,3 km/h (1 Bft) O-SO 114 0 min 0,000 mm 0,0 UV-I 0 W/m -1,0 C 8,3 C 4,8 km/h (1 Bft) 92,11 %
21.04.2019 00:54 8,2 C 14,4 C 2,8 C 51 % 1023,0 hPa 0,0 l/m 1,5 km/h (1 Bft) O-SO 114 0 min 0,000 mm 0,0 UV-I 0 W/m -1,3 C 8,2 C 3,2 km/h (1 Bft) 98,00 %
21.04.2019 00:56 8,4 C 14,4 C 3,3 C 51 % 1023,0 hPa 0,0 l/m 1,4 km/h (1 Bft) O-SO 114 0 min 0,000 mm 0,0 UV-I 0 W/m -1,1 C 8,4 C 1,6 km/h (1 Bft) 94,00 %
21.04.2019 00:58 8,4 C 14,4 C 2,8 C 50 % 1023,0 hPa 0,0 l/m 1,3 km/h (1 Bft) O-SO 114 0 min 0,000 mm 0,0 UV-I 0 W/m -1,4 C 8,4 C 1,6 km/h (1 Bft) 100,00 %
21.04.2019 01:00 8,2 C 14,4 C 2,8 C 52 % 1023,0 hPa 0,0 l/m 1,5 km/h (1 Bft) O-SO 114 0 min 0,025 mm 0,0 UV-I 0 W/m -1,1 C 8,2 C 3,2 km/h (1 Bft) 95,74 %
21.04.2019 01:02 7,8 C 14,4 C 2,8 C 54 % 1023,0 hPa 0,0 l/m 1,7 km/h (1 Bft) O-SO 114 0 min 0,000 mm 0,0 UV-I 0 W/m -0,9 C 7,8 C 3,2 km/h (1 Bft) 97,56 %
21.04.2019 01:04 7,6 C 14,4 C 3,3 C 55 % 1023,0 hPa 0,0 l/m 1,5 km/h (1 Bft) O-SO 114 0 min 0,000 mm 0,0 UV-I 0 W/m -0,9 C 7,6 C 3,2 km/h (1 Bft) 98,21 %
21.04.2019 01:06 7,4 C 14,4 C 3,3 C 55 % 1023,0 hPa 0,0 l/m 1,8 km/h (1 Bft) O-SO 114 0 min 0,000 mm 0,0 UV-I 0 W/m -1,0 C 7,4 C 3,2 km/h (1 Bft) 97,87 %
21.04.2019 01:08 7,2 C 14,4 C 3,3 C 56 % 1022,9 hPa 0,0 l/m 2,6 km/h (1 Bft) O-SO 114 0 min 0,000 mm 0,0 UV-I 0 W/m -1,0 C 7,2 C 4,8 km/h (1 Bft) 96,00 %
21.04.2019 01:10 7,3 C 14,4 C 3,3 C 55 % 1022,9 hPa 0,0 l/m 3,1 km/h (1 Bft) O-SO 114 0 min 0,000 mm 0,0 UV-I 0 W/m -1,1 C 7,3 C 4,8 km/h (1 Bft) 97,22 %
21.04.2019 01:12 7,4 C 14,4 C 3,9 C 55 % 1022,9 hPa 0,0 l/m 3,6 km/h (1 Bft) O-SO 114 0 min 0,000 mm 0,0 UV-I 0 W/m -1,0 C 7,4 C 4,8 km/h (1 Bft) 96,00 %
21.04.2019 01:14 7,4 C 14,4 C 3,9 C 55 % 1022,9 hPa 0,0 l/m 2,8 km/h (1 Bft) O-SO 114 0 min 0,000 mm 0,0 UV-I 0 W/m -1,0 C 7,4 C 4,8 km/h (1 Bft) 97,87 %
21.04.2019 01:16 7,4 C 14,4 C 3,3 C 55 % 1022,8 hPa 0,0 l/m 3,2 km/h (1 Bft) O-SO 114 0 min 0,000 mm 0,0 UV-I 0 W/m -1,0 C 7,4 C 4,8 km/h (1 Bft) 96,00 %
21.04.2019 01:18 7,5 C 14,4 C 3,3 C 55 % 1022,8 hPa 0,0 l/m 3,0 km/h (1 Bft) O-SO 114 0 min 0,000 mm 0,0 UV-I 0 W/m -0,9 C 7,5 C 4,8 km/h (1 Bft) 97,56 %
21.04.2019 01:20 7,3 C 14,4 C 3,3 C 56 % 1022,9 hPa 0,0 l/m 3,4 km/h (1 Bft) O-SO 114 0 min 0,000 mm 0,0 UV-I 0 W/m -0,9 C 7,3 C 4,8 km/h (1 Bft) 98,00 %
21.04.2019 01:22 6,9 C 14,4 C 3,3 C 58 % 1022,8 hPa 0,0 l/m 2,6 km/h (1 Bft) O-SO 114 0 min 0,000 mm 0,0 UV-I 0 W/m -0,8 C 6,9 C 4,8 km/h (1 Bft) 96,00 %
21.04.2019 01:24 6,7 C 14,4 C 2,8 C 58 % 1022,8 hPa 0,0 l/m 2,0 km/h (1 Bft) O-SO 114 0 min 0,000 mm 0,0 UV-I 0 W/m -1,0 C 6,7 C 3,2 km/h (1 Bft) 98,00 %
21.04.2019 01:26 6,8 C 14,4 C 2,8 C 58 % 1022,8 hPa 0,0 l/m 1,8 km/h (1 Bft) O-SO 114 0 min 0,000 mm 0,0 UV-I 0 W/m -0,9 C 6,8 C 3,2 km/h (1 Bft) 92,11 %
21.04.2019 01:28 7,1 C 14,4 C 2,8 C 56 % 1022,8 hPa 0,0 l/m 1,5 km/h (1 Bft) O-SO 114 0 min 0,000 mm 0,0 UV-I 0 W/m -1,1 C 7,1 C 3,2 km/h (1 Bft) 95,74 %
21.04.2019 01:30 7,2 C 14,4 C 2,8 C 56 % 1022,8 hPa 0,0 l/m 1,2 km/h (1 Bft) O-SO 114 0 min 0,000 mm 0,0 UV-I 0 W/m -1,0 C 7,2 C 1,6 km/h (1 Bft) 100,00 %
21.04.2019 01:32 7,3 C 14,4 C 2,8 C 56 % 1022,8 hPa 0,0 l/m 1,8 km/h (1 Bft) O-SO 114 0 min 0,000 mm 0,0 UV-I 0 W/m -0,9 C 7,3 C 3,2 km/h (1 Bft) 97,87 %
21.04.2019 01:34 7,3 C 14,4 C 2,8 C 56 % 1022,8 hPa 0,0 l/m 2,6 km/h (1 Bft) O-SO 114 0 min 0,000 mm 0,0 UV-I 0 W/m -0,9 C 7,3 C 4,8 km/h (1 Bft) 100,00 %
21.04.2019 01:36 7,2 C 14,4 C 2,8 C 56 % 1022,9 hPa 0,0 l/m 2,7 km/h (1 Bft) O-SO 114 0 min 0,000 mm 0,0 UV-I 0 W/m -1,0 C 7,2 C 4,8 km/h (1 Bft) 100,00 %
21.04.2019 01:38 7,0 C 14,4 C 2,8 C 56 % 1022,8 hPa 0,0 l/m 3,0 km/h (1 Bft) O-SO 114 0 min 0,000 mm 0,0 UV-I 0 W/m -1,2 C 7,0 C 4,8 km/h (1 Bft) 100,00 %
21.04.2019 01:40 6,7 C 14,4 C 2,8 C 58 % 1022,9 hPa 0,0 l/m 2,8 km/h (1 Bft) O-SO 114 0 min 0,000 mm 0,0 UV-I 0 W/m -1,0 C 6,7 C 4,8 km/h (1 Bft) 100,00 %
21.04.2019 01:42 6,7 C 14,4 C 2,8 C 59 % 1022,8 hPa 0,0 l/m 2,5 km/h (1 Bft) O-SO 114 0 min 0,000 mm 0,0 UV-I 0 W/m -0,7 C 6,7 C 3,2 km/h (1 Bft) 100,00 %
21.04.2019 01:44 6,6 C 14,4 C 2,8 C 58 % 1022,9 hPa 0,0 l/m 2,7 km/h (1 Bft) O-SO 114 0 min 0,000 mm 0,0 UV-I 0 W/m -1,1 C 6,6 C 4,8 km/h (1 Bft) 100,00 %
21.04.2019 01:46 6,8 C 14,4 C 2,8 C 58 % 1022,8 hPa 0,0 l/m 3,0 km/h (1 Bft) O-SO 114 0 min 0,000 mm 0,0 UV-I 0 W/m -0,9 C 6,8 C 4,8 km/h (1 Bft) 97,22 %
21.04.2019 01:48 7,0 C 14,4 C 2,8 C 58 % 1022,8 hPa 0,0 l/m 3,8 km/h (1 Bft) SO 125 0 min 0,000 mm 0,0 UV-I 0 W/m -0,7 C 7,0 C 4,8 km/h (1 Bft) 94,83 %
21.04.2019 01:50 7,1 C 14,4 C 3,3 C 56 % 1022,8 hPa 0,0 l/m 4,2 km/h (1 Bft) SO 129 0 min 0,000 mm 0,0 UV-I 0 W/m -1,1 C 7,1 C 4,8 km/h (1 Bft) 95,83 %
21.04.2019 01:52 6,9 C 14,4 C 2,8 C 57 % 1022,8 hPa 0,0 l/m 3,6 km/h (1 Bft) SO 136 0 min 0,000 mm 0,0 UV-I 0 W/m -1,0 C 6,9 C 4,8 km/h (1 Bft) 93,62 %
21.04.2019 01:54 6,8 C 14,4 C 2,8 C 58 % 1022,8 hPa 0,0 l/m 3,3 km/h (1 Bft) SO 146 0 min 0,000 mm 0,0 UV-I 0 W/m -0,9 C 6,8 C 4,8 km/h (1 Bft) 94,29 %
21.04.2019 01:56 6,7 C 14,4 C 2,8 C 59 % 1022,8 hPa 0,0 l/m 3,8 km/h (1 Bft) S-SO 148 0 min 0,000 mm 0,0 UV-I 0 W/m -0,7 C 6,7 C 4,8 km/h (1 Bft) 96,00 %
21.04.2019 01:58 6,5 C 14,4 C 2,2 C 60 % 1022,8 hPa 0,0 l/m 3,0 km/h (1 Bft) S-SO 159 0 min 0,000 mm 0,0 UV-I 0 W/m -0,7 C 6,5 C 4,8 km/h (1 Bft) 95,74 %
21.04.2019 02:00 6,3 C 14,4 C 2,2 C 61 % 1022,7 hPa 0,0 l/m 5,5 km/h (1 Bft) S-SO 161 0 min 0,026 mm 0,0 UV-I 0 W/m -0,7 C 6,3 C 8,0 km/h (2 Bft) 94,00 %
21.04.2019 02:02 6,5 C 14,4 C 2,8 C 60 % 1022,7 hPa 0,0 l/m 5,7 km/h (1 Bft) S-SO 161 0 min 0,000 mm 0,0 UV-I 0 W/m -0,7 C 6,5 C 8,0 km/h (2 Bft) 96,00 %
21.04.2019 02:04 6,7 C 14,4 C 2,8 C 59 % 1022,7 hPa 0,0 l/m 4,6 km/h (1 Bft) S 174 0 min 0,000 mm 0,0 UV-I 0 W/m -0,7 C 6,7 C 6,4 km/h (2 Bft) 96,00 %
21.04.2019 02:06 6,8 C 14,4 C 2,8 C 59 % 1022,6 hPa 0,0 l/m 3,8 km/h (1 Bft) S 180 0 min 0,000 mm 0,0 UV-I 0 W/m -0,6 C 6,8 C 6,4 km/h (2 Bft) 93,62 %
21.04.2019 02:08 6,9 C 14,4 C 2,8 C 58 % 1022,6 hPa 0,0 l/m 4,0 km/h (1 Bft) S 181 0 min 0,000 mm 0,0 UV-I 0 W/m -0,8 C 6,9 C 4,8 km/h (1 Bft) 97,87 %
21.04.2019 02:10 6,9 C 14,4 C 2,8 C 57 % 1022,6 hPa 0,0 l/m 2,9 km/h (1 Bft) S 181 0 min 0,000 mm 0,0 UV-I 0 W/m -1,0 C 6,9 C 4,8 km/h (1 Bft) 97,37 %
21.04.2019 02:12 6,9 C 14,4 C 2,8 C 57 % 1022,6 hPa 0,0 l/m 2,8 km/h (1 Bft) S 181 0 min 0,000 mm 0,0 UV-I 0 W/m -1,0 C 6,9 C 3,2 km/h (1 Bft) 97,87 %
21.04.2019 02:14 7,0 C 14,4 C 2,8 C 57 % 1022,6 hPa 0,0 l/m 3,4 km/h (1 Bft) S 182 0 min 0,000 mm 0,0 UV-I 0 W/m -0,9 C 7,0 C 4,8 km/h (1 Bft) 98,00 %
21.04.2019 02:16 6,9 C 14,4 C 2,8 C 57 % 1022,6 hPa 0,0 l/m 3,8 km/h (1 Bft) S 183 0 min 0,000 mm 0,0 UV-I 0 W/m -1,0 C 6,9 C 4,8 km/h (1 Bft) 94,74 %
21.04.2019 02:18 7,1 C 14,4 C 2,8 C 57 % 1022,6 hPa 0,0 l/m 3,0 km/h (1 Bft) S 183 0 min 0,000 mm 0,0 UV-I 0 W/m -0,8 C 7,1 C 3,2 km/h (1 Bft) 96,00 %
21.04.2019 02:20 7,0 C 14,4 C 2,8 C 57 % 1022,6 hPa 0,0 l/m 2,3 km/h (1 Bft) S 183 0 min 0,000 mm 0,0 UV-I 0 W/m -0,9 C 7,0 C 3,2 km/h (1 Bft) 98,00 %
21.04.2019 02:22 7,0 C 14,4 C 2,8 C 57 % 1022,6 hPa 0,0 l/m 1,9 km/h (1 Bft) S 183 0 min 0,000 mm 0,0 UV-I 0 W/m -0,9 C 7,0 C 3,2 km/h (1 Bft) 97,87 %
21.04.2019 02:24 6,9 C 14,4 C 2,8 C 58 % 1022,5 hPa 0,0 l/m 1,9 km/h (1 Bft) S 183 0 min 0,000 mm 0,0 UV-I 0 W/m -0,8 C 6,9 C 3,2 km/h (1 Bft) 98,00 %
21.04.2019 02:26 6,9 C 14,4 C 2,8 C 59 % 1022,5 hPa 0,0 l/m 1,6 km/h (1 Bft) S 183 0 min 0,000 mm 0,0 UV-I 0 W/m -0,5 C 6,9 C 3,2 km/h (1 Bft) 98,00 %
21.04.2019 02:28 6,7 C 14,4 C 2,8 C 59 % 1022,5 hPa 0,0 l/m 1,8 km/h (1 Bft) S 183 0 min 0,000 mm 0,0 UV-I 0 W/m -0,7 C 6,7 C 3,2 km/h (1 Bft) 97,44 %
21.04.2019 02:30 6,6 C 14,4 C 2,8 C 60 % 1022,5 hPa 0,0 l/m 1,5 km/h (1 Bft) S 183 0 min 0,000 mm 0,0 UV-I 0 W/m -0,6 C 6,6 C 3,2 km/h (1 Bft) 97,87 %
21.04.2019 02:32 6,5 C 14,4 C 2,8 C 60 % 1022,5 hPa 0,0 l/m 1,9 km/h (1 Bft) S 183 0 min 0,000 mm 0,0 UV-I 0 W/m -0,7 C 6,5 C 3,2 km/h (1 Bft) 97,87 %
21.04.2019 02:34 6,4 C 14,4 C 2,8 C 60 % 1022,4 hPa 0,0 l/m 1,7 km/h (1 Bft) S 183 0 min 0,000 mm 0,0 UV-I 0 W/m -0,8 C 6,4 C 3,2 km/h (1 Bft) 97,56 %
21.04.2019 02:36 6,3 C 14,4 C 2,8 C 61 % 1022,4 hPa 0,0 l/m 1,9 km/h (1 Bft) S 183 0 min 0,000 mm 0,0 UV-I 0 W/m -0,7 C 6,3 C 3,2 km/h (1 Bft) 96,23 %
21.04.2019 02:38 6,3 C 14,4 C 2,8 C 61 % 1022,3 hPa 0,0 l/m 1,7 km/h (1 Bft) S 183 0 min 0,000 mm 0,0 UV-I 0 W/m -0,7 C 6,3 C 3,2 km/h (1 Bft) 95,74 %
21.04.2019 02:40 6,3 C 14,4 C 2,8 C 61 % 1022,3 hPa 0,0 l/m 2,7 km/h (1 Bft) S 175 0 min 0,000 mm 0,0 UV-I 0 W/m -0,7 C 6,3 C 3,2 km/h (1 Bft) 100,00 %
21.04.2019 02:42 6,4 C 14,4 C 2,8 C 60 % 1022,3 hPa 0,0 l/m 2,4 km/h (1 Bft) S 175 0 min 0,000 mm 0,0 UV-I 0 W/m -0,8 C 6,4 C 3,2 km/h (1 Bft) 100,00 %
21.04.2019 02:44 6,3 C 14,4 C 2,8 C 61 % 1022,2 hPa 0,0 l/m 2,6 km/h (1 Bft) S 175 0 min 0,000 mm 0,0 UV-I 0 W/m -0,7 C 6,3 C 3,2 km/h (1 Bft) 100,00 %
21.04.2019 02:46 6,3 C 14,4 C 2,2 C 61 % 1022,2 hPa 0,0 l/m 1,2 km/h (1 Bft) S 175 0 min 0,000 mm 0,0 UV-I 0 W/m -0,7 C 6,3 C 1,6 km/h (1 Bft) 100,00 %
21.04.2019 02:48 6,4 C 14,4 C 2,2 C 61 % 1022,2 hPa 0,0 l/m 2,0 km/h (1 Bft) S 175 0 min 0,000 mm 0,0 UV-I 0 W/m -0,6 C 6,4 C 3,2 km/h (1 Bft) 100,00 %
21.04.2019 02:50 6,4 C 14,4 C 2,2 C 61 % 1022,2 hPa 0,0 l/m 2,9 km/h (1 Bft) S 175 0 min 0,000 mm 0,0 UV-I 0 W/m -0,6 C 6,4 C 4,8 km/h (1 Bft) 100,00 %
21.04.2019 02:52 6,4 C 14,4 C 2,8 C 60 % 1022,2 hPa 0,0 l/m 3,9 km/h (1 Bft) S 182 0 min 0,000 mm 0,0 UV-I 0 W/m -0,8 C 6,4 C 4,8 km/h (1 Bft) 100,00 %
21.04.2019 02:54 6,4 C 14,4 C 2,8 C 60 % 1022,2 hPa 0,0 l/m 4,2 km/h (1 Bft) S 186 0 min 0,000 mm 0,0 UV-I 0 W/m -0,8 C 6,4 C 4,8 km/h (1 Bft) 97,73 %
21.04.2019 02:56 6,4 C 14,4 C 2,2 C 60 % 1022,2 hPa 0,0 l/m 3,8 km/h (1 Bft) S 186 0 min 0,000 mm 0,0 UV-I 0 W/m -0,8 C 6,4 C 4,8 km/h (1 Bft) 100,00 %
21.04.2019 02:58 6,4 C 14,4 C 2,2 C 60 % 1022,2 hPa 0,0 l/m 3,0 km/h (1 Bft) S 186 0 min 0,000 mm 0,0 UV-I 0 W/m -0,8 C 6,4 C 4,8 km/h (1 Bft) 98,00 %
21.04.2019 03:00 6,5 C 14,4 C 2,2 C 60 % 1022,2 hPa 0,0 l/m 3,3 km/h (1 Bft) S 186 0 min 0,025 mm 0,0 UV-I 0 W/m -0,7 C 6,5 C 4,8 km/h (1 Bft) 97,44 %
21.04.2019 03:02 6,5 C 14,4 C 2,2 C 60 % 1022,2 hPa 0,0 l/m 3,2 km/h (1 Bft) S 186 0 min 0,000 mm 0,0 UV-I 0 W/m -0,7 C 6,5 C 4,8 km/h (1 Bft) 98,00 %
21.04.2019 03:04 6,4 C 14,4 C 2,8 C 61 % 1022,2 hPa 0,0 l/m 4,0 km/h (1 Bft) S 186 0 min 0,000 mm 0,0 UV-I 0 W/m -0,6 C 6,4 C 4,8 km/h (1 Bft) 98,00 %
21.04.2019 03:06 6,1 C 14,4 C 2,2 C 61 % 1022,2 hPa 0,0 l/m 4,2 km/h (1 Bft) S 188 0 min 0,000 mm 0,0 UV-I 0 W/m -0,8 C 6,1 C 4,8 km/h (1 Bft) 98,08 %
21.04.2019 03:08 5,8 C 14,4 C 2,2 C 62 % 1022,2 hPa 0,0 l/m 4,0 km/h (1 Bft) S-SW 203 0 min 0,000 mm 0,0 UV-I 0 W/m -0,9 C 5,8 C 6,4 km/h (2 Bft) 95,83 %
21.04.2019 03:10 5,7 C 14,4 C 2,2 C 63 % 1022,2 hPa 0,0 l/m 5,1 km/h (1 Bft) S-SW 204 0 min 0,000 mm 0,0 UV-I 0 W/m -0,8 C 5,7 C 6,4 km/h (2 Bft) 96,77 %
21.04.2019 03:12 5,7 C 14,4 C 2,2 C 63 % 1022,2 hPa 0,0 l/m 4,9 km/h (1 Bft) S-SW 205 0 min 0,000 mm 0,0 UV-I 0 W/m -0,8 C 5,7 C 6,4 km/h (2 Bft) 96,23 %
21.04.2019 03:14 5,9 C 14,4 C 2,2 C 63 % 1022,2 hPa 0,0 l/m 4,5 km/h (1 Bft) S-SW 205 0 min 0,000 mm 0,0 UV-I 0 W/m -0,6 C 5,9 C 6,4 km/h (2 Bft) 97,37 %
21.04.2019 03:16 6,1 C 14,4 C 2,2 C 62 % 1022,2 hPa 0,0 l/m 3,3 km/h (1 Bft) S-SW 205 0 min 0,000 mm 0,0 UV-I 0 W/m -0,6 C 6,1 C 6,4 km/h (2 Bft) 95,74 %
21.04.2019 03:18 6,2 C 14,4 C 2,2 C 61 % 1022,2 hPa 0,0 l/m 1,6 km/h (1 Bft) S-SW 205 0 min 0,000 mm 0,0 UV-I 0 W/m -0,7 C 6,2 C 3,2 km/h (1 Bft) 97,14 %
21.04.2019 03:20 6,3 C 14,4 C 2,8 C 61 % 1022,2 hPa 0,0 l/m 2,4 km/h (1 Bft) S-SW 205 0 min 0,000 mm 0,0 UV-I 0 W/m -0,7 C 6,3 C 3,2 km/h (1 Bft) 98,53 %
21.04.2019 03:22 6,3 C 14,4 C 2,2 C 61 % 1022,1 hPa 0,0 l/m 2,0 km/h (1 Bft) S-SW 205 0 min 0,000 mm 0,0 UV-I 0 W/m -0,7 C 6,3 C 3,2 km/h (1 Bft) 97,87 %
21.04.2019 03:24 6,2 C 14,4 C 2,2 C 61 % 1022,1 hPa 0,0 l/m 2,3 km/h (1 Bft) S-SW 205 0 min 0,000 mm 0,0 UV-I 0 W/m -0,7 C 6,2 C 3,2 km/h (1 Bft) 95,74 %
21.04.2019 03:26 6,1 C 14,4 C 2,2 C 62 % 1022,1 hPa 0,0 l/m 3,7 km/h (1 Bft) S-SW 205 0 min 0,000 mm 0,0 UV-I 0 W/m -0,6 C 6,1 C 4,8 km/h (1 Bft) 100,00 %
21.04.2019 03:28 5,9 C 14,4 C 2,8 C 63 % 1022,1 hPa 0,0 l/m 4,4 km/h (1 Bft) S-SW 205 0 min 0,000 mm 0,0 UV-I 0 W/m -0,6 C 5,9 C 4,8 km/h (1 Bft) 98,00 %
21.04.2019 03:30 5,8 C 14,4 C 2,2 C 64 % 1022,2 hPa 0,0 l/m 3,4 km/h (1 Bft) S-SW 205 0 min 0,000 mm 0,0 UV-I 0 W/m -0,5 C 5,8 C 4,8 km/h (1 Bft) 100,00 %
21.04.2019 03:32 5,8 C 14,4 C 2,2 C 65 % 1022,1 hPa 0,0 l/m 4,5 km/h (1 Bft) S-SW 205 0 min 0,000 mm 0,0 UV-I 0 W/m -0,3 C 5,8 C 4,8 km/h (1 Bft) 100,00 %
21.04.2019 03:34 5,8 C 14,4 C 2,2 C 65 % 1022,0 hPa 0,0 l/m 3,5 km/h (1 Bft) S-SW 205 0 min 0,000 mm 0,0 UV-I 0 W/m -0,3 C 5,8 C 4,8 km/h (1 Bft) 100,00 %
21.04.2019 03:36 5,9 C 14,4 C 2,2 C 65 % 1022,1 hPa 0,0 l/m 3,1 km/h (1 Bft) S-SW 205 0 min 0,000 mm 0,0 UV-I 0 W/m -0,2 C 5,9 C 4,8 km/h (1 Bft) 98,00 %
21.04.2019 03:38 6,0 C 13,9 C 2,2 C 65 % 1022,1 hPa 0,0 l/m 2,4 km/h (1 Bft) S-SW 205 0 min 0,000 mm 0,0 UV-I 0 W/m -0,1 C 6,0 C 3,2 km/h (1 Bft) 95,74 %
21.04.2019 03:40 6,0 C 13,9 C 2,2 C 64 % 1022,1 hPa 0,0 l/m 1,9 km/h (1 Bft) S-SW 205 0 min 0,000 mm 0,0 UV-I 0 W/m -0,3 C 6,0 C 3,2 km/h (1 Bft) 100,00 %
21.04.2019 03:42 6,1 C 13,9 C 2,2 C 64 % 1022,0 hPa 0,0 l/m 1,9 km/h (1 Bft) S-SW 205 0 min 0,000 mm 0,0 UV-I 0 W/m -0,2 C 6,1 C 3,2 km/h (1 Bft) 97,87 %
21.04.2019 03:44 5,9 C 13,9 C 2,8 C 65 % 1022,1 hPa 0,0 l/m 2,0 km/h (1 Bft) S-SW 205 0 min 0,000 mm 0,0 UV-I 0 W/m -0,2 C 5,9 C 3,2 km/h (1 Bft) 100,00 %
21.04.2019 03:46 5,6 C 13,9 C 2,2 C 65 % 1022,1 hPa 0,0 l/m 2,2 km/h (1 Bft) S-SW 205 0 min 0,000 mm 0,0 UV-I 0 W/m -0,4 C 5,6 C 3,2 km/h (1 Bft) 100,00 %
21.04.2019 03:48 5,3 C 13,9 C 1,7 C 66 % 1022,0 hPa 0,0 l/m 2,3 km/h (1 Bft) S-SW 205 0 min 0,000 mm 0,0 UV-I 0 W/m -0,5 C 5,3 C 3,2 km/h (1 Bft) 96,43 %
21.04.2019 03:50 5,3 C 13,9 C 1,7 C 66 % 1022,0 hPa 0,0 l/m 3,0 km/h (1 Bft) S-SW 205 0 min 0,000 mm 0,0 UV-I 0 W/m -0,5 C 5,3 C 4,8 km/h (1 Bft) 98,04 %
21.04.2019 03:52 5,2 C 13,9 C 1,7 C 67 % 1022,0 hPa 0,0 l/m 3,7 km/h (1 Bft) S-SW 205 0 min 0,000 mm 0,0 UV-I 0 W/m -0,4 C 5,2 C 4,8 km/h (1 Bft) 97,37 %
21.04.2019 03:54 5,2 C 13,9 C 1,1 C 67 % 1022,0 hPa 0,0 l/m 3,4 km/h (1 Bft) S-SW 205 0 min 0,000 mm 0,0 UV-I 0 W/m -0,4 C 5,2 C 4,8 km/h (1 Bft) 93,62 %
21.04.2019 03:56 5,1 C 13,9 C 1,7 C 67 % 1021,9 hPa 0,0 l/m 3,9 km/h (1 Bft) S-SW 205 0 min 0,000 mm 0,0 UV-I 0 W/m -0,5 C 5,1 C 4,8 km/h (1 Bft) 98,00 %
21.04.2019 03:58 4,9 C 13,9 C 1,7 C 68 % 1021,9 hPa 0,0 l/m 3,7 km/h (1 Bft) S-SW 205 0 min 0,000 mm 0,0 UV-I 0 W/m -0,5 C 4,9 C 4,8 km/h (1 Bft) 97,87 %
21.04.2019 04:00 4,9 C 13,9 C 1,1 C 68 % 1021,9 hPa 0,0 l/m 3,1 km/h (1 Bft) S-SW 205 0 min 0,026 mm 0,0 UV-I 0 W/m -0,5 C 4,9 C 4,8 km/h (1 Bft) 94,00 %
21.04.2019 04:02 4,8 C 13,9 C 1,1 C 68 % 1021,9 hPa 0,0 l/m 3,7 km/h (1 Bft) S-SW 205 0 min 0,000 mm 0,0 UV-I 0 W/m -0,6 C 4,8 C 4,8 km/h (1 Bft) 100,00 %
21.04.2019 04:04 4,8 C 13,9 C 1,1 C 68 % 1021,9 hPa 0,0 l/m 3,7 km/h (1 Bft) S-SW 205 0 min 0,000 mm 0,0 UV-I 0 W/m -0,6 C 4,8 C 4,8 km/h (1 Bft) 97,87 %
21.04.2019 04:06 4,6 C 13,9 C 1,1 C 69 % 1021,9 hPa 0,0 l/m 4,5 km/h (1 Bft) S-SW 205 0 min 0,000 mm 0,0 UV-I 0 W/m -0,6 C 4,6 C 6,4 km/h (2 Bft) 95,74 %
21.04.2019 04:08 4,6 C 13,9 C 1,1 C 69 % 1021,9 hPa 0,0 l/m 5,0 km/h (1 Bft) S-SW 205 0 min 0,000 mm 0,0 UV-I 0 W/m -0,6 C 4,6 C 6,4 km/h (2 Bft) 93,62 %
21.04.2019 04:10 4,3 C 13,9 C 1,1 C 69 % 1021,8 hPa 0,0 l/m 5,4 km/h (1 Bft) S-SW 205 0 min 0,000 mm 0,0 UV-I 0 W/m -0,9 C 4,3 C 6,4 km/h (2 Bft) 95,12 %
21.04.2019 04:12 4,2 C 13,9 C 1,1 C 71 % 1021,8 hPa 0,0 l/m 5,6 km/h (1 Bft) S-SW 205 0 min 0,000 mm 0,0 UV-I 0 W/m -0,6 C 4,2 C 6,4 km/h (2 Bft) 95,74 %
21.04.2019 04:14 4,2 C 13,9 C 1,1 C 71 % 1021,8 hPa 0,0 l/m 5,3 km/h (1 Bft) S-SW 205 0 min 0,000 mm 0,0 UV-I 0 W/m -0,6 C 4,2 C 6,4 km/h (2 Bft) 96,00 %
21.04.2019 04:16 4,2 C 13,9 C 0,6 C 70 % 1021,8 hPa 0,0 l/m 4,5 km/h (1 Bft) S-SW 205 0 min 0,000 mm 0,0 UV-I 0 W/m -0,8 C 4,2 C 6,4 km/h (2 Bft) 95,74 %
21.04.2019 04:18 4,3 C 13,9 C 0,6 C 70 % 1021,8 hPa 0,0 l/m 3,7 km/h (1 Bft) S-SW 205 0 min 0,000 mm 0,0 UV-I 0 W/m -0,7 C 4,3 C 4,8 km/h (1 Bft) 88,89 %
21.04.2019 04:20 4,6 C 13,9 C 0,6 C 69 % 1021,8 hPa 0,0 l/m 3,8 km/h (1 Bft) S-SW 205 0 min 0,000 mm 0,0 UV-I 0 W/m -0,6 C 4,6 C 4,8 km/h (1 Bft) 94,64 %
21.04.2019 04:22 4,8 C 13,9 C 1,1 C 68 % 1021,8 hPa 0,0 l/m 3,9 km/h (1 Bft) S-SW 205 0 min 0,000 mm 0,0 UV-I 0 W/m -0,6 C 4,8 C 4,8 km/h (1 Bft) 94,00 %
21.04.2019 04:24 4,9 C 13,9 C 1,1 C 68 % 1021,8 hPa 0,0 l/m 3,9 km/h (1 Bft) S-SW 205 0 min 0,000 mm 0,0 UV-I 0 W/m -0,5 C 4,9 C 4,8 km/h (1 Bft) 95,45 %
21.04.2019 04:26 5,1 C 13,9 C 1,1 C 68 % 1021,8 hPa 0,0 l/m 4,2 km/h (1 Bft) S-SW 205 0 min 0,000 mm 0,0 UV-I 0 W/m -0,3 C 5,1 C 6,4 km/h (2 Bft) 95,74 %
21.04.2019 04:28 5,0 C 13,9 C 0,6 C 67 % 1021,7 hPa 0,0 l/m 5,3 km/h (1 Bft) S-SW 205 0 min 0,000 mm 0,0 UV-I 0 W/m -0,6 C 5,0 C 6,4 km/h (2 Bft) 98,00 %
21.04.2019 04:30 4,9 C 13,9 C 0,6 C 67 % 1021,7 hPa 0,0 l/m 6,0 km/h (2 Bft) S-SW 205 0 min 0,000 mm 0,0 UV-I 0 W/m -0,7 C 4,9 C 8,0 km/h (2 Bft) 94,74 %
21.04.2019 04:32 4,7 C 13,9 C 0,6 C 68 % 1021,7 hPa 0,0 l/m 6,7 km/h (2 Bft) S-SW 206 0 min 0,000 mm 0,0 UV-I 0 W/m -0,7 C 4,4 C 8,0 km/h (2 Bft) 96,00 %
21.04.2019 04:34 4,7 C 13,9 C 1,1 C 70 % 1021,8 hPa 0,0 l/m 6,3 km/h (2 Bft) S-SW 206 0 min 0,000 mm 0,0 UV-I 0 W/m -0,3 C 4,7 C 8,0 km/h (2 Bft) 97,73 %
21.04.2019 04:36 4,6 C 13,9 C 1,1 C 70 % 1021,7 hPa 0,0 l/m 6,1 km/h (2 Bft) S-SW 207 0 min 0,000 mm 0,0 UV-I 0 W/m -0,4 C 4,6 C 6,4 km/h (2 Bft) 96,00 %
21.04.2019 04:38 4,6 C 13,9 C 1,1 C 71 % 1021,7 hPa 0,0 l/m 4,5 km/h (1 Bft) S-SW 207 0 min 0,000 mm 0,0 UV-I 0 W/m -0,2 C 4,6 C 6,4 km/h (2 Bft) 96,23 %
21.04.2019 04:40 4,4 C 13,9 C 1,1 C 71 % 1021,7 hPa 0,0 l/m 4,5 km/h (1 Bft) S-SW 207 0 min 0,000 mm 0,0 UV-I 0 W/m -0,4 C 4,4 C 4,8 km/h (1 Bft) 97,87 %
21.04.2019 04:42 4,3 C 13,9 C 1,1 C 72 % 1021,7 hPa 0,0 l/m 5,1 km/h (1 Bft) S-SW 207 0 min 0,000 mm 0,0 UV-I 0 W/m -0,3 C 4,3 C 6,4 km/h (2 Bft) 97,14 %
21.04.2019 04:44 4,3 C 13,9 C 1,1 C 72 % 1021,7 hPa 0,0 l/m 5,9 km/h (2 Bft) S-SW 206 0 min 0,000 mm 0,0 UV-I 0 W/m -0,3 C 4,3 C 6,4 km/h (2 Bft) 94,00 %
21.04.2019 04:46 4,4 C 13,9 C 1,1 C 72 % 1021,6 hPa 0,0 l/m 4,0 km/h (1 Bft) S-SW 207 0 min 0,000 mm 0,0 UV-I 0 W/m -0,2 C 4,4 C 4,8 km/h (1 Bft) 100,00 %
21.04.2019 04:48 4,3 C 13,9 C 1,1 C 72 % 1021,6 hPa 0,0 l/m 4,2 km/h (1 Bft) S-SW 207 0 min 0,000 mm 0,0 UV-I 0 W/m -0,3 C 4,3 C 4,8 km/h (1 Bft) 97,56 %
21.04.2019 04:50 4,5 C 13,9 C 1,1 C 72 % 1021,6 hPa 0,0 l/m 3,0 km/h (1 Bft) S-SW 207 0 min 0,000 mm 0,0 UV-I 0 W/m -0,1 C 4,5 C 4,8 km/h (1 Bft) 96,00 %
21.04.2019 04:52 4,6 C 13,9 C 1,1 C 72 % 1021,6 hPa 0,0 l/m 3,8 km/h (1 Bft) S-SW 207 0 min 0,000 mm 0,0 UV-I 0 W/m -0,0 C 4,6 C 4,8 km/h (1 Bft) 93,62 %
21.04.2019 04:54 4,7 C 13,9 C 1,1 C 71 % 1021,7 hPa 0,0 l/m 3,8 km/h (1 Bft) S-SW 207 0 min 0,000 mm 0,0 UV-I 0 W/m -0,1 C 4,7 C 4,8 km/h (1 Bft) 90,48 %
21.04.2019 04:56 4,6 C 13,9 C 1,1 C 70 % 1021,6 hPa 0,0 l/m 4,1 km/h (1 Bft) S-SW 207 0 min 0,000 mm 0,0 UV-I 0 W/m -0,4 C 4,6 C 4,8 km/h (1 Bft) 98,00 %
21.04.2019 04:58 4,4 C 13,9 C 0,6 C 71 % 1021,7 hPa 0,0 l/m 4,9 km/h (1 Bft) S-SW 206 0 min 0,000 mm 0,0 UV-I 0 W/m -0,4 C 4,4 C 6,4 km/h (2 Bft) 96,15 %
21.04.2019 05:00 4,3 C 13,9 C 0,6 C 71 % 1021,7 hPa 0,0 l/m 4,5 km/h (1 Bft) S-SW 207 0 min 0,025 mm 0,0 UV-I 0 W/m -0,5 C 4,3 C 4,8 km/h (1 Bft) 97,92 %
21.04.2019 05:02 4,2 C 13,9 C 0,6 C 72 % 1021,7 hPa 0,0 l/m 4,4 km/h (1 Bft) S-SW 207 0 min 0,000 mm 0,0 UV-I 0 W/m -0,4 C 4,2 C 6,4 km/h (2 Bft) 97,56 %
21.04.2019 05:04 4,2 C 13,9 C 0,6 C 73 % 1021,7 hPa 0,0 l/m 4,1 km/h (1 Bft) S-SW 207 0 min 0,000 mm 0,0 UV-I 0 W/m -0,2 C 4,2 C 4,8 km/h (1 Bft) 98,11 %
21.04.2019 05:06 4,2 C 13,9 C 0,6 C 72 % 1021,7 hPa 0,0 l/m 5,0 km/h (1 Bft) S-SW 207 0 min 0,000 mm 0,0 UV-I 0 W/m -0,4 C 4,2 C 6,4 km/h (2 Bft) 97,87 %
21.04.2019 05:08 3,9 C 13,9 C 0,6 C 73 % 1021,7 hPa 0,0 l/m 4,6 km/h (1 Bft) S-SW 207 0 min 0,000 mm 0,0 UV-I 0 W/m -0,5 C 3,9 C 4,8 km/h (1 Bft) 95,74 %
21.04.2019 05:10 3,8 C 13,9 C 0,0 C 74 % 1021,7 hPa 0,0 l/m 5,2 km/h (1 Bft) S-SW 207 0 min 0,000 mm 0,0 UV-I 0 W/m -0,4 C 3,8 C 6,4 km/h (2 Bft) 100,00 %
21.04.2019 05:12 3,7 C 13,9 C 0,0 C 74 % 1021,7 hPa 0,0 l/m 4,7 km/h (1 Bft) S-SW 207 0 min 0,000 mm 0,0 UV-I 0 W/m -0,5 C 3,7 C 6,4 km/h (2 Bft) 96,00 %
21.04.2019 05:14 3,7 C 13,9 C 0,0 C 75 % 1021,7 hPa 0,0 l/m 3,2 km/h (1 Bft) S-SW 207 0 min 0,000 mm 0,0 UV-I 0 W/m -0,3 C 3,7 C 4,8 km/h (1 Bft) 97,37 %
21.04.2019 05:16 3,8 C 13,9 C 0,0 C 75 % 1021,7 hPa 0,0 l/m 4,3 km/h (1 Bft) S-SW 207 0 min 0,000 mm 0,0 UV-I 0 W/m -0,2 C 3,8 C 6,4 km/h (2 Bft) 98,25 %
21.04.2019 05:18 3,9 C 13,9 C 0,0 C 74 % 1021,6 hPa 0,0 l/m 5,0 km/h (1 Bft) S-SW 207 0 min 0,000 mm 0,0 UV-I 0 W/m -0,3 C 3,9 C 6,4 km/h (2 Bft) 97,87 %
21.04.2019 05:20 3,9 C 13,9 C 0,0 C 74 % 1021,6 hPa 0,0 l/m 4,4 km/h (1 Bft) S-SW 207 0 min 0,000 mm 0,0 UV-I 0 W/m -0,3 C 3,9 C 4,8 km/h (1 Bft) 97,56 %
21.04.2019 05:22 3,9 C 13,9 C 0,0 C 74 % 1021,6 hPa 0,0 l/m 4,3 km/h (1 Bft) S-SW 207 0 min 0,000 mm 0,0 UV-I 0 W/m -0,3 C 3,9 C 4,8 km/h (1 Bft) 96,00 %
21.04.2019 05:24 4,1 C 13,9 C 0,0 C 74 % 1021,6 hPa 0,0 l/m 4,1 km/h (1 Bft) S-SW 207 0 min 0,000 mm 0,0 UV-I 0 W/m -0,1 C 4,1 C 4,8 km/h (1 Bft) 95,74 %
21.04.2019 05:26 4,2 C 13,9 C 0,0 C 73 % 1021,6 hPa 0,0 l/m 4,1 km/h (1 Bft) S-SW 207 0 min 0,000 mm 0,0 UV-I 0 W/m -0,2 C 4,2 C 4,8 km/h (1 Bft) 93,62 %
21.04.2019 05:28 4,1 C 13,9 C 0,0 C 73 % 1021,6 hPa 0,0 l/m 4,4 km/h (1 Bft) S-SW 207 0 min 0,000 mm 0,0 UV-I 0 W/m -0,3 C 4,1 C 4,8 km/h (1 Bft) 95,74 %
21.04.2019 05:30 4,1 C 13,9 C 0,0 C 73 % 1021,5 hPa 0,0 l/m 3,8 km/h (1 Bft) S-SW 207 0 min 0,000 mm 0,0 UV-I 0 W/m -0,3 C 4,1 C 4,8 km/h (1 Bft) 96,00 %
21.04.2019 05:32 4,1 C 13,9 C 0,0 C 73 % 1021,5 hPa 0,0 l/m 3,3 km/h (1 Bft) S-SW 207 0 min 0,000 mm 0,0 UV-I 0 W/m -0,3 C 4,1 C 4,8 km/h (1 Bft) 97,44 %
21.04.2019 05:34 4,1 C 13,9 C 0,0 C 73 % 1021,6 hPa 0,0 l/m 3,5 km/h (1 Bft) S-SW 207 0 min 0,000 mm 0,0 UV-I 0 W/m -0,3 C 4,1 C 4,8 km/h (1 Bft) 93,62 %
21.04.2019 05:36 4,0 C 13,9 C 0,0 C 72 % 1021,6 hPa 0,0 l/m 4,7 km/h (1 Bft) S-SW 207 0 min 0,000 mm 0,0 UV-I 0 W/m -0,6 C 4,0 C 6,4 km/h (2 Bft) 97,87 %
21.04.2019 05:38 3,7 C 13,9 C 0,0 C 73 % 1021,6 hPa 0,0 l/m 5,0 km/h (1 Bft) S-SW 207 0 min 0,000 mm 0,0 UV-I 0 W/m -0,7 C 3,7 C 6,4 km/h (2 Bft) 100,00 %
21.04.2019 05:40 3,4 C 13,9 C 0,0 C 75 % 1021,6 hPa 0,0 l/m 5,2 km/h (1 Bft) S-SW 207 0 min 0,000 mm 0,0 UV-I 0 W/m -0,6 C 3,4 C 6,4 km/h (2 Bft) 97,06 %
21.04.2019 05:42 3,6 C 13,9 C 0,0 C 75 % 1021,6 hPa 0,0 l/m 5,2 km/h (1 Bft) S-SW 207 0 min 0,000 mm 0,0 UV-I 0 W/m -0,4 C 3,6 C 6,4 km/h (2 Bft) 97,87 %
21.04.2019 05:44 3,4 C 13,9 C 0,0 C 75 % 1021,6 hPa 0,0 l/m 4,8 km/h (1 Bft) S-SW 207 0 min 0,000 mm 0,0 UV-I 0 W/m -0,6 C 3,4 C 6,4 km/h (2 Bft) 100,00 %
21.04.2019 05:46 3,1 C 13,9 C 0,0 C 75 % 1021,6 hPa 0,0 l/m 5,1 km/h (1 Bft) S-SW 206 0 min 0,000 mm 0,0 UV-I 0 W/m -0,9 C 3,1 C 6,4 km/h (2 Bft) 100,00 %
21.04.2019 05:48 3,1 C 13,9 C 0,0 C 77 % 1021,6 hPa 0,0 l/m 4,7 km/h (1 Bft) S-SW 207 0 min 0,000 mm 0,0 UV-I 0 W/m -0,5 C 3,1 C 6,4 km/h (2 Bft) 100,00 %
21.04.2019 05:50 3,3 C 13,9 C 0,0 C 77 % 1021,6 hPa 0,0 l/m 4,3 km/h (1 Bft) S-SW 206 0 min 0,000 mm 0,0 UV-I 4 W/m -0,3 C 3,3 C 4,8 km/h (1 Bft) 100,00 %
21.04.2019 05:52 3,3 C 13,9 C 0,0 C 77 % 1021,7 hPa 0,0 l/m 2,8 km/h (1 Bft) S-SW 207 0 min 0,000 mm 0,0 UV-I 5 W/m -0,3 C 3,3 C 3,2 km/h (1 Bft) 100,00 %
21.04.2019 05:54 3,5 C 13,9 C 0,0 C 77 % 1021,7 hPa 0,0 l/m 3,0 km/h (1 Bft) S-SW 206 0 min 0,000 mm 0,0 UV-I 5 W/m -0,1 C 3,5 C 3,2 km/h (1 Bft) 100,00 %
21.04.2019 05:56 3,6 C 13,9 C 0,0 C 76 % 1021,7 hPa 0,0 l/m 4,0 km/h (1 Bft) S-SW 206 0 min 0,000 mm 0,0 UV-I 5 W/m -0,2 C 3,6 C 4,8 km/h (1 Bft) 97,87 %
21.04.2019 05:58 3,5 C 13,9 C 0,6 C 76 % 1021,7 hPa 0,0 l/m 4,1 km/h (1 Bft) S-SW 207 0 min 0,000 mm 0,0 UV-I 7 W/m -0,3 C 3,5 C 4,8 km/h (1 Bft) 100,00 %
21.04.2019 06:00 3,5 C 13,9 C 0,6 C 77 % 1021,7 hPa 0,0 l/m 3,6 km/h (1 Bft) S-SW 206 0 min 0,000 mm 0,0 UV-I 7 W/m -0,1 C 3,5 C 4,8 km/h (1 Bft) 100,00 %
21.04.2019 06:02 3,4 C 13,9 C 0,6 C 76 % 1021,7 hPa 0,0 l/m 3,0 km/h (1 Bft) S-SW 207 0 min 0,025 mm 0,0 UV-I 7 W/m -0,4 C 3,4 C 4,8 km/h (1 Bft) 100,00 %
21.04.2019 06:04 3,4 C 13,9 C 0,6 C 77 % 1021,8 hPa 0,0 l/m 3,2 km/h (1 Bft) S-SW 207 0 min 0,000 mm 0,0 UV-I 9 W/m -0,2 C 3,4 C 4,8 km/h (1 Bft) 100,00 %
21.04.2019 06:06 3,5 C 13,9 C 0,6 C 77 % 1021,8 hPa 0,0 l/m 3,0 km/h (1 Bft) S-SW 206 0 min 0,000 mm 0,0 UV-I 9 W/m -0,1 C 3,5 C 4,8 km/h (1 Bft) 100,00 %
21.04.2019 06:08 3,5 C 13,9 C 0,6 C 77 % 1021,8 hPa 0,0 l/m 5,1 km/h (1 Bft) S-SW 206 0 min 0,000 mm 0,0 UV-I 11 W/m -0,1 C 3,5 C 6,4 km/h (2 Bft) 100,00 %
21.04.2019 06:10 3,4 C 13,9 C 0,6 C 76 % 1021,8 hPa 0,0 l/m 4,0 km/h (1 Bft) S-SW 206 0 min 0,000 mm 0,0 UV-I 12 W/m -0,4 C 3,4 C 4,8 km/h (1 Bft) 97,92 %
21.04.2019 06:12 3,3 C 13,9 C 0,6 C 77 % 1021,8 hPa 0,0 l/m 3,9 km/h (1 Bft) S-SW 206 0 min 0,000 mm 0,0 UV-I 13 W/m -0,3 C 3,3 C 6,4 km/h (2 Bft) 100,00 %
21.04.2019 06:14 3,2 C 13,9 C 0,6 C 77 % 1021,8 hPa 0,0 l/m 2,6 km/h (1 Bft) S-SW 206 0 min 0,000 mm 0,0 UV-I 16 W/m -0,4 C 3,2 C 4,8 km/h (1 Bft) 98,08 %
21.04.2019 06:16 3,2 C 13,9 C 0,0 C 78 % 1021,9 hPa 0,0 l/m 1,3 km/h (1 Bft) S-SW 206 2 min 0,000 mm 0,0 UV-I 18 W/m -0,3 C 3,2 C 1,6 km/h (1 Bft) 100,00 %
21.04.2019 06:18 3,5 C 13,9 C 0,0 C 79 % 1021,8 hPa 0,0 l/m 0,2 km/h (0 Bft) S-SW 206 2 min 0,000 mm 0,0 UV-I 21 W/m 0,2 C 3,5 C 1,6 km/h (1 Bft) 100,00 %
21.04.2019 06:20 3,7 C 13,9 C 0,0 C 78 % 1021,9 hPa 0,0 l/m 0,8 km/h (0 Bft) S-SW 206 2 min 0,000 mm 0,0 UV-I 24 W/m 0,2 C 3,7 C 1,6 km/h (1 Bft) 100,00 %
21.04.2019 06:22 3,7 C 13,9 C 0,0 C 77 % 1021,9 hPa 0,0 l/m 0,1 km/h (0 Bft) S-SW 206 2 min 0,000 mm 0,0 UV-I 27 W/m 0,1 C 3,7 C 1,6 km/h (1 Bft) 100,00 %
21.04.2019 06:24 3,8 C 13,9 C 0,0 C 77 % 1021,9 hPa 0,0 l/m 1,0 km/h (0 Bft) S-SW 206 2 min 0,000 mm 0,0 UV-I 30 W/m 0,1 C 3,8 C 3,2 km/h (1 Bft) 100,00 %
21.04.2019 06:26 3,7 C 13,9 C 0,6 C 77 % 1021,9 hPa 0,0 l/m 0,2 km/h (0 Bft) S-SW 206 2 min 0,000 mm 0,0 UV-I 30 W/m 0,1 C 3,7 C 1,6 km/h (1 Bft) 95,74 %
21.04.2019 06:28 3,7 C 13,9 C 0,6 C 77 % 1021,8 hPa 0,0 l/m 0,0 km/h (0 Bft) S-SW 206 0 min 0,000 mm 0,0 UV-I 26 W/m 0,1 C 3,7 C 0,0 km/h (0 Bft) 100,00 %
21.04.2019 06:30 3,7 C 13,9 C 0,6 C 77 % 1021,8 hPa 0,0 l/m 0,0 km/h (0 Bft) S-SW 206 2 min 0,000 mm 0,0 UV-I 33 W/m 0,1 C 3,7 C 0,0 km/h (0 Bft) 100,00 %
21.04.2019 06:32 3,5 C 13,9 C 0,6 C 77 % 1021,8 hPa 0,0 l/m 0,2 km/h (0 Bft) S-SW 207 2 min 0,000 mm 0,0 UV-I 44 W/m -0,1 C 3,5 C 1,6 km/h (1 Bft) 98,00 %
21.04.2019 06:34 3,4 C 13,9 C 0,6 C 78 % 1021,8 hPa 0,0 l/m 0,6 km/h (0 Bft) S-SW 206 2 min 0,000 mm 0,0 UV-I 49 W/m -0,1 C 3,4 C 1,6 km/h (1 Bft) 98,00 %
21.04.2019 06:36 3,4 C 13,9 C 0,6 C 78 % 1021,9 hPa 0,0 l/m 1,8 km/h (1 Bft) S-SW 207 2 min 0,000 mm 0,0 UV-I 51 W/m -0,1 C 3,4 C 3,2 km/h (1 Bft) 95,12 %
21.04.2019 06:38 3,4 C 13,9 C 1,1 C 78 % 1021,9 hPa 0,0 l/m 1,9 km/h (1 Bft) S-SW 207 0 min 0,000 mm 0,0 UV-I 41 W/m -0,1 C 3,4 C 3,2 km/h (1 Bft) 96,00 %
21.04.2019 06:40 3,4 C 13,9 C 1,1 C 78 % 1021,9 hPa 0,0 l/m 2,1 km/h (1 Bft) S-SW 207 0 min 0,000 mm 0,0 UV-I 30 W/m -0,1 C 3,4 C 3,2 km/h (1 Bft) 92,00 %
21.04.2019 06:42 3,3 C 13,9 C 1,7 C 78 % 1021,9 hPa 0,0 l/m 3,0 km/h (1 Bft) S-SW 207 0 min 0,000 mm 0,0 UV-I 30 W/m -0,2 C 3,3 C 3,2 km/h (1 Bft) 94,74 %
21.04.2019 06:44 3,4 C 13,9 C 1,7 C 79 % 1021,9 hPa 0,0 l/m 3,1 km/h (1 Bft) S-SW 207 0 min 0,000 mm 0,0 UV-I 35 W/m 0,1 C 3,4 C 3,2 km/h (1 Bft) 96,23 %
21.04.2019 06:46 3,6 C 13,9 C 1,7 C 79 % 1021,8 hPa 0,0 l/m 2,2 km/h (1 Bft) S-SW 207 2 min 0,000 mm 0,0 UV-I 58 W/m 0,3 C 3,6 C 3,2 km/h (1 Bft) 93,62 %
21.04.2019 06:48 3,7 C 13,9 C 1,7 C 78 % 1021,8 hPa 0,0 l/m 2,8 km/h (1 Bft) S-SW 207 2 min 0,000 mm 0,0 UV-I 80 W/m 0,2 C 3,7 C 4,8 km/h (1 Bft) 96,00 %
21.04.2019 06:50 3,7 C 13,9 C 1,1 C 78 % 1021,8 hPa 0,0 l/m 2,4 km/h (1 Bft) S-SW 207 2 min 0,000 mm 0,0 UV-I 85 W/m 0,2 C 3,7 C 3,2 km/h (1 Bft) 92,31 %
21.04.2019 06:52 3,8 C 13,9 C 1,7 C 78 % 1021,8 hPa 0,0 l/m 2,5 km/h (1 Bft) S-SW 207 2 min 0,000 mm 0,0 UV-I 89 W/m 0,3 C 3,8 C 3,2 km/h (1 Bft) 96,00 %
21.04.2019 06:54 3,9 C 13,9 C 1,7 C 78 % 1021,9 hPa 0,0 l/m 1,8 km/h (1 Bft) S-SW 207 2 min 0,000 mm 0,0 UV-I 92 W/m 0,4 C 3,9 C 3,2 km/h (1 Bft) 97,14 %
21.04.2019 06:56 4,1 C 13,9 C 1,7 C 77 % 1021,8 hPa 0,0 l/m 2,0 km/h (1 Bft) S-SW 207 2 min 0,000 mm 0,0 UV-I 97 W/m 0,4 C 4,1 C 3,2 km/h (1 Bft) 96,55 %
21.04.2019 06:58 4,2 C 13,9 C 1,7 C 77 % 1021,8 hPa 0,0 l/m 1,8 km/h (1 Bft) S-SW 207 2 min 0,000 mm 0,0 UV-I 103 W/m 0,5 C 4,2 C 3,2 km/h (1 Bft) 96,23 %
21.04.2019 07:00 4,3 C 13,9 C 2,2 C 77 % 1021,9 hPa 0,0 l/m 1,6 km/h (1 Bft) S-SW 207 2 min 0,026 mm 0,0 UV-I 108 W/m 0,6 C 4,3 C 3,2 km/h (1 Bft) 97,37 %
21.04.2019 07:02 4,4 C 13,9 C 2,2 C 76 % 1021,9 hPa 0,0 l/m 1,0 km/h (0 Bft) S-SW 207 2 min 0,000 mm 0,0 UV-I 113 W/m 0,5 C 4,4 C 1,6 km/h (1 Bft) 98,11 %
21.04.2019 07:04 4,6 C 13,9 C 1,7 C 76 % 1021,9 hPa 0,0 l/m 0,1 km/h (0 Bft) S-SW 207 2 min 0,000 mm 0,0 UV-I 118 W/m 0,7 C 4,6 C 1,6 km/h (1 Bft) 97,87 %
21.04.2019 07:06 4,7 C 13,9 C 2,2 C 76 % 1021,9 hPa 0,0 l/m 0,3 km/h (0 Bft) S-SW 207 2 min 0,000 mm 0,0 UV-I 122 W/m 0,8 C 4,7 C 1,6 km/h (1 Bft) 93,62 %
21.04.2019 07:08 4,8 C 13,9 C 1,7 C 76 % 1021,9 hPa 0,0 l/m 0,0 km/h (0 Bft) S-SW 207 2 min 0,000 mm 0,0 UV-I 129 W/m 0,9 C 4,8 C 0,0 km/h (0 Bft) 97,73 %
21.04.2019 07:10 4,9 C 13,9 C 2,2 C 76 % 1021,9 hPa 0,0 l/m 0,0 km/h (0 Bft) S-SW 207 2 min 0,000 mm 0,0 UV-I 133 W/m 1,0 C 4,9 C 0,0 km/h (0 Bft) 97,87 %
21.04.2019 07:12 5,1 C 13,9 C 2,2 C 75 % 1021,9 hPa 0,0 l/m 0,0 km/h (0 Bft) S-SW 207 2 min 0,000 mm 0,0 UV-I 139 W/m 1,0 C 5,1 C 0,0 km/h (0 Bft) 97,37 %
21.04.2019 07:14 5,3 C 13,9 C 2,2 C 75 % 1021,9 hPa 0,0 l/m 0,2 km/h (0 Bft) S-SW 207 2 min 0,000 mm 0,0 UV-I 144 W/m 1,2 C 5,3 C 1,6 km/h (1 Bft) 94,64 %
21.04.2019 07:16 5,4 C 13,9 C 2,2 C 76 % 1021,9 hPa 0,0 l/m 0,0 km/h (0 Bft) S-SW 207 2 min 0,000 mm 0,0 UV-I 150 W/m 1,5 C 5,4 C 0,0 km/h (0 Bft) 97,87 %
21.04.2019 07:18 5,6 C 13,9 C 2,2 C 77 % 1021,9 hPa 0,0 l/m 0,0 km/h (0 Bft) S-SW 207 2 min 0,000 mm 0,0 UV-I 155 W/m 1,9 C 5,6 C 0,0 km/h (0 Bft) 97,87 %
21.04.2019 07:20 5,8 C 13,9 C 2,8 C 76 % 1021,8 hPa 0,0 l/m 0,0 km/h (0 Bft) S-SW 207 2 min 0,000 mm 0,0 UV-I 160 W/m 1,9 C 5,8 C 0,0 km/h (0 Bft) 94,00 %
21.04.2019 07:22 5,9 C 13,9 C 2,8 C 75 % 1021,8 hPa 0,0 l/m 1,3 km/h (1 Bft) S-SW 207 2 min 0,000 mm 0,0 UV-I 165 W/m 1,8 C 5,9 C 3,2 km/h (1 Bft) 97,56 %
21.04.2019 07:24 6,2 C 13,9 C 2,8 C 76 % 1021,9 hPa 0,0 l/m 2,7 km/h (1 Bft) S-SW 207 2 min 0,000 mm 0,0 UV-I 171 W/m 2,3 C 6,2 C 3,2 km/h (1 Bft) 98,00 %
21.04.2019 07:26 6,3 C 13,9 C 2,8 C 75 % 1021,9 hPa 0,0 l/m 2,4 km/h (1 Bft) S-SW 207 2 min 0,000 mm 0,0 UV-I 177 W/m 2,2 C 6,3 C 3,2 km/h (1 Bft) 97,22 %
21.04.2019 07:28 6,2 C 13,9 C 3,3 C 74 % 1021,9 hPa 0,0 l/m 2,8 km/h (1 Bft) S-SW 207 2 min 0,000 mm 0,0 UV-I 183 W/m 1,9 C 6,2 C 3,2 km/h (1 Bft) 98,08 %
21.04.2019 07:30 6,3 C 13,9 C 3,9 C 74 % 1021,9 hPa 0,0 l/m 2,8 km/h (1 Bft) S-SW 207 2 min 0,000 mm 0,0 UV-I 188 W/m 2,0 C 6,3 C 4,8 km/h (1 Bft) 97,92 %
21.04.2019 07:32 6,5 C 13,9 C 3,9 C 72 % 1021,9 hPa 0,0 l/m 3,2 km/h (1 Bft) S-SW 207 2 min 0,000 mm 0,0 UV-I 194 W/m 1,8 C 6,5 C 4,8 km/h (1 Bft) 97,37 %
21.04.2019 07:34 6,6 C 13,9 C 4,4 C 72 % 1021,9 hPa 0,0 l/m 3,3 km/h (1 Bft) S-SW 206 2 min 0,000 mm 0,0 UV-I 199 W/m 1,9 C 6,6 C 4,8 km/h (1 Bft) 96,00 %
21.04.2019 07:36 6,8 C 13,9 C 4,4 C 72 % 1021,9 hPa 0,0 l/m 4,1 km/h (1 Bft) S-SW 208 2 min 0,000 mm 0,0 UV-I 205 W/m 2,1 C 6,8 C 6,4 km/h (2 Bft) 98,21 %
21.04.2019 07:38 7,1 C 13,9 C 4,4 C 71 % 1022,0 hPa 0,0 l/m 4,4 km/h (1 Bft) S-SW 208 2 min 0,000 mm 0,0 UV-I 210 W/m 2,2 C 7,1 C 4,8 km/h (1 Bft) 94,00 %
21.04.2019 07:40 7,1 C 13,9 C 5,0 C 71 % 1022,0 hPa 0,0 l/m 4,5 km/h (1 Bft) S-SW 208 2 min 0,000 mm 0,0 UV-I 217 W/m 2,2 C 7,1 C 4,8 km/h (1 Bft) 100,00 %
21.04.2019 07:42 7,2 C 13,9 C 5,0 C 69 % 1021,9 hPa 0,0 l/m 3,4 km/h (1 Bft) S-SW 208 2 min 0,000 mm 0,0 UV-I 222 W/m 1,9 C 7,2 C 4,8 km/h (1 Bft) 96,00 %
21.04.2019 07:44 7,2 C 13,9 C 5,6 C 68 % 1021,9 hPa 0,0 l/m 3,2 km/h (1 Bft) S-SW 208 2 min 0,000 mm 0,0 UV-I 228 W/m 1,7 C 7,2 C 4,8 km/h (1 Bft) 98,00 %
21.04.2019 07:46 7,3 C 13,9 C 5,6 C 67 % 1021,9 hPa 0,0 l/m 3,3 km/h (1 Bft) S-SW 208 2 min 0,000 mm 0,0 UV-I 234 W/m 1,6 C 7,3 C 4,8 km/h (1 Bft) 98,00 %
21.04.2019 07:48 7,3 C 13,9 C 6,1 C 67 % 1021,9 hPa 0,0 l/m 3,3 km/h (1 Bft) S-SW 208 2 min 0,000 mm 0,0 UV-I 241 W/m 1,6 C 7,3 C 4,8 km/h (1 Bft) 97,56 %
21.04.2019 07:50 7,4 C 13,9 C 6,1 C 68 % 1021,9 hPa 0,0 l/m 3,7 km/h (1 Bft) NO 51 2 min 0,000 mm 0,0 UV-I 246 W/m 1,9 C 7,4 C 6,4 km/h (2 Bft) 97,87 %
21.04.2019 07:52 7,4 C 13,9 C 6,1 C 66 % 1021,9 hPa 0,0 l/m 3,7 km/h (1 Bft) NO 52 2 min 0,000 mm 0,0 UV-I 252 W/m 1,5 C 7,4 C 4,8 km/h (1 Bft) 92,00 %
21.04.2019 07:54 7,4 C 13,9 C 6,1 C 65 % 1021,9 hPa 0,0 l/m 3,8 km/h (1 Bft) NO 52 2 min 0,000 mm 0,0 UV-I 257 W/m 1,3 C 7,4 C 4,8 km/h (1 Bft) 97,37 %
21.04.2019 07:56 7,4 C 13,9 C 6,1 C 65 % 1021,9 hPa 0,0 l/m 3,8 km/h (1 Bft) NO 52 2 min 0,000 mm 0,0 UV-I 264 W/m 1,3 C 7,4 C 4,8 km/h (1 Bft) 96,23 %
21.04.2019 07:58 7,4 C 13,9 C 6,1 C 65 % 1021,9 hPa 0,0 l/m 2,8 km/h (1 Bft) NO 52 2 min 0,000 mm 0,0 UV-I 269 W/m 1,3 C 7,4 C 4,8 km/h (1 Bft) 97,73 %
21.04.2019 08:00 7,4 C 13,9 C 6,7 C 65 % 1021,9 hPa 0,0 l/m 3,6 km/h (1 Bft) O-NO 59 2 min 0,076 mm 0,4 UV-I 275 W/m 1,3 C 7,4 C 6,4 km/h (2 Bft) 96,23 %
21.04.2019 08:02 7,6 C 13,9 C 6,7 C 66 % 1021,9 hPa 0,0 l/m 2,6 km/h (1 Bft) O-NO 59 2 min 0,000 mm 0,5 UV-I 281 W/m 1,7 C 7,6 C 4,8 km/h (1 Bft) 95,74 %
21.04.2019 08:04 7,6 C 13,9 C 6,7 C 66 % 1021,9 hPa 0,0 l/m 1,9 km/h (1 Bft) O-NO 59 2 min 0,000 mm 0,5 UV-I 287 W/m 1,7 C 7,6 C 3,2 km/h (1 Bft) 100,00 %
21.04.2019 08:06 7,8 C 13,9 C 6,7 C 66 % 1021,9 hPa 0,0 l/m 1,6 km/h (1 Bft) O-NO 59 2 min 0,000 mm 0,5 UV-I 293 W/m 1,9 C 7,8 C 3,2 km/h (1 Bft) 96,00 %
21.04.2019 08:08 8,1 C 13,9 C 6,7 C 67 % 1022,0 hPa 0,0 l/m 1,6 km/h (1 Bft) O-NO 59 2 min 0,000 mm 0,5 UV-I 299 W/m 2,3 C 8,1 C 3,2 km/h (1 Bft) 98,00 %
21.04.2019 08:10 8,3 C 13,9 C 6,7 C 66 % 1021,9 hPa 0,0 l/m 1,4 km/h (1 Bft) O-NO 59 2 min 0,000 mm 0,5 UV-I 305 W/m 2,3 C 8,3 C 1,6 km/h (1 Bft) 98,11 %
21.04.2019 08:12 8,5 C 13,9 C 6,7 C 65 % 1022,0 hPa 0,0 l/m 2,2 km/h (1 Bft) O-NO 59 2 min 0,000 mm 0,6 UV-I 311 W/m 2,3 C 8,5 C 3,2 km/h (1 Bft) 97,37 %
21.04.2019 08:14 8,6 C 13,9 C 6,7 C 64 % 1021,9 hPa 0,0 l/m 2,9 km/h (1 Bft) O-NO 60 2 min 0,000 mm 0,6 UV-I 317 W/m 2,2 C 8,6 C 6,4 km/h (2 Bft) 97,87 %
21.04.2019 08:16 8,8 C 13,9 C 7,2 C 63 % 1021,9 hPa 0,0 l/m 3,8 km/h (1 Bft) O-NO 60 2 min 0,000 mm 0,6 UV-I 323 W/m 2,2 C 8,8 C 6,4 km/h (2 Bft) 98,00 %
21.04.2019 08:18 8,9 C 13,9 C 7,2 C 63 % 1021,9 hPa 0,0 l/m 4,2 km/h (1 Bft) O-NO 76 2 min 0,000 mm 0,6 UV-I 329 W/m 2,2 C 8,9 C 6,4 km/h (2 Bft) 97,87 %
21.04.2019 08:20 9,1 C 13,9 C 7,8 C 63 % 1021,9 hPa 0,0 l/m 5,7 km/h (1 Bft) O-NO 57 2 min 0,000 mm 0,6 UV-I 336 W/m 2,4 C 9,1 C 8,0 km/h (2 Bft) 95,12 %
21.04.2019 08:22 9,1 C 13,9 C 7,8 C 61 % 1021,8 hPa 0,0 l/m 5,2 km/h (1 Bft) O-NO 77 2 min 0,000 mm 0,7 UV-I 341 W/m 2,0 C 9,1 C 8,0 km/h (2 Bft) 100,00 %
21.04.2019 08:24 9,1 C 13,9 C 7,8 C 62 % 1021,9 hPa 0,0 l/m 5,2 km/h (1 Bft) O 83 2 min 0,000 mm 0,7 UV-I 347 W/m 2,2 C 9,1 C 8,0 km/h (2 Bft) 100,00 %
21.04.2019 08:26 9,2 C 13,9 C 7,8 C 61 % 1021,8 hPa 0,0 l/m 5,6 km/h (1 Bft) O 101 2 min 0,000 mm 0,7 UV-I 353 W/m 2,1 C 9,2 C 8,0 km/h (2 Bft) 100,00 %
21.04.2019 08:28 9,4 C 13,9 C 8,3 C 62 % 1021,8 hPa 0,0 l/m 4,2 km/h (1 Bft) O 101 2 min 0,000 mm 0,7 UV-I 358 W/m 2,5 C 9,4 C 6,4 km/h (2 Bft) 100,00 %
21.04.2019 08:30 9,6 C 13,9 C 8,3 C 60 % 1021,8 hPa 0,0 l/m 4,3 km/h (1 Bft) O 85 2 min 0,000 mm 0,7 UV-I 364 W/m 2,2 C 9,6 C 8,0 km/h (2 Bft) 100,00 %
21.04.2019 08:32 9,7 C 13,9 C 8,3 C 59 % 1021,8 hPa 0,0 l/m 6,6 km/h (2 Bft) O-NO 64 2 min 0,000 mm 0,8 UV-I 370 W/m 2,1 C 9,6 C 8,0 km/h (2 Bft) 100,00 %
21.04.2019 08:34 9,7 C 13,9 C 8,9 C 59 % 1021,8 hPa 0,0 l/m 6,1 km/h (2 Bft) O-NO 74 2 min 0,000 mm 0,8 UV-I 376 W/m 2,1 C 9,7 C 11,3 km/h (2 Bft) 100,00 %
21.04.2019 08:36 9,8 C 13,9 C 8,9 C 61 % 1021,8 hPa 0,0 l/m 8,3 km/h (2 Bft) O-NO 76 2 min 0,000 mm 0,8 UV-I 382 W/m 2,6 C 8,4 C 12,9 km/h (3 Bft) 100,00 %
21.04.2019 08:38 9,9 C 13,9 C 8,9 C 58 % 1021,8 hPa 0,0 l/m 7,2 km/h (2 Bft) NO 53 2 min 0,000 mm 0,8 UV-I 387 W/m 2,0 C 9,3 C 12,9 km/h (3 Bft) 100,00 %
21.04.2019 08:40 9,9 C 13,9 C 8,9 C 59 % 1021,8 hPa 0,0 l/m 7,0 km/h (2 Bft) O-NO 63 2 min 0,000 mm 0,9 UV-I 393 W/m 2,3 C 9,5 C 9,7 km/h (2 Bft) 100,00 %
21.04.2019 08:42 10,1 C 13,9 C 9,4 C 59 % 1021,8 hPa 0,0 l/m 6,8 km/h (2 Bft) O-NO 67 2 min 0,000 mm 0,9 UV-I 398 W/m 2,5 C 9,8 C 9,7 km/h (2 Bft) 97,56 %
21.04.2019 08:44 10,2 C 13,9 C 9,4 C 58 % 1021,8 hPa 0,0 l/m 6,5 km/h (2 Bft) O-NO 66 2 min 0,000 mm 0,9 UV-I 404 W/m 2,3 C 10,2 C 12,9 km/h (3 Bft) 96,00 %
21.04.2019 08:46 10,2 C 13,9 C 9,4 C 58 % 1021,8 hPa 0,0 l/m 9,1 km/h (2 Bft) O-NO 65 2 min 0,000 mm 0,9 UV-I 410 W/m 2,3 C 8,4 C 12,9 km/h (3 Bft) 97,92 %
21.04.2019 08:48 10,3 C 13,9 C 10,0 C 58 % 1021,8 hPa 0,0 l/m 6,7 km/h (2 Bft) NO 49 2 min 0,000 mm 0,9 UV-I 416 W/m 2,4 C 10,1 C 12,9 km/h (3 Bft) 95,74 %
21.04.2019 08:50 10,5 C 13,9 C 10,0 C 58 % 1021,7 hPa 0,0 l/m 9,9 km/h (2 Bft) NO 49 2 min 0,000 mm 1,0 UV-I 422 W/m 2,6 C 8,2 C 14,5 km/h (3 Bft) 97,56 %
21.04.2019 08:52 10,6 C 13,9 C 10,0 C 56 % 1021,7 hPa 0,0 l/m 10,6 km/h (2 Bft) O-NO 63 2 min 0,000 mm 1,0 UV-I 427 W/m 2,2 C 7,9 C 14,5 km/h (3 Bft) 96,00 %
21.04.2019 08:54 10,6 C 13,9 C 10,6 C 56 % 1021,7 hPa 0,0 l/m 9,9 km/h (2 Bft) O-NO 71 2 min 0,000 mm 1,0 UV-I 434 W/m 2,2 C 8,3 C 14,5 km/h (3 Bft) 98,00 %
21.04.2019 08:56 10,7 C 13,9 C 11,1 C 57 % 1021,7 hPa 0,0 l/m 10,2 km/h (2 Bft) O-NO 69 2 min 0,000 mm 1,1 UV-I 439 W/m 2,5 C 8,3 C 12,9 km/h (3 Bft) 97,37 %
21.04.2019 08:58 10,7 C 13,9 C 11,7 C 55 % 1021,8 hPa 0,0 l/m 10,7 km/h (2 Bft) O-NO 63 2 min 0,000 mm 1,1 UV-I 445 W/m 2,0 C 8,0 C 14,5 km/h (3 Bft) 98,11 %
21.04.2019 09:00 10,9 C 13,9 C 12,2 C 58 % 1021,7 hPa 0,0 l/m 10,6 km/h (2 Bft) O 82 2 min 0,203 mm 1,1 UV-I 451 W/m 3,0 C 8,3 C 16,1 km/h (3 Bft) 98,00 %
21.04.2019 09:02 11,1 C 13,9 C 12,8 C 57 % 1021,7 hPa 0,0 l/m 9,5 km/h (2 Bft) O-NO 61 2 min 0,000 mm 1,1 UV-I 457 W/m 2,9 C 9,1 C 14,5 km/h (3 Bft) 95,74 %
21.04.2019 09:04 11,2 C 13,9 C 14,4 C 56 % 1021,8 hPa 0,0 l/m 11,8 km/h (2 Bft) O 86 2 min 0,000 mm 1,2 UV-I 462 W/m 2,8 C 8,0 C 14,5 km/h (3 Bft) 97,87 %
21.04.2019 09:06 11,2 C 13,9 C 14,4 C 54 % 1021,8 hPa 0,0 l/m 10,6 km/h (2 Bft) O-NO 68 2 min 0,000 mm 1,2 UV-I 467 W/m 2,2 C 8,6 C 14,5 km/h (3 Bft) 100,00 %
21.04.2019 09:08 11,2 C 13,9 C 15,6 C 57 % 1021,8 hPa 0,0 l/m 8,6 km/h (2 Bft) O-NO 74 2 min 0,000 mm 1,2 UV-I 472 W/m 3,0 C 9,7 C 12,9 km/h (3 Bft) 98,31 %
21.04.2019 09:10 11,3 C 13,9 C 17,2 C 56 % 1021,8 hPa 0,0 l/m 7,5 km/h (2 Bft) O-NO 74 2 min 0,000 mm 1,2 UV-I 478 W/m 2,8 C 10,5 C 12,9 km/h (3 Bft) 100,00 %
21.04.2019 09:12 11,4 C 13,9 C 18,3 C 55 % 1021,7 hPa 0,0 l/m 7,3 km/h (2 Bft) O 89 2 min 0,000 mm 1,3 UV-I 483 W/m 2,7 C 10,8 C 11,3 km/h (2 Bft) 98,00 %
21.04.2019 09:14 11,6 C 13,9 C 19,4 C 56 % 1021,8 hPa 0,0 l/m 8,9 km/h (2 Bft) O 86 2 min 0,000 mm 1,3 UV-I 488 W/m 3,1 C 10,0 C 14,5 km/h (3 Bft) 98,00 %
21.04.2019 09:16 11,7 C 13,9 C 20,6 C 53 % 1021,8 hPa 0,0 l/m 8,7 km/h (2 Bft) O 99 2 min 0,000 mm 1,3 UV-I 494 W/m 2,4 C 10,2 C 12,9 km/h (3 Bft) 100,00 %
21.04.2019 09:18 11,7 C 13,9 C 21,1 C 54 % 1021,7 hPa 0,0 l/m 8,9 km/h (2 Bft) O-NO 72 2 min 0,000 mm 1,3 UV-I 499 W/m 2,7 C 10,1 C 12,9 km/h (3 Bft) 100,00 %
21.04.2019 09:20 11,8 C 13,9 C 22,2 C 54 % 1021,7 hPa 0,0 l/m 7,6 km/h (2 Bft) O 85 2 min 0,000 mm 1,4 UV-I 505 W/m 2,8 C 11,0 C 12,9 km/h (3 Bft) 98,08 %
21.04.2019 09:22 11,8 C 13,9 C 22,8 C 53 % 1021,6 hPa 0,0 l/m 8,7 km/h (2 Bft) O-NO 71 2 min 0,000 mm 1,4 UV-I 511 W/m 2,5 C 10,3 C 12,9 km/h (3 Bft) 100,00 %
21.04.2019 09:24 11,9 C 13,9 C 23,3 C 54 % 1021,6 hPa 0,0 l/m 8,3 km/h (2 Bft) NO 53 2 min 0,000 mm 1,4 UV-I 516 W/m 2,9 C 10,7 C 14,5 km/h (3 Bft) 100,00 %
21.04.2019 09:26 12,1 C 13,9 C 23,3 C 54 % 1021,6 hPa 0,0 l/m 6,5 km/h (2 Bft) NO 35 2 min 0,000 mm 1,5 UV-I 521 W/m 3,1 C 12,1 C 14,5 km/h (3 Bft) 100,00 %
21.04.2019 09:28 12,2 C 13,9 C 23,9 C 53 % 1021,6 hPa 0,0 l/m 8,6 km/h (2 Bft) O 82 2 min 0,000 mm 1,5 UV-I 526 W/m 2,9 C 10,8 C 12,9 km/h (3 Bft) 100,00 %
21.04.2019 09:30 12,2 C 13,9 C 23,9 C 53 % 1021,6 hPa 0,0 l/m 9,8 km/h (2 Bft) NO 49 2 min 0,000 mm 1,5 UV-I 532 W/m 2,9 C 10,1 C 14,5 km/h (3 Bft) 95,74 %
21.04.2019 09:32 12,3 C 13,9 C 25,0 C 53 % 1021,6 hPa 0,0 l/m 10,5 km/h (2 Bft) O-NO 67 2 min 0,000 mm 1,5 UV-I 536 W/m 3,0 C 9,9 C 14,5 km/h (3 Bft) 97,56 %
21.04.2019 09:34 12,5 C 13,9 C 25,0 C 53 % 1021,6 hPa 0,0 l/m 9,2 km/h (2 Bft) O 83 2 min 0,000 mm 1,6 UV-I 541 W/m 3,2 C 10,8 C 14,5 km/h (3 Bft) 98,11 %
21.04.2019 09:36 12,6 C 13,9 C 24,4 C 52 % 1021,5 hPa 0,0 l/m 11,7 km/h (2 Bft) O 79 2 min 0,000 mm 1,6 UV-I 546 W/m 3,0 C 9,6 C 16,1 km/h (3 Bft) 98,11 %
21.04.2019 09:38 12,7 C 13,9 C 24,4 C 52 % 1021,6 hPa 0,0 l/m 10,5 km/h (2 Bft) O-NO 63 2 min 0,000 mm 1,6 UV-I 550 W/m 3,1 C 10,3 C 16,1 km/h (3 Bft) 95,45 %
21.04.2019 09:40 12,7 C 13,9 C 24,4 C 52 % 1021,6 hPa 0,0 l/m 12,2 km/h (2 Bft) O-NO 69 2 min 0,000 mm 1,7 UV-I 556 W/m 3,1 C 9,5 C 14,5 km/h (3 Bft) 97,37 %
21.04.2019 09:42 12,7 C 13,9 C 25,0 C 52 % 1021,5 hPa 0,0 l/m 11,0 km/h (2 Bft) O 101 2 min 0,000 mm 1,7 UV-I 562 W/m 3,1 C 10,1 C 14,5 km/h (3 Bft) 98,00 %
21.04.2019 09:44 12,8 C 13,9 C 25,0 C 52 % 1021,5 hPa 0,0 l/m 10,4 km/h (2 Bft) O-NO 72 2 min 0,000 mm 1,7 UV-I 566 W/m 3,2 C 10,5 C 16,1 km/h (3 Bft) 98,11 %
21.04.2019 09:46 12,9 C 13,9 C 25,6 C 52 % 1021,5 hPa 0,0 l/m 10,8 km/h (2 Bft) O-NO 71 2 min 0,000 mm 1,8 UV-I 572 W/m 3,3 C 10,4 C 14,5 km/h (3 Bft) 91,67 %
21.04.2019 09:48 13,1 C 13,9 C 25,6 C 53 % 1021,5 hPa 0,0 l/m 9,9 km/h (2 Bft) O-NO 71 2 min 0,000 mm 1,8 UV-I 577 W/m 3,7 C 11,1 C 14,5 km/h (3 Bft) 97,14 %
21.04.2019 09:50 13,3 C 13,9 C 25,6 C 53 % 1021,5 hPa 0,0 l/m 13,9 km/h (3 Bft) NO 47 2 min 0,000 mm 1,8 UV-I 582 W/m 3,9 C 9,5 C 19,3 km/h (3 Bft) 97,56 %
21.04.2019 09:52 13,6 C 13,9 C 25,6 C 51 % 1021,4 hPa 0,0 l/m 14,1 km/h (3 Bft) NO 45 2 min 0,000 mm 1,9 UV-I 586 W/m 3,7 C 9,8 C 20,9 km/h (4 Bft) 95,74 %
21.04.2019 09:54 13,7 C 13,9 C 25,0 C 51 % 1021,4 hPa 0,0 l/m 12,8 km/h (3 Bft) O-NO 71 2 min 0,000 mm 1,9 UV-I 592 W/m 3,8 C 10,4 C 19,3 km/h (3 Bft) 97,87 %
21.04.2019 09:56 13,8 C 13,9 C 25,0 C 49 % 1021,4 hPa 0,0 l/m 13,4 km/h (3 Bft) O-NO 74 2 min 0,000 mm 1,9 UV-I 595 W/m 3,3 C 10,3 C 24,1 km/h (4 Bft) 97,87 %
21.04.2019 09:59 13,8 C 13,9 C 24,4 C 47 % 1021,4 hPa 0,0 l/m 17,9 km/h (3 Bft) O-NO 68 3 min 0,000 mm 2,0 UV-I 602 W/m 2,7 C 8,8 C 22,5 km/h (4 Bft) 97,40 %
21.04.2019 10:00 13,8 C 13,9 C 23,9 C 46 % 1021,4 hPa 0,0 l/m 18,0 km/h (3 Bft) O-NO 74 1 min 0,000 mm 2,0 UV-I 607 W/m 2,4 C 8,8 C 20,9 km/h (4 Bft) 93,33 %
21.04.2019 10:02 13,8 C 13,9 C 23,9 C 47 % 1021,4 hPa 0,0 l/m 16,7 km/h (3 Bft) O 81 2 min 0,305 mm 2,0 UV-I 610 W/m 2,7 C 9,2 C 20,9 km/h (4 Bft) 96,00 %
21.04.2019 10:04 13,8 C 13,9 C 23,9 C 47 % 1021,4 hPa 0,0 l/m 14,8 km/h (3 Bft) O-NO 65 2 min 0,000 mm 2,0 UV-I 616 W/m 2,7 C 9,8 C 20,9 km/h (4 Bft) 95,12 %
21.04.2019 10:06 13,9 C 13,9 C 25,0 C 47 % 1021,3 hPa 0,0 l/m 13,1 km/h (3 Bft) O 90 2 min 0,000 mm 2,1 UV-I 621 W/m 2,8 C 10,6 C 17,7 km/h (3 Bft) 96,00 %
21.04.2019 10:08 14,1 C 13,9 C 25,0 C 48 % 1021,3 hPa 0,0 l/m 13,6 km/h (3 Bft) O-NO 72 2 min 0,000 mm 2,1 UV-I 624 W/m 3,3 C 10,6 C 19,3 km/h (3 Bft) 95,12 %
21.04.2019 10:10 14,2 C 13,9 C 25,0 C 47 % 1021,2 hPa 0,0 l/m 14,8 km/h (3 Bft) O-NO 67 2 min 0,000 mm 2,2 UV-I 628 W/m 3,1 C 10,3 C 19,3 km/h (3 Bft) 94,34 %
21.04.2019 10:12 14,2 C 13,9 C 25,6 C 46 % 1021,2 hPa 0,0 l/m 11,0 km/h (2 Bft) NO 55 2 min 0,000 mm 2,2 UV-I 633 W/m 2,8 C 11,8 C 14,5 km/h (3 Bft) 96,00 %
21.04.2019 10:14 14,4 C 14,4 C 25,6 C 49 % 1021,2 hPa 0,0 l/m 13,5 km/h (3 Bft) O 81 2 min 0,000 mm 2,2 UV-I 637 W/m 3,8 C 11,0 C 20,9 km/h (4 Bft) 94,74 %
21.04.2019 10:16 14,4 C 13,9 C 26,1 C 46 % 1021,2 hPa 0,0 l/m 13,3 km/h (3 Bft) O-NO 64 2 min 0,000 mm 2,2 UV-I 642 W/m 2,9 C 11,1 C 17,7 km/h (3 Bft) 94,55 %
21.04.2019 10:18 14,6 C 13,9 C 26,7 C 48 % 1021,1 hPa 0,0 l/m 15,6 km/h (3 Bft) O-NO 70 2 min 0,000 mm 2,3 UV-I 646 W/m 3,7 C 10,5 C 20,9 km/h (4 Bft) 95,45 %
21.04.2019 10:20 14,7 C 13,9 C 27,2 C 47 % 1021,1 hPa 0,0 l/m 13,5 km/h (3 Bft) O 99 2 min 0,000 mm 2,3 UV-I 649 W/m 3,5 C 11,4 C 20,9 km/h (4 Bft) 96,23 %
21.04.2019 10:22 14,9 C 14,4 C 27,2 C 45 % 1021,1 hPa 0,0 l/m 13,0 km/h (3 Bft) O 86 2 min 0,000 mm 2,3 UV-I 654 W/m 3,1 C 11,8 C 17,7 km/h (3 Bft) 92,68 %
21.04.2019 10:24 15,0 C 14,4 C 27,2 C 46 % 1021,1 hPa 0,0 l/m 11,7 km/h (2 Bft) O 96 2 min 0,000 mm 2,4 UV-I 658 W/m 3,5 C 12,4 C 20,9 km/h (4 Bft) 96,00 %
21.04.2019 10:26 15,1 C 13,9 C 27,2 C 45 % 1021,1 hPa 0,0 l/m 13,7 km/h (3 Bft) O-NO 71 2 min 0,000 mm 2,4 UV-I 661 W/m 3,3 C 11,8 C 20,9 km/h (4 Bft) 97,14 %
21.04.2019 10:28 15,2 C 14,4 C 27,2 C 45 % 1021,1 hPa 0,0 l/m 15,7 km/h (3 Bft) O-NO 57 2 min 0,000 mm 2,4 UV-I 665 W/m 3,4 C 11,2 C 17,7 km/h (3 Bft) 96,23 %
21.04.2019 10:30 15,3 C 14,4 C 27,2 C 43 % 1021,1 hPa 0,0 l/m 17,4 km/h (3 Bft) O-NO 67 2 min 0,000 mm 2,5 UV-I 670 W/m 2,8 C 10,8 C 24,1 km/h (4 Bft) 97,44 %
21.04.2019 10:32 15,4 C 14,4 C 27,2 C 45 % 1021,0 hPa 0,0 l/m 14,6 km/h (3 Bft) O-NO 68 2 min 0,000 mm 2,5 UV-I 675 W/m 3,5 C 11,8 C 19,3 km/h (3 Bft) 96,88 %
21.04.2019 10:34 15,5 C 14,4 C 27,2 C 43 % 1021,1 hPa 0,0 l/m 12,9 km/h (3 Bft) NO 51 2 min 0,000 mm 2,5 UV-I 678 W/m 3,0 C 12,5 C 20,9 km/h (4 Bft) 100,00 %
21.04.2019 10:36 15,5 C 14,4 C 27,2 C 42 % 1021,0 hPa 0,0 l/m 15,2 km/h (3 Bft) O 89 2 min 0,000 mm 2,6 UV-I 682 W/m 2,6 C 11,7 C 19,3 km/h (3 Bft) 96,36 %
21.04.2019 10:38 15,4 C 14,4 C 27,2 C 43 % 1021,0 hPa 0,0 l/m 15,4 km/h (3 Bft) O-NO 71 2 min 0,000 mm 2,6 UV-I 687 W/m 2,9 C 11,5 C 22,5 km/h (4 Bft) 96,00 %
21.04.2019 10:40 15,7 C 14,4 C 27,8 C 45 % 1021,0 hPa 0,0 l/m 12,8 km/h (3 Bft) O-NO 66 2 min 0,000 mm 2,7 UV-I 690 W/m 3,8 C 12,8 C 24,1 km/h (4 Bft) 97,44 %
21.04.2019 10:42 15,8 C 14,4 C 27,8 C 42 % 1021,0 hPa 0,0 l/m 17,6 km/h (3 Bft) O 88 2 min 0,000 mm 2,7 UV-I 694 W/m 2,9 C 11,4 C 25,7 km/h (4 Bft) 98,11 %
21.04.2019 10:44 15,8 C 14,4 C 27,8 C 44 % 1021,0 hPa 0,0 l/m 15,7 km/h (3 Bft) O 82 2 min 0,000 mm 2,7 UV-I 698 W/m 3,6 C 11,9 C 20,9 km/h (4 Bft) 97,37 %
21.04.2019 10:46 15,8 C 14,4 C 27,2 C 42 % 1021,0 hPa 0,0 l/m 15,9 km/h (3 Bft) O 83 2 min 0,000 mm 2,8 UV-I 701 W/m 2,9 C 11,9 C 19,3 km/h (3 Bft) 96,43 %
21.04.2019 10:48 15,9 C 14,4 C 27,2 C 44 % 1020,9 hPa 0,0 l/m 12,3 km/h (3 Bft) O-NO 69 2 min 0,000 mm 2,8 UV-I 706 W/m 3,7 C 13,2 C 17,7 km/h (3 Bft) 97,73 %
21.04.2019 10:50 15,9 C 14,4 C 27,8 C 43 % 1021,0 hPa 0,0 l/m 17,3 km/h (3 Bft) O 87 2 min 0,000 mm 2,8 UV-I 708 W/m 3,3 C 11,6 C 25,7 km/h (4 Bft) 98,00 %
21.04.2019 10:52 16,0 C 14,4 C 28,3 C 43 % 1020,9 hPa 0,0 l/m 18,1 km/h (3 Bft) O-SO 103 2 min 0,000 mm 2,9 UV-I 714 W/m 3,4 C 11,5 C 22,5 km/h (4 Bft) 97,37 %
21.04.2019 10:54 16,2 C 14,4 C 28,9 C 42 % 1020,9 hPa 0,0 l/m 16,6 km/h (3 Bft) O 91 2 min 0,000 mm 2,9 UV-I 718 W/m 3,3 C 12,2 C 24,1 km/h (4 Bft) 96,23 %
21.04.2019 10:56 16,2 C 14,4 C 28,9 C 43 % 1020,8 hPa 0,0 l/m 16,0 km/h (3 Bft) O-NO 62 2 min 0,000 mm 2,9 UV-I 718 W/m 3,6 C 12,3 C 24,1 km/h (4 Bft) 95,45 %
21.04.2019 10:58 16,5 C 14,4 C 28,9 C 44 % 1020,8 hPa 0,0 l/m 15,2 km/h (3 Bft) O-SO 109 2 min 0,000 mm 3,0 UV-I 720 W/m 4,2 C 12,9 C 20,9 km/h (4 Bft) 96,00 %
21.04.2019 11:00 16,4 C 14,4 C 28,3 C 41 % 1020,8 hPa 0,0 l/m 14,6 km/h (3 Bft) O-NO 73 2 min 0,457 mm 3,0 UV-I 724 W/m 3,1 C 13,0 C 19,3 km/h (3 Bft) 95,74 %
21.04.2019 11:02 16,4 C 14,4 C 28,9 C 41 % 1020,8 hPa 0,0 l/m 16,1 km/h (3 Bft) O-NO 75 2 min 0,000 mm 3,0 UV-I 728 W/m 3,1 C 12,6 C 20,9 km/h (4 Bft) 98,00 %
21.04.2019 11:04 16,4 C 14,4 C 28,9 C 42 % 1020,7 hPa 0,0 l/m 14,5 km/h (3 Bft) O 85 2 min 0,000 mm 3,1 UV-I 733 W/m 3,5 C 13,0 C 19,3 km/h (3 Bft) 100,00 %
21.04.2019 11:06 16,4 C 14,4 C 28,9 C 42 % 1020,7 hPa 0,0 l/m 14,9 km/h (3 Bft) O-NO 67 2 min 0,000 mm 3,1 UV-I 736 W/m 3,5 C 12,9 C 20,9 km/h (4 Bft) 96,00 %
21.04.2019 11:08 16,5 C 14,4 C 28,9 C 43 % 1020,6 hPa 0,0 l/m 15,5 km/h (3 Bft) NO 37 2 min 0,000 mm 3,1 UV-I 739 W/m 3,9 C 12,9 C 19,3 km/h (3 Bft) 95,12 %
21.04.2019 11:10 16,7 C 14,4 C 28,9 C 42 % 1020,6 hPa 0,0 l/m 15,2 km/h (3 Bft) O-NO 57 2 min 0,000 mm 3,2 UV-I 742 W/m 3,7 C 13,2 C 19,3 km/h (3 Bft) 96,23 %
21.04.2019 11:12 16,7 C 14,4 C 28,9 C 41 % 1020,6 hPa 0,0 l/m 13,9 km/h (3 Bft) O 79 2 min 0,000 mm 3,2 UV-I 745 W/m 3,4 C 13,6 C 19,3 km/h (3 Bft) 94,00 %
21.04.2019 11:14 16,8 C 14,4 C 29,4 C 43 % 1020,6 hPa 0,0 l/m 12,2 km/h (2 Bft) O 100 2 min 0,000 mm 3,2 UV-I 749 W/m 4,2 C 14,3 C 19,3 km/h (3 Bft) 95,24 %
21.04.2019 11:16 16,8 C 14,4 C 30,0 C 41 % 1020,6 hPa 0,0 l/m 12,5 km/h (3 Bft) O-SO 109 2 min 0,000 mm 3,3 UV-I 749 W/m 3,5 C 14,2 C 22,5 km/h (4 Bft) 94,00 %
21.04.2019 11:18 16,9 C 14,4 C 30,6 C 42 % 1020,6 hPa 0,0 l/m 12,6 km/h (3 Bft) O 96 2 min 0,000 mm 3,3 UV-I 752 W/m 3,9 C 14,3 C 16,1 km/h (3 Bft) 97,87 %
21.04.2019 11:20 17,1 C 14,4 C 30,0 C 43 % 1020,5 hPa 0,0 l/m 14,6 km/h (3 Bft) N-NO 13 2 min 0,000 mm 3,3 UV-I 754 W/m 4,4 C 13,9 C 19,3 km/h (3 Bft) 97,73 %
21.04.2019 11:22 17,3 C 14,4 C 28,9 C 43 % 1020,5 hPa 0,0 l/m 17,8 km/h (3 Bft) NO 42 2 min 0,000 mm 3,4 UV-I 758 W/m 4,6 C 13,2 C 20,9 km/h (4 Bft) 94,34 %
21.04.2019 11:24 17,4 C 14,4 C 28,3 C 43 % 1020,4 hPa 0,0 l/m 16,7 km/h (3 Bft) NO 49 2 min 0,000 mm 3,4 UV-I 761 W/m 4,7 C 13,6 C 22,5 km/h (4 Bft) 95,45 %
21.04.2019 11:26 17,7 C 14,4 C 28,9 C 39 % 1020,5 hPa 0,0 l/m 13,7 km/h (3 Bft) O-SO 103 2 min 0,000 mm 3,4 UV-I 765 W/m 3,6 C 14,8 C 17,7 km/h (3 Bft) 94,00 %
21.04.2019 11:28 17,8 C 14,4 C 30,0 C 39 % 1020,5 hPa 0,0 l/m 17,0 km/h (3 Bft) NO 42 2 min 0,000 mm 3,5 UV-I 766 W/m 3,7 C 14,1 C 20,9 km/h (4 Bft) 95,74 %
21.04.2019 11:30 17,9 C 14,4 C 30,6 C 41 % 1020,5 hPa 0,0 l/m 17,9 km/h (3 Bft) O 94 2 min 0,000 mm 3,5 UV-I 770 W/m 4,5 C 14,0 C 22,5 km/h (4 Bft) 94,74 %
21.04.2019 11:32 17,9 C 14,4 C 30,0 C 40 % 1020,5 hPa 0,0 l/m 14,7 km/h (3 Bft) O-NO 76 2 min 0,000 mm 3,5 UV-I 773 W/m 4,1 C 14,8 C 22,5 km/h (4 Bft) 94,00 %
21.04.2019 11:34 17,9 C 14,4 C 30,0 C 38 % 1020,5 hPa 0,0 l/m 20,8 km/h (4 Bft) O-NO 71 2 min 0,000 mm 3,5 UV-I 775 W/m 3,4 C 13,3 C 25,7 km/h (4 Bft) 96,00 %
21.04.2019 11:36 17,9 C 14,4 C 29,4 C 39 % 1020,4 hPa 0,0 l/m 22,1 km/h (4 Bft) NO 51 2 min 0,000 mm 3,5 UV-I 777 W/m 3,8 C 13,1 C 27,4 km/h (4 Bft) 92,11 %
21.04.2019 11:38 18,0 C 14,4 C 28,9 C 41 % 1020,4 hPa 0,0 l/m 18,9 km/h (3 Bft) O-NO 58 2 min 0,000 mm 3,6 UV-I 778 W/m 4,6 C 13,9 C 24,1 km/h (4 Bft) 98,11 %
21.04.2019 11:40 18,1 C 14,4 C 28,9 C 37 % 1020,4 hPa 0,0 l/m 15,6 km/h (3 Bft) O-NO 65 2 min 0,000 mm 3,6 UV-I 781 W/m 3,2 C 14,8 C 22,5 km/h (4 Bft) 94,00 %
21.04.2019 11:42 18,2 C 14,4 C 28,9 C 37 % 1020,4 hPa 0,0 l/m 17,4 km/h (3 Bft) O 94 2 min 0,000 mm 3,6 UV-I 783 W/m 3,3 C 14,5 C 22,5 km/h (4 Bft) 94,74 %
21.04.2019 11:44 18,2 C 14,4 C 30,0 C 37 % 1020,4 hPa 0,0 l/m 15,3 km/h (3 Bft) O 90 2 min 0,000 mm 3,6 UV-I 784 W/m 3,3 C 15,0 C 19,3 km/h (3 Bft) 97,87 %
21.04.2019 11:46 18,3 C 14,4 C 30,6 C 38 % 1020,3 hPa 0,0 l/m 15,2 km/h (3 Bft) O-NO 57 2 min 0,000 mm 3,7 UV-I 787 W/m 3,7 C 15,1 C 25,7 km/h (4 Bft) 96,43 %
21.04.2019 11:48 18,4 C 14,4 C 30,0 C 38 % 1020,4 hPa 0,0 l/m 20,0 km/h (4 Bft) O-NO 77 2 min 0,000 mm 3,7 UV-I 788 W/m 3,8 C 14,1 C 25,7 km/h (4 Bft) 100,00 %
21.04.2019 11:50 18,6 C 14,4 C 29,4 C 39 % 1020,3 hPa 0,0 l/m 19,6 km/h (3 Bft) NO 52 2 min 0,000 mm 3,7 UV-I 795 W/m 4,4 C 14,5 C 25,7 km/h (4 Bft) 100,00 %
21.04.2019 11:52 18,6 C 14,4 C 30,0 C 37 % 1020,3 hPa 0,0 l/m 18,7 km/h (3 Bft) O 101 2 min 0,000 mm 3,8 UV-I 796 W/m 3,6 C 14,7 C 27,4 km/h (4 Bft) 100,00 %
21.04.2019 11:54 18,6 C 14,4 C 29,4 C 34 % 1020,3 hPa 0,0 l/m 20,2 km/h (4 Bft) O 94 2 min 0,000 mm 3,8 UV-I 800 W/m 2,4 C 14,4 C 25,7 km/h (4 Bft) 100,00 %
21.04.2019 11:56 18,4 C 14,4 C 29,4 C 34 % 1020,2 hPa 0,0 l/m 21,0 km/h (4 Bft) O 89 2 min 0,000 mm 3,8 UV-I 802 W/m 2,3 C 13,9 C 29,0 km/h (5 Bft) 98,00 %
21.04.2019 11:58 18,4 C 14,4 C 29,4 C 35 % 1020,2 hPa 0,0 l/m 20,6 km/h (4 Bft) O 90 2 min 0,000 mm 3,8 UV-I 802 W/m 2,7 C 14,0 C 29,0 km/h (5 Bft) 100,00 %
21.04.2019 12:00 18,3 C 14,4 C 29,4 C 35 % 1020,2 hPa 0,0 l/m 18,8 km/h (3 Bft) O-NO 74 2 min 0,000 mm 3,9 UV-I 804 W/m 2,6 C 14,3 C 25,7 km/h (4 Bft) 100,00 %
21.04.2019 12:02 18,4 C 14,4 C 30,6 C 34 % 1020,1 hPa 0,0 l/m 20,1 km/h (4 Bft) O-NO 61 2 min 0,559 mm 3,9 UV-I 805 W/m 2,3 C 14,1 C 29,0 km/h (5 Bft) 100,00 %
21.04.2019 12:04 18,5 C 14,4 C 30,6 C 35 % 1020,2 hPa 0,0 l/m 18,7 km/h (3 Bft) O-NO 70 2 min 0,000 mm 3,9 UV-I 808 W/m 2,8 C 14,5 C 24,1 km/h (4 Bft) 97,87 %
21.04.2019 12:06 18,6 C 14,4 C 30,6 C 35 % 1020,0 hPa 0,0 l/m 16,6 km/h (3 Bft) O 86 2 min 0,000 mm 3,9 UV-I 808 W/m 2,8 C 15,2 C 24,1 km/h (4 Bft) 100,00 %
21.04.2019 12:08 18,6 C 14,4 C 30,6 C 34 % 1020,0 hPa 0,0 l/m 19,0 km/h (3 Bft) O-NO 74 2 min 0,000 mm 4,0 UV-I 810 W/m 2,4 C 14,6 C 25,7 km/h (4 Bft) 100,00 %
21.04.2019 12:10 18,6 C 14,4 C 30,6 C 35 % 1020,0 hPa 0,0 l/m 17,5 km/h (3 Bft) O-NO 66 2 min 0,000 mm 4,0 UV-I 810 W/m 2,8 C 14,9 C 22,5 km/h (4 Bft) 100,00 %
21.04.2019 12:12 18,7 C 14,4 C 31,1 C 38 % 1019,9 hPa 0,0 l/m 18,2 km/h (3 Bft) O-NO 77 2 min 0,000 mm 4,0 UV-I 812 W/m 4,1 C 14,9 C 27,4 km/h (4 Bft) 100,00 %
21.04.2019 12:14 18,8 C 14,4 C 30,6 C 33 % 1019,8 hPa 0,0 l/m 18,8 km/h (3 Bft) NO 38 2 min 0,000 mm 4,0 UV-I 814 W/m 2,2 C 14,9 C 24,1 km/h (4 Bft) 100,00 %
21.04.2019 12:16 18,8 C 14,4 C 30,6 C 36 % 1019,8 hPa 0,0 l/m 20,3 km/h (4 Bft) NO 46 2 min 0,000 mm 4,0 UV-I 815 W/m 3,4 C 14,6 C 29,0 km/h (5 Bft) 97,73 %
21.04.2019 12:18 18,9 C 14,4 C 29,4 C 37 % 1019,8 hPa 0,0 l/m 23,2 km/h (4 Bft) NO 40 2 min 0,000 mm 4,0 UV-I 816 W/m 3,9 C 14,2 C 32,2 km/h (5 Bft) 100,00 %
21.04.2019 12:20 19,1 C 14,4 C 29,4 C 37 % 1019,8 hPa 0,0 l/m 21,7 km/h (4 Bft) NO 55 2 min 0,000 mm 4,0 UV-I 816 W/m 4,1 C 14,7 C 25,7 km/h (4 Bft) 100,00 %
21.04.2019 12:22 19,1 C 14,4 C 28,9 C 37 % 1019,7 hPa 0,0 l/m 20,6 km/h (4 Bft) O-NO 69 2 min 0,000 mm 4,1 UV-I 816 W/m 4,1 C 14,9 C 27,4 km/h (4 Bft) 100,00 %
21.04.2019 12:24 19,2 C 14,4 C 30,0 C 35 % 1019,8 hPa 0,0 l/m 17,2 km/h (3 Bft) O-NO 66 2 min 0,000 mm 4,1 UV-I 817 W/m 3,4 C 15,8 C 22,5 km/h (4 Bft) 100,00 %
21.04.2019 12:26 19,2 C 14,4 C 31,1 C 34 % 1019,7 hPa 0,0 l/m 21,5 km/h (4 Bft) O-NO 59 2 min 0,000 mm 4,1 UV-I 820 W/m 3,0 C 14,9 C 29,0 km/h (5 Bft) 100,00 %
21.04.2019 12:28 19,3 C 14,4 C 30,0 C 38 % 1019,7 hPa 0,0 l/m 17,9 km/h (3 Bft) O-NO 57 2 min 0,000 mm 4,1 UV-I 822 W/m 4,6 C 15,7 C 25,7 km/h (4 Bft) 100,00 %
21.04.2019 12:30 19,5 C 14,4 C 30,6 C 38 % 1019,7 hPa 0,0 l/m 21,1 km/h (4 Bft) NO 49 2 min 0,000 mm 4,1 UV-I 822 W/m 4,8 C 15,4 C 29,0 km/h (5 Bft) 100,00 %
21.04.2019 12:32 19,6 C 14,4 C 30,0 C 37 % 1019,7 hPa 0,0 l/m 20,2 km/h (4 Bft) O-NO 65 2 min 0,000 mm 4,1 UV-I 823 W/m 4,5 C 15,7 C 30,6 km/h (5 Bft) 97,44 %
21.04.2019 12:34 19,6 C 14,4 C 30,6 C 35 % 1019,6 hPa 0,0 l/m 17,7 km/h (3 Bft) O-NO 58 2 min 0,000 mm 4,1 UV-I 821 W/m 3,7 C 16,1 C 24,1 km/h (4 Bft) 100,00 %
21.04.2019 12:36 19,6 C 14,4 C 31,1 C 34 % 1019,6 hPa 0,0 l/m 17,3 km/h (3 Bft) NO 34 2 min 0,000 mm 4,2 UV-I 823 W/m 3,3 C 16,2 C 24,1 km/h (4 Bft) 100,00 %
21.04.2019 12:38 19,7 C 14,4 C 31,1 C 36 % 1019,6 hPa 0,0 l/m 21,8 km/h (4 Bft) O-SO 109 2 min 0,000 mm 4,2 UV-I 824 W/m 4,2 C 15,5 C 30,6 km/h (5 Bft) 100,00 %
21.04.2019 12:40 19,6 C 14,4 C 31,1 C 31 % 1019,5 hPa 0,0 l/m 19,4 km/h (3 Bft) O 79 2 min 0,000 mm 4,2 UV-I 828 W/m 2,0 C 15,8 C 27,4 km/h (4 Bft) 100,00 %
21.04.2019 12:42 19,6 C 14,4 C 31,7 C 32 % 1019,5 hPa 0,0 l/m 17,0 km/h (3 Bft) O 94 2 min 0,000 mm 4,2 UV-I 828 W/m 2,5 C 16,3 C 27,4 km/h (4 Bft) 100,00 %
21.04.2019 12:44 19,6 C 14,4 C 32,2 C 33 % 1019,5 hPa 0,0 l/m 17,9 km/h (3 Bft) O 98 2 min 0,000 mm 4,3 UV-I 829 W/m 2,9 C 16,1 C 25,7 km/h (4 Bft) 100,00 %
21.04.2019 12:46 19,7 C 15,0 C 32,8 C 34 % 1019,4 hPa 0,0 l/m 17,0 km/h (3 Bft) O 96 2 min 0,000 mm 4,3 UV-I 829 W/m 3,4 C 16,4 C 22,5 km/h (4 Bft) 98,11 %
21.04.2019 12:48 19,8 C 15,0 C 32,8 C 32 % 1019,5 hPa 0,0 l/m 19,5 km/h (3 Bft) O-NO 71 2 min 0,000 mm 4,3 UV-I 830 W/m 2,6 C 16,0 C 27,4 km/h (4 Bft) 95,12 %
21.04.2019 12:50 19,8 C 15,0 C 31,7 C 30 % 1019,4 hPa 0,0 l/m 21,2 km/h (4 Bft) O-NO 65 2 min 0,000 mm 4,3 UV-I 830 W/m 1,7 C 15,7 C 27,4 km/h (4 Bft) 97,73 %
21.04.2019 12:52 19,7 C 15,0 C 31,7 C 31 % 1019,4 hPa 0,0 l/m 17,3 km/h (3 Bft) O-NO 76 2 min 0,000 mm 4,3 UV-I 829 W/m 2,1 C 16,4 C 24,1 km/h (4 Bft) 98,11 %
21.04.2019 12:54 19,7 C 15,0 C 31,7 C 30 % 1019,3 hPa 0,0 l/m 18,4 km/h (3 Bft) O-NO 63 2 min 0,000 mm 4,3 UV-I 831 W/m 1,6 C 16,1 C 29,0 km/h (5 Bft) 94,00 %
21.04.2019 12:56 19,8 C 15,0 C 32,2 C 32 % 1019,4 hPa 0,0 l/m 18,9 km/h (3 Bft) O-NO 68 2 min 0,000 mm 4,3 UV-I 817 W/m 2,6 C 16,2 C 29,0 km/h (5 Bft) 94,44 %
21.04.2019 12:58 19,9 C 15,0 C 32,2 C 32 % 1019,3 hPa 0,0 l/m 16,0 km/h (3 Bft) O-NO 58 2 min 0,000 mm 4,3 UV-I 830 W/m 2,7 C 16,9 C 20,9 km/h (4 Bft) 95,74 %
21.04.2019 13:00 20,0 C 15,0 C 31,7 C 30 % 1019,3 hPa 0,0 l/m 18,1 km/h (3 Bft) O 88 2 min 0,635 mm 4,3 UV-I 828 W/m 1,9 C 16,6 C 25,7 km/h (4 Bft) 94,55 %
21.04.2019 13:02 20,0 C 15,0 C 31,1 C 30 % 1019,2 hPa 0,0 l/m 22,3 km/h (4 Bft) O 81 2 min 0,000 mm 4,3 UV-I 828 W/m 1,9 C 15,8 C 30,6 km/h (5 Bft) 96,00 %
21.04.2019 13:04 19,9 C 15,0 C 31,1 C 30 % 1019,3 hPa 0,0 l/m 18,7 km/h (3 Bft) O-SO 109 2 min 0,000 mm 4,4 UV-I 829 W/m 1,8 C 16,3 C 25,7 km/h (4 Bft) 95,56 %
21.04.2019 13:06 19,9 C 15,0 C 31,1 C 30 % 1019,2 hPa 0,0 l/m 17,8 km/h (3 Bft) NO 55 2 min 0,000 mm 4,3 UV-I 825 W/m 1,8 C 16,5 C 25,7 km/h (4 Bft) 95,74 %
21.04.2019 13:08 20,1 C 15,0 C 31,7 C 34 % 1019,1 hPa 0,0 l/m 16,9 km/h (3 Bft) O-NO 75 2 min 0,000 mm 4,3 UV-I 824 W/m 3,7 C 16,9 C 27,4 km/h (4 Bft) 94,00 %
21.04.2019 13:10 20,1 C 15,0 C 32,8 C 32 % 1019,0 hPa 0,0 l/m 11,9 km/h (2 Bft) O 80 2 min 0,000 mm 4,3 UV-I 825 W/m 2,9 C 18,2 C 17,7 km/h (3 Bft) 95,12 %
21.04.2019 13:12 20,2 C 15,0 C 32,8 C 31 % 1019,1 hPa 0,0 l/m 14,2 km/h (3 Bft) NO 55 2 min 0,000 mm 4,3 UV-I 826 W/m 2,5 C 17,7 C 22,5 km/h (4 Bft) 95,45 %
21.04.2019 13:14 20,3 C 15,0 C 32,8 C 32 % 1019,1 hPa 0,0 l/m 16,3 km/h (3 Bft) O-NO 63 2 min 0,000 mm 4,3 UV-I 824 W/m 3,1 C 17,3 C 27,4 km/h (4 Bft) 96,23 %
21.04.2019 13:16 20,3 C 15,0 C 32,2 C 29 % 1019,0 hPa 0,0 l/m 17,3 km/h (3 Bft) O 86 2 min 0,000 mm 4,3 UV-I 823 W/m 1,7 C 17,1 C 20,9 km/h (4 Bft) 97,56 %
21.04.2019 13:18 20,2 C 15,0 C 32,2 C 30 % 1019,1 hPa 0,0 l/m 22,1 km/h (4 Bft) O 90 2 min 0,000 mm 4,4 UV-I 826 W/m 2,1 C 16,1 C 27,4 km/h (4 Bft) 96,23 %
21.04.2019 13:20 20,4 C 15,0 C 32,8 C 31 % 1019,0 hPa 0,0 l/m 15,4 km/h (3 Bft) O-NO 69 2 min 0,000 mm 4,3 UV-I 823 W/m 2,7 C 17,6 C 20,9 km/h (4 Bft) 97,73 %
21.04.2019 13:22 20,4 C 15,0 C 32,8 C 31 % 1018,9 hPa 0,0 l/m 12,5 km/h (3 Bft) O-NO 61 2 min 0,000 mm 4,3 UV-I 822 W/m 2,7 C 18,4 C 16,1 km/h (3 Bft) 96,00 %
21.04.2019 13:24 20,6 C 15,0 C 32,8 C 33 % 1018,9 hPa 0,0 l/m 15,3 km/h (3 Bft) O-NO 76 2 min 0,000 mm 4,3 UV-I 823 W/m 3,8 C 17,9 C 24,1 km/h (4 Bft) 100,00 %
21.04.2019 13:26 20,6 C 15,0 C 32,2 C 29 % 1018,9 hPa 0,0 l/m 20,9 km/h (4 Bft) NO 56 2 min 0,000 mm 4,4 UV-I 825 W/m 1,9 C 16,8 C 25,7 km/h (4 Bft) 100,00 %
21.04.2019 13:28 20,6 C 15,0 C 32,2 C 30 % 1018,8 hPa 0,0 l/m 17,5 km/h (3 Bft) O 80 2 min 0,000 mm 4,3 UV-I 823 W/m 2,4 C 17,4 C 24,1 km/h (4 Bft) 95,74 %
21.04.2019 13:30 20,7 C 15,0 C 32,8 C 31 % 1018,8 hPa 0,0 l/m 17,5 km/h (3 Bft) O-NO 70 2 min 0,000 mm 4,3 UV-I 820 W/m 3,0 C 17,6 C 25,7 km/h (4 Bft) 100,00 %
21.04.2019 13:32 20,6 C 15,0 C 32,8 C 31 % 1018,8 hPa 0,0 l/m 18,2 km/h (3 Bft) O 94 2 min 0,000 mm 4,3 UV-I 822 W/m 2,9 C 17,3 C 24,1 km/h (4 Bft) 100,00 %
21.04.2019 13:34 20,6 C 15,0 C 32,8 C 29 % 1018,9 hPa 0,0 l/m 19,3 km/h (3 Bft) O-NO 67 2 min 0,000 mm 4,3 UV-I 820 W/m 1,9 C 17,1 C 25,7 km/h (4 Bft) 97,73 %
21.04.2019 13:36 20,6 C 15,0 C 31,7 C 27 % 1018,9 hPa 0,0 l/m 20,5 km/h (4 Bft) O-NO 70 2 min 0,000 mm 4,3 UV-I 818 W/m 0,9 C 16,9 C 29,0 km/h (5 Bft) 100,00 %
21.04.2019 13:38 20,5 C 15,0 C 32,2 C 28 % 1018,7 hPa 0,0 l/m 21,2 km/h (4 Bft) O-NO 70 2 min 0,000 mm 4,3 UV-I 818 W/m 1,4 C 16,6 C 29,0 km/h (5 Bft) 100,00 %
21.04.2019 13:40 20,4 C 15,0 C 32,2 C 27 % 1018,8 hPa 0,0 l/m 18,4 km/h (3 Bft) NO 53 2 min 0,000 mm 4,3 UV-I 818 W/m 0,8 C 17,0 C 25,7 km/h (4 Bft) 100,00 %
21.04.2019 13:42 20,6 C 15,0 C 33,3 C 31 % 1018,7 hPa 0,0 l/m 13,1 km/h (3 Bft) O-NO 62 2 min 0,000 mm 4,3 UV-I 812 W/m 2,9 C 18,4 C 20,9 km/h (4 Bft) 98,11 %
21.04.2019 13:44 20,7 C 15,0 C 31,7 C 31 % 1018,7 hPa 0,0 l/m 20,7 km/h (4 Bft) NO 36 2 min 0,000 mm 4,2 UV-I 810 W/m 3,0 C 17,0 C 30,6 km/h (5 Bft) 100,00 %
21.04.2019 13:46 20,7 C 15,0 C 32,2 C 29 % 1018,5 hPa 0,0 l/m 16,1 km/h (3 Bft) N-NO 19 2 min 0,000 mm 4,2 UV-I 809 W/m 2,0 C 17,9 C 27,4 km/h (4 Bft) 100,00 %
21.04.2019 13:48 20,8 C 15,0 C 31,1 C 29 % 1018,6 hPa 0,0 l/m 22,2 km/h (4 Bft) NO 42 2 min 0,000 mm 4,2 UV-I 809 W/m 2,1 C 16,9 C 32,2 km/h (5 Bft) 100,00 %
21.04.2019 13:50 20,9 C 15,0 C 31,7 C 30 % 1018,6 hPa 0,0 l/m 18,6 km/h (3 Bft) O-NO 63 2 min 0,000 mm 4,2 UV-I 810 W/m 2,7 C 17,6 C 25,7 km/h (4 Bft) 98,11 %
21.04.2019 13:52 21,1 C 15,0 C 31,1 C 30 % 1018,6 hPa 0,0 l/m 21,7 km/h (4 Bft) NO 42 2 min 0,000 mm 4,2 UV-I 810 W/m 2,8 C 17,4 C 30,6 km/h (5 Bft) 100,00 %
21.04.2019 13:54 20,9 C 15,0 C 30,6 C 30 % 1018,6 hPa 0,0 l/m 17,4 km/h (3 Bft) O 92 2 min 0,000 mm 4,2 UV-I 805 W/m 2,7 C 17,8 C 24,1 km/h (4 Bft) 97,87 %
21.04.2019 13:56 20,9 C 15,0 C 31,7 C 29 % 1018,6 hPa 0,0 l/m 14,7 km/h (3 Bft) O-NO 59 2 min 0,000 mm 4,2 UV-I 802 W/m 2,2 C 18,4 C 20,9 km/h (4 Bft) 100,00 %
21.04.2019 13:58 20,8 C 15,0 C 31,1 C 29 % 1018,5 hPa 0,0 l/m 18,1 km/h (3 Bft) O-NO 74 2 min 0,000 mm 4,1 UV-I 800 W/m 2,1 C 17,6 C 27,4 km/h (4 Bft) 100,00 %
21.04.2019 14:00 20,9 C 15,0 C 31,1 C 31 % 1018,5 hPa 0,0 l/m 18,6 km/h (3 Bft) O-NO 60 2 min 0,660 mm 4,1 UV-I 800 W/m 3,1 C 17,6 C 27,4 km/h (4 Bft) 96,00 %
21.04.2019 14:02 21,0 C 15,0 C 31,1 C 28 % 1018,4 hPa 0,0 l/m 16,0 km/h (3 Bft) O-NO 71 2 min 0,000 mm 4,1 UV-I 795 W/m 1,8 C 18,2 C 25,7 km/h (4 Bft) 100,00 %
21.04.2019 14:04 21,0 C 15,0 C 31,7 C 26 % 1018,5 hPa 0,0 l/m 16,3 km/h (3 Bft) O 97 2 min 0,000 mm 4,1 UV-I 795 W/m 0,8 C 18,2 C 27,4 km/h (4 Bft) 100,00 %
21.04.2019 14:06 20,9 C 15,0 C 32,8 C 29 % 1018,5 hPa 0,0 l/m 12,3 km/h (3 Bft) NO 46 2 min 0,000 mm 4,1 UV-I 799 W/m 2,2 C 19,0 C 22,5 km/h (4 Bft) 98,44 %
21.04.2019 14:08 21,1 C 15,0 C 33,3 C 30 % 1018,4 hPa 0,0 l/m 12,9 km/h (3 Bft) O-NO 71 2 min 0,000 mm 4,1 UV-I 798 W/m 2,8 C 19,1 C 17,7 km/h (3 Bft) 100,00 %
21.04.2019 14:10 21,1 C 15,0 C 33,3 C 26 % 1018,5 hPa 0,0 l/m 16,5 km/h (3 Bft) O-NO 67 2 min 0,000 mm 4,0 UV-I 792 W/m 0,9 C 18,3 C 22,5 km/h (4 Bft) 100,00 %
21.04.2019 14:12 21,1 C 15,0 C 33,9 C 27 % 1018,4 hPa 0,0 l/m 14,4 km/h (3 Bft) NO 56 2 min 0,000 mm 4,0 UV-I 790 W/m 1,4 C 18,7 C 20,9 km/h (4 Bft) 100,00 %
21.04.2019 14:14 21,1 C 15,0 C 33,9 C 28 % 1018,5 hPa 0,0 l/m 13,0 km/h (3 Bft) NO 49 2 min 0,000 mm 4,0 UV-I 789 W/m 1,9 C 19,0 C 20,9 km/h (4 Bft) 100,00 %
21.04.2019 14:16 21,3 C 15,0 C 32,8 C 28 % 1018,4 hPa 0,0 l/m 13,2 km/h (3 Bft) NO 53 2 min 0,000 mm 4,0 UV-I 786 W/m 2,1 C 19,2 C 20,9 km/h (4 Bft) 100,00 %
21.04.2019 14:18 21,3 C 15,0 C 32,8 C 28 % 1018,4 hPa 0,0 l/m 18,1 km/h (3 Bft) NO 51 2 min 0,000 mm 4,0 UV-I 783 W/m 2,1 C 18,2 C 24,1 km/h (4 Bft) 96,15 %
21.04.2019 14:20 21,3 C 15,0 C 32,8 C 28 % 1018,3 hPa 0,0 l/m 12,9 km/h (3 Bft) O 84 2 min 0,000 mm 4,0 UV-I 782 W/m 2,1 C 19,3 C 14,5 km/h (3 Bft) 97,44 %
21.04.2019 14:24 21,3 C 15,6 C 32,8 C 26 % 1018,3 hPa 0,0 l/m 18,8 km/h (3 Bft) O-NO 76 4 min 0,000 mm 3,9 UV-I 774 W/m 1,0 C 18,1 C 22,5 km/h (4 Bft) 96,40 %
21.04.2019 14:26 21,3 C 15,6 C 32,2 C 27 % 1018,4 hPa 0,0 l/m 16,3 km/h (3 Bft) NO 53 2 min 0,000 mm 3,9 UV-I 772 W/m 1,5 C 18,6 C 24,1 km/h (4 Bft) 97,56 %
21.04.2019 14:29 21,2 C 15,6 C 31,7 C 26 % 1018,3 hPa 0,0 l/m 16,8 km/h (3 Bft) O-NO 64 3 min 0,000 mm 3,8 UV-I 770 W/m 0,9 C 18,3 C 22,5 km/h (4 Bft) 97,56 %
21.04.2019 14:30 21,1 C 15,6 C 32,2 C 26 % 1018,3 hPa 0,0 l/m 18,7 km/h (3 Bft) O-NO 63 1 min 0,000 mm 3,8 UV-I 772 W/m 0,9 C 17,9 C 22,5 km/h (4 Bft) 100,00 %
21.04.2019 14:32 21,1 C 15,6 C 31,7 C 26 % 1018,2 hPa 0,0 l/m 17,4 km/h (3 Bft) O-NO 57 2 min 0,000 mm 3,8 UV-I 770 W/m 0,9 C 18,1 C 25,7 km/h (4 Bft) 97,73 %
21.04.2019 14:34 21,1 C 15,6 C 31,1 C 28 % 1018,2 hPa 0,0 l/m 16,2 km/h (3 Bft) NO 42 2 min 0,000 mm 3,8 UV-I 764 W/m 1,9 C 18,3 C 20,9 km/h (4 Bft) 94,00 %
21.04.2019 14:36 21,0 C 15,6 C 30,6 C 29 % 1018,2 hPa 0,0 l/m 13,5 km/h (3 Bft) O-NO 69 2 min 0,000 mm 3,7 UV-I 760 W/m 2,3 C 18,8 C 20,9 km/h (4 Bft) 94,00 %
21.04.2019 14:38 21,2 C 15,6 C 31,1 C 27 % 1018,2 hPa 0,0 l/m 15,4 km/h (3 Bft) O 86 2 min 0,000 mm 3,7 UV-I 758 W/m 1,5 C 18,6 C 22,5 km/h (4 Bft) 95,74 %
21.04.2019 14:40 21,3 C 15,6 C 32,2 C 26 % 1018,1 hPa 0,0 l/m 13,9 km/h (3 Bft) O 82 2 min 0,000 mm 3,7 UV-I 754 W/m 1,0 C 19,1 C 20,9 km/h (4 Bft) 96,00 %
21.04.2019 14:42 21,3 C 15,6 C 32,8 C 28 % 1018,1 hPa 0,0 l/m 12,6 km/h (3 Bft) O-SO 103 2 min 0,000 mm 3,7 UV-I 751 W/m 2,1 C 19,4 C 20,9 km/h (4 Bft) 100,00 %
21.04.2019 14:44 21,5 C 15,6 C 33,3 C 26 % 1018,1 hPa 0,0 l/m 11,0 km/h (2 Bft) O 101 2 min 0,000 mm 3,6 UV-I 747 W/m 1,2 C 20,0 C 22,5 km/h (4 Bft) 92,45 %
21.04.2019 14:46 21,6 C 15,6 C 33,3 C 29 % 1018,0 hPa 0,0 l/m 15,7 km/h (3 Bft) O 100 2 min 0,000 mm 3,6 UV-I 746 W/m 2,8 C 19,0 C 25,7 km/h (4 Bft) 98,11 %
21.04.2019 14:48 21,6 C 15,6 C 32,8 C 25 % 1018,1 hPa 0,0 l/m 19,6 km/h (3 Bft) O-NO 65 2 min 0,000 mm 3,6 UV-I 742 W/m 0,7 C 18,3 C 24,1 km/h (4 Bft) 97,37 %
21.04.2019 14:50 21,5 C 15,6 C 32,2 C 29 % 1017,9 hPa 0,0 l/m 13,9 km/h (3 Bft) O-NO 78 2 min 0,000 mm 3,6 UV-I 739 W/m 2,7 C 19,3 C 22,5 km/h (4 Bft) 96,43 %
21.04.2019 14:52 21,4 C 15,6 C 32,2 C 26 % 1018,0 hPa 0,0 l/m 18,9 km/h (3 Bft) O-NO 76 2 min 0,000 mm 3,5 UV-I 736 W/m 1,1 C 18,2 C 22,5 km/h (4 Bft) 97,56 %
21.04.2019 14:54 21,3 C 15,6 C 32,8 C 28 % 1017,9 hPa 0,0 l/m 16,5 km/h (3 Bft) O-NO 74 2 min 0,000 mm 3,5 UV-I 731 W/m 2,1 C 18,5 C 22,5 km/h (4 Bft) 97,87 %
21.04.2019 14:56 21,4 C 15,6 C 32,2 C 28 % 1017,8 hPa 0,0 l/m 19,3 km/h (3 Bft) O-NO 65 2 min 0,000 mm 3,4 UV-I 729 W/m 2,1 C 18,1 C 27,4 km/h (4 Bft) 97,78 %
21.04.2019 14:58 21,5 C 15,6 C 31,1 C 30 % 1017,8 hPa 0,0 l/m 19,9 km/h (4 Bft) NO 42 2 min 0,000 mm 3,4 UV-I 728 W/m 3,2 C 18,2 C 24,1 km/h (4 Bft) 95,45 %
21.04.2019 15:00 21,5 C 15,6 C 30,6 C 28 % 1017,9 hPa 0,0 l/m 19,4 km/h (3 Bft) O-NO 67 2 min 0,610 mm 3,4 UV-I 725 W/m 2,2 C 18,2 C 25,7 km/h (4 Bft) 96,00 %
21.04.2019 15:02 21,5 C 15,6 C 30,6 C 28 % 1017,8 hPa 0,0 l/m 17,4 km/h (3 Bft) NO 36 2 min 0,000 mm 3,4 UV-I 723 W/m 2,2 C 18,6 C 25,7 km/h (4 Bft) 96,00 %
21.04.2019 15:04 21,6 C 15,6 C 31,1 C 29 % 1017,7 hPa 0,0 l/m 16,7 km/h (3 Bft) O-NO 64 2 min 0,000 mm 3,3 UV-I 720 W/m 2,8 C 18,9 C 25,7 km/h (4 Bft) 97,37 %
21.04.2019 15:06 21,6 C 15,6 C 32,2 C 28 % 1017,7 hPa 0,0 l/m 15,9 km/h (3 Bft) O-NO 63 2 min 0,000 mm 3,3 UV-I 713 W/m 2,3 C 19,0 C 20,9 km/h (4 Bft) 98,21 %
21.04.2019 15:08 21,7 C 15,6 C 32,2 C 26 % 1017,7 hPa 0,0 l/m 18,7 km/h (3 Bft) O 94 2 min 0,000 mm 3,3 UV-I 708 W/m 1,4 C 18,6 C 30,6 km/h (5 Bft) 97,56 %
21.04.2019 15:10 21,6 C 15,6 C 32,2 C 26 % 1017,7 hPa 0,0 l/m 16,0 km/h (3 Bft) O-NO 77 2 min 0,000 mm 3,2 UV-I 705 W/m 1,3 C 19,0 C 25,7 km/h (4 Bft) 95,74 %
21.04.2019 15:12 21,6 C 15,6 C 32,2 C 26 % 1017,7 hPa 0,0 l/m 17,2 km/h (3 Bft) NO 44 2 min 0,000 mm 3,2 UV-I 700 W/m 1,3 C 18,8 C 37,0 km/h (5 Bft) 98,11 %
21.04.2019 15:14 21,6 C 15,6 C 32,2 C 26 % 1017,7 hPa 0,0 l/m 16,5 km/h (3 Bft) O-NO 67 2 min 0,000 mm 3,1 UV-I 695 W/m 1,3 C 18,9 C 20,9 km/h (4 Bft) 97,56 %
21.04.2019 15:16 21,6 C 15,6 C 32,2 C 26 % 1017,7 hPa 0,0 l/m 13,6 km/h (3 Bft) O-NO 71 2 min 0,000 mm 3,1 UV-I 694 W/m 1,3 C 19,5 C 17,7 km/h (3 Bft) 98,00 %
21.04.2019 15:18 21,5 C 15,6 C 32,8 C 26 % 1017,7 hPa 0,0 l/m 12,3 km/h (3 Bft) NO 55 2 min 0,000 mm 3,1 UV-I 691 W/m 1,2 C 19,7 C 16,1 km/h (3 Bft) 100,00 %
21.04.2019 15:20 21,4 C 15,6 C 32,2 C 27 % 1017,6 hPa 0,0 l/m 10,1 km/h (2 Bft) N-NO 33 2 min 0,000 mm 3,1 UV-I 685 W/m 1,6 C 20,2 C 16,1 km/h (3 Bft) 98,00 %
21.04.2019 15:22 21,6 C 15,6 C 32,8 C 32 % 1017,5 hPa 0,0 l/m 10,3 km/h (2 Bft) O-NO 65 2 min 0,000 mm 3,0 UV-I 679 W/m 4,2 C 20,3 C 16,1 km/h (3 Bft) 100,00 %
21.04.2019 15:24 21,8 C 15,6 C 32,8 C 27 % 1017,5 hPa 0,0 l/m 13,4 km/h (3 Bft) O-NO 69 2 min 0,000 mm 3,0 UV-I 675 W/m 2,0 C 19,8 C 22,5 km/h (4 Bft) 97,56 %
21.04.2019 15:26 21,8 C 15,6 C 32,8 C 25 % 1017,5 hPa 0,0 l/m 12,6 km/h (3 Bft) O-NO 67 2 min 0,000 mm 3,0 UV-I 673 W/m 0,9 C 20,0 C 19,3 km/h (3 Bft) 100,00 %
21.04.2019 15:28 21,8 C 15,6 C 33,3 C 28 % 1017,4 hPa 0,0 l/m 12,8 km/h (3 Bft) O 88 2 min 0,000 mm 2,9 UV-I 670 W/m 2,5 C 19,9 C 22,5 km/h (4 Bft) 100,00 %
21.04.2019 15:30 21,8 C 15,6 C 32,8 C 24 % 1017,4 hPa 0,0 l/m 14,3 km/h (3 Bft) O-NO 66 2 min 0,000 mm 2,9 UV-I 665 W/m 0,3 C 19,6 C 20,9 km/h (4 Bft) 100,00 %
21.04.2019 15:32 21,8 C 15,6 C 33,3 C 25 % 1017,3 hPa 0,0 l/m 14,3 km/h (3 Bft) O-NO 69 2 min 0,000 mm 2,8 UV-I 659 W/m 0,9 C 19,6 C 20,9 km/h (4 Bft) 100,00 %
21.04.2019 15:34 21,8 C 15,6 C 33,3 C 24 % 1017,3 hPa 0,0 l/m 15,4 km/h (3 Bft) NO 41 2 min 0,000 mm 2,8 UV-I 655 W/m 0,3 C 19,3 C 24,1 km/h (4 Bft) 97,78 %
21.04.2019 15:36 21,9 C 15,6 C 32,8 C 26 % 1017,3 hPa 0,0 l/m 15,5 km/h (3 Bft) O-NO 75 2 min 0,000 mm 2,8 UV-I 654 W/m 1,5 C 19,5 C 20,9 km/h (4 Bft) 97,87 %
21.04.2019 15:39 21,8 C 15,6 C 32,8 C 24 % 1017,3 hPa 0,0 l/m 17,1 km/h (3 Bft) O 90 3 min 0,000 mm 2,7 UV-I 648 W/m 0,3 C 19,0 C 24,1 km/h (4 Bft) 98,63 %
21.04.2019 15:40 21,8 C 15,6 C 32,8 C 25 % 1017,3 hPa 0,0 l/m 20,2 km/h (4 Bft) O 97 1 min 0,000 mm 2,7 UV-I 644 W/m 0,9 C 18,5 C 24,1 km/h (4 Bft) 100,00 %
21.04.2019 15:42 21,7 C 15,6 C 32,2 C 24 % 1017,2 hPa 0,0 l/m 15,8 km/h (3 Bft) O 98 2 min 0,000 mm 2,7 UV-I 641 W/m 0,3 C 19,1 C 22,5 km/h (4 Bft) 100,00 %
21.04.2019 15:44 21,7 C 15,6 C 32,2 C 27 % 1017,3 hPa 0,0 l/m 14,3 km/h (3 Bft) O 81 2 min 0,000 mm 2,6 UV-I 637 W/m 1,9 C 19,5 C 20,9 km/h (4 Bft) 97,37 %
21.04.2019 15:46 21,7 C 15,6 C 31,7 C 28 % 1017,1 hPa 0,0 l/m 16,3 km/h (3 Bft) NO 45 2 min 0,000 mm 2,6 UV-I 632 W/m 2,4 C 19,1 C 22,5 km/h (4 Bft) 97,87 %
21.04.2019 15:48 21,8 C 15,6 C 31,7 C 25 % 1017,1 hPa 0,0 l/m 15,7 km/h (3 Bft) O-NO 67 2 min 0,000 mm 2,5 UV-I 629 W/m 0,9 C 19,3 C 22,5 km/h (4 Bft) 94,00 %
21.04.2019 15:50 21,8 C 15,6 C 31,7 C 28 % 1017,1 hPa 0,0 l/m 14,9 km/h (3 Bft) NO 38 2 min 0,000 mm 2,5 UV-I 624 W/m 2,5 C 19,5 C 22,5 km/h (4 Bft) 95,74 %
21.04.2019 15:52 21,7 C 15,6 C 31,7 C 25 % 1017,1 hPa 0,0 l/m 12,3 km/h (3 Bft) O 82 2 min 0,000 mm 2,5 UV-I 619 W/m 0,8 C 19,9 C 17,7 km/h (3 Bft) 96,00 %
21.04.2019 15:54 21,8 C 15,6 C 32,2 C 25 % 1017,1 hPa 0,0 l/m 12,2 km/h (2 Bft) NO 36 2 min 0,000 mm 2,4 UV-I 614 W/m 0,9 C 20,1 C 16,1 km/h (3 Bft) 93,62 %
21.04.2019 15:56 21,8 C 15,6 C 31,7 C 26 % 1017,0 hPa 0,0 l/m 12,5 km/h (3 Bft) O-NO 71 2 min 0,000 mm 2,4 UV-I 608 W/m 1,4 C 20,0 C 16,1 km/h (3 Bft) 97,37 %
21.04.2019 15:58 21,8 C 15,6 C 32,8 C 26 % 1017,0 hPa 0,0 l/m 11,5 km/h (2 Bft) NO 34 2 min 0,000 mm 2,4 UV-I 605 W/m 1,4 C 20,2 C 16,1 km/h (3 Bft) 93,62 %
21.04.2019 16:00 21,8 C 15,6 C 32,2 C 28 % 1017,0 hPa 0,0 l/m 10,5 km/h (2 Bft) NO 46 2 min 0,559 mm 2,3 UV-I 599 W/m 2,5 C 20,5 C 16,1 km/h (3 Bft) 93,18 %
21.04.2019 16:02 21,9 C 15,6 C 32,2 C 25 % 1017,0 hPa 0,0 l/m 11,2 km/h (2 Bft) NO 34 2 min 0,000 mm 2,3 UV-I 594 W/m 1,0 C 20,4 C 17,7 km/h (3 Bft) 94,34 %
21.04.2019 16:04 21,8 C 15,6 C 31,1 C 27 % 1017,0 hPa 0,0 l/m 13,5 km/h (3 Bft) O 89 2 min 0,000 mm 2,2 UV-I 591 W/m 2,0 C 19,8 C 19,3 km/h (3 Bft) 96,23 %
21.04.2019 16:06 21,9 C 15,6 C 31,7 C 25 % 1017,0 hPa 0,0 l/m 15,6 km/h (3 Bft) O-NO 61 2 min 0,000 mm 2,2 UV-I 585 W/m 1,0 C 19,4 C 20,9 km/h (4 Bft) 95,74 %
21.04.2019 16:08 21,7 C 15,6 C 30,6 C 26 % 1016,9 hPa 0,0 l/m 17,7 km/h (3 Bft) NO 43 2 min 0,000 mm 2,2 UV-I 582 W/m 1,4 C 18,8 C 24,1 km/h (4 Bft) 91,49 %
21.04.2019 16:10 21,8 C 15,6 C 30,6 C 23 % 1017,0 hPa 0,0 l/m 16,4 km/h (3 Bft) O-NO 65 2 min 0,000 mm 2,2 UV-I 578 W/m -0,2 C 19,2 C 25,7 km/h (4 Bft) 95,12 %
21.04.2019 16:12 21,8 C 15,6 C 31,1 C 24 % 1016,9 hPa 0,0 l/m 16,5 km/h (3 Bft) O 80 2 min 0,000 mm 2,1 UV-I 573 W/m 0,3 C 19,1 C 24,1 km/h (4 Bft) 96,23 %
21.04.2019 16:14 21,8 C 15,6 C 31,7 C 24 % 1016,9 hPa 0,0 l/m 14,8 km/h (3 Bft) O-NO 58 2 min 0,000 mm 2,1 UV-I 566 W/m 0,3 C 19,5 C 19,3 km/h (3 Bft) 97,44 %
21.04.2019 16:16 21,8 C 15,6 C 32,2 C 25 % 1016,9 hPa 0,0 l/m 11,4 km/h (2 Bft) O-NO 60 2 min 0,000 mm 2,0 UV-I 563 W/m 0,9 C 20,3 C 16,1 km/h (3 Bft) 98,11 %
21.04.2019 16:18 21,9 C 15,6 C 32,2 C 22 % 1016,9 hPa 0,0 l/m 15,4 km/h (3 Bft) NO 44 2 min 0,000 mm 2,0 UV-I 558 W/m -0,8 C 19,5 C 24,1 km/h (4 Bft) 95,12 %
21.04.2019 16:20 21,8 C 15,6 C 31,7 C 24 % 1016,8 hPa 0,0 l/m 17,8 km/h (3 Bft) O 82 2 min 0,000 mm 2,0 UV-I 554 W/m 0,3 C 18,9 C 22,5 km/h (4 Bft) 96,00 %
21.04.2019 16:22 21,8 C 15,6 C 31,7 C 26 % 1016,8 hPa 0,0 l/m 13,6 km/h (3 Bft) O-NO 78 2 min 0,000 mm 1,9 UV-I 548 W/m 1,4 C 19,7 C 19,3 km/h (3 Bft) 98,00 %
21.04.2019 16:24 21,7 C 15,6 C 31,7 C 23 % 1016,8 hPa 0,0 l/m 15,1 km/h (3 Bft) O-NO 67 2 min 0,000 mm 1,9 UV-I 542 W/m -0,3 C 19,3 C 20,9 km/h (4 Bft) 95,45 %
21.04.2019 16:26 21,7 C 15,6 C 31,7 C 22 % 1016,7 hPa 0,0 l/m 13,8 km/h (3 Bft) O-NO 71 2 min 0,000 mm 1,9 UV-I 536 W/m -0,9 C 19,6 C 17,7 km/h (3 Bft) 95,12 %
21.04.2019 16:28 21,7 C 15,6 C 31,1 C 23 % 1016,7 hPa 0,0 l/m 15,2 km/h (3 Bft) O-NO 76 2 min 0,000 mm 1,8 UV-I 530 W/m -0,3 C 19,3 C 20,9 km/h (4 Bft) 98,00 %
21.04.2019 16:30 21,7 C 15,6 C 31,1 C 22 % 1016,7 hPa 0,0 l/m 13,7 km/h (3 Bft) O 88 2 min 0,000 mm 1,8 UV-I 523 W/m -0,9 C 19,6 C 17,7 km/h (3 Bft) 97,56 %
21.04.2019 16:32 21,7 C 15,6 C 31,1 C 21 % 1016,7 hPa 0,0 l/m 14,1 km/h (3 Bft) O 84 2 min 0,000 mm 1,7 UV-I 517 W/m -1,6 C 19,5 C 19,3 km/h (3 Bft) 98,21 %
21.04.2019 16:34 21,7 C 15,6 C 31,1 C 22 % 1016,7 hPa 0,0 l/m 15,8 km/h (3 Bft) O-NO 76 2 min 0,000 mm 1,7 UV-I 513 W/m -0,9 C 19,1 C 22,5 km/h (4 Bft) 98,00 %
21.04.2019 16:36 21,8 C 15,6 C 30,6 C 22 % 1016,6 hPa 0,0 l/m 16,2 km/h (3 Bft) O 82 2 min 0,000 mm 1,7 UV-I 507 W/m -0,9 C 19,2 C 22,5 km/h (4 Bft) 90,24 %
21.04.2019 16:38 21,8 C 15,6 C 30,0 C 22 % 1016,7 hPa 0,0 l/m 16,8 km/h (3 Bft) O 88 2 min 0,000 mm 1,7 UV-I 503 W/m -0,9 C 19,1 C 22,5 km/h (4 Bft) 96,00 %
21.04.2019 16:40 21,7 C 15,6 C 30,6 C 21 % 1016,7 hPa 0,0 l/m 15,3 km/h (3 Bft) O 97 2 min 0,000 mm 1,6 UV-I 498 W/m -1,6 C 19,2 C 19,3 km/h (3 Bft) 93,62 %
21.04.2019 16:42 21,6 C 15,6 C 31,1 C 21 % 1016,6 hPa 0,0 l/m 15,0 km/h (3 Bft) O 87 2 min 0,000 mm 1,6 UV-I 492 W/m -1,7 C 19,2 C 20,9 km/h (4 Bft) 92,11 %
21.04.2019 16:44 21,7 C 15,6 C 31,1 C 21 % 1016,6 hPa 0,0 l/m 16,1 km/h (3 Bft) O 89 2 min 0,000 mm 1,6 UV-I 488 W/m -1,6 C 19,1 C 20,9 km/h (4 Bft) 94,34 %
21.04.2019 16:46 21,6 C 15,6 C 30,6 C 21 % 1016,6 hPa 0,0 l/m 19,5 km/h (3 Bft) O 80 2 min 0,000 mm 1,5 UV-I 482 W/m -1,7 C 18,4 C 24,1 km/h (4 Bft) 92,68 %
21.04.2019 16:48 21,6 C 16,1 C 30,6 C 22 % 1016,5 hPa 0,0 l/m 15,7 km/h (3 Bft) O-NO 77 2 min 0,000 mm 1,5 UV-I 477 W/m -1,0 C 19,0 C 20,9 km/h (4 Bft) 96,30 %
21.04.2019 16:50 21,5 C 16,1 C 30,6 C 21 % 1016,5 hPa 0,0 l/m 15,0 km/h (3 Bft) O-NO 67 2 min 0,000 mm 1,5 UV-I 472 W/m -1,7 C 19,1 C 20,9 km/h (4 Bft) 95,74 %
21.04.2019 16:52 21,5 C 16,1 C 30,6 C 22 % 1016,5 hPa 0,0 l/m 16,3 km/h (3 Bft) O-NO 78 2 min 0,000 mm 1,4 UV-I 466 W/m -1,1 C 18,8 C 20,9 km/h (4 Bft) 95,74 %
21.04.2019 16:54 21,5 C 16,1 C 31,1 C 22 % 1016,4 hPa 0,0 l/m 11,4 km/h (2 Bft) NO 54 2 min 0,000 mm 1,4 UV-I 461 W/m -1,1 C 19,9 C 17,7 km/h (3 Bft) 96,00 %
21.04.2019 16:56 21,6 C 16,1 C 31,1 C 24 % 1016,5 hPa 0,0 l/m 10,7 km/h (2 Bft) O-NO 77 2 min 0,000 mm 1,4 UV-I 456 W/m 0,2 C 20,2 C 17,7 km/h (3 Bft) 95,56 %
21.04.2019 16:58 21,6 C 16,1 C 31,1 C 22 % 1016,5 hPa 0,0 l/m 15,8 km/h (3 Bft) O-NO 69 2 min 0,000 mm 1,3 UV-I 452 W/m -1,0 C 19,0 C 20,9 km/h (4 Bft) 94,74 %
21.04.2019 17:00 21,6 C 16,1 C 30,6 C 20 % 1016,4 hPa 0,0 l/m 15,1 km/h (3 Bft) O-NO 70 2 min 0,482 mm 1,3 UV-I 447 W/m -2,3 C 19,2 C 17,7 km/h (3 Bft) 94,55 %
21.04.2019 17:02 21,6 C 16,1 C 30,6 C 21 % 1016,4 hPa 0,0 l/m 13,9 km/h (3 Bft) O 89 2 min 0,000 mm 1,3 UV-I 442 W/m -1,7 C 19,4 C 19,3 km/h (3 Bft) 94,00 %
21.04.2019 17:04 21,6 C 16,1 C 31,1 C 22 % 1016,4 hPa 0,0 l/m 12,2 km/h (2 Bft) O-NO 61 2 min 0,000 mm 1,3 UV-I 436 W/m -1,0 C 19,8 C 17,7 km/h (3 Bft) 95,74 %
21.04.2019 17:06 21,6 C 16,1 C 30,6 C 24 % 1016,3 hPa 0,0 l/m 11,8 km/h (2 Bft) NO 44 2 min 0,000 mm 1,2 UV-I 430 W/m 0,2 C 19,9 C 17,7 km/h (3 Bft) 95,74 %
21.04.2019 17:08 21,6 C 16,1 C 30,6 C 23 % 1016,4 hPa 0,0 l/m 12,9 km/h (3 Bft) O-NO 76 2 min 0,000 mm 1,2 UV-I 425 W/m -0,4 C 19,7 C 22,5 km/h (4 Bft) 94,74 %
21.04.2019 17:10 21,7 C 16,1 C 30,6 C 23 % 1016,3 hPa 0,0 l/m 12,6 km/h (3 Bft) O-NO 61 2 min 0,000 mm 1,2 UV-I 419 W/m -0,3 C 19,8 C 16,1 km/h (3 Bft) 98,21 %
21.04.2019 17:12 21,7 C 16,1 C 30,6 C 23 % 1016,3 hPa 0,0 l/m 11,5 km/h (2 Bft) NO 51 2 min 0,000 mm 1,2 UV-I 413 W/m -0,3 C 20,1 C 17,7 km/h (3 Bft) 95,12 %
21.04.2019 17:14 21,7 C 16,1 C 30,6 C 23 % 1016,3 hPa 0,0 l/m 15,2 km/h (3 Bft) O-NO 68 2 min 0,000 mm 1,1 UV-I 408 W/m -0,3 C 19,3 C 20,9 km/h (4 Bft) 96,23 %
21.04.2019 17:16 21,8 C 16,1 C 30,6 C 23 % 1016,4 hPa 0,0 l/m 11,3 km/h (2 Bft) NO 38 2 min 0,000 mm 1,1 UV-I 402 W/m -0,2 C 20,3 C 16,1 km/h (3 Bft) 100,00 %
21.04.2019 17:18 21,7 C 16,1 C 30,0 C 22 % 1016,3 hPa 0,0 l/m 17,0 km/h (3 Bft) O-NO 61 2 min 0,000 mm 1,1 UV-I 395 W/m -0,9 C 18,9 C 22,5 km/h (4 Bft) 100,00 %
21.04.2019 17:20 21,6 C 16,1 C 28,9 C 22 % 1016,4 hPa 0,0 l/m 16,8 km/h (3 Bft) O 80 2 min 0,000 mm 1,0 UV-I 389 W/m -1,0 C 18,8 C 22,5 km/h (4 Bft) 95,74 %
21.04.2019 17:22 21,4 C 16,1 C 29,4 C 21 % 1016,3 hPa 0,0 l/m 12,9 km/h (3 Bft) NO 44 2 min 0,000 mm 1,0 UV-I 383 W/m -1,8 C 19,4 C 20,9 km/h (4 Bft) 98,00 %
21.04.2019 17:24 21,3 C 16,1 C 28,3 C 23 % 1016,2 hPa 0,0 l/m 13,9 km/h (3 Bft) NO 56 2 min 0,000 mm 1,0 UV-I 378 W/m -0,7 C 19,1 C 20,9 km/h (4 Bft) 97,73 %
21.04.2019 17:26 21,2 C 16,1 C 27,8 C 23 % 1016,2 hPa 0,0 l/m 13,5 km/h (3 Bft) NO 38 2 min 0,000 mm 1,0 UV-I 373 W/m -0,7 C 19,0 C 20,9 km/h (4 Bft) 98,11 %
21.04.2019 17:29 21,4 C 16,1 C 28,9 C 25 % 1016,2 hPa 0,0 l/m 12,2 km/h (2 Bft) O-NO 65 3 min 0,000 mm 0,9 UV-I 367 W/m 0,6 C 19,6 C 17,7 km/h (3 Bft) 98,59 %
21.04.2019 17:30 21,4 C 16,1 C 28,9 C 22 % 1016,2 hPa 0,0 l/m 9,5 km/h (2 Bft) O-NO 62 1 min 0,000 mm 0,9 UV-I 360 W/m -1,2 C 20,3 C 16,1 km/h (3 Bft) 91,67 %
21.04.2019 17:32 21,4 C 16,1 C 28,9 C 22 % 1016,2 hPa 0,0 l/m 15,7 km/h (3 Bft) O-NO 72 2 min 0,000 mm 0,9 UV-I 355 W/m -1,2 C 18,8 C 20,9 km/h (4 Bft) 98,21 %
21.04.2019 17:34 21,4 C 16,1 C 28,9 C 25 % 1016,2 hPa 0,0 l/m 11,0 km/h (2 Bft) NO 36 2 min 0,000 mm 0,9 UV-I 350 W/m 0,6 C 19,9 C 16,1 km/h (3 Bft) 97,37 %
21.04.2019 17:36 21,6 C 16,1 C 29,4 C 24 % 1016,2 hPa 0,0 l/m 13,6 km/h (3 Bft) O-NO 78 2 min 0,000 mm 0,8 UV-I 344 W/m 0,2 C 19,5 C 20,9 km/h (4 Bft) 98,11 %
21.04.2019 17:38 21,5 C 16,1 C 28,3 C 24 % 1016,2 hPa 0,0 l/m 15,2 km/h (3 Bft) O 93 2 min 0,000 mm 0,8 UV-I 340 W/m 0,1 C 19,0 C 22,5 km/h (4 Bft) 97,73 %
21.04.2019 17:40 21,4 C 16,1 C 27,8 C 25 % 1016,1 hPa 0,0 l/m 11,9 km/h (2 Bft) O-SO 113 2 min 0,000 mm 0,8 UV-I 332 W/m 0,6 C 19,7 C 17,7 km/h (3 Bft) 98,21 %
21.04.2019 17:42 21,3 C 16,1 C 27,8 C 24 % 1016,2 hPa 0,0 l/m 17,6 km/h (3 Bft) O 96 2 min 0,000 mm 0,8 UV-I 326 W/m -0,1 C 18,3 C 22,5 km/h (4 Bft) 97,56 %
21.04.2019 17:44 21,3 C 16,1 C 27,2 C 25 % 1016,1 hPa 0,0 l/m 14,5 km/h (3 Bft) O-NO 78 2 min 0,000 mm 0,7 UV-I 321 W/m 0,5 C 18,9 C 24,1 km/h (4 Bft) 97,73 %
21.04.2019 17:46 21,3 C 16,1 C 26,7 C 24 % 1016,1 hPa 0,0 l/m 10,6 km/h (2 Bft) O 86 2 min 0,000 mm 0,7 UV-I 315 W/m -0,1 C 19,9 C 17,7 km/h (3 Bft) 97,87 %
21.04.2019 17:48 21,3 C 16,1 C 25,6 C 24 % 1016,1 hPa 0,0 l/m 14,6 km/h (3 Bft) O-SO 113 2 min 0,000 mm 0,7 UV-I 309 W/m -0,1 C 18,9 C 19,3 km/h (3 Bft) 100,00 %
21.04.2019 17:50 21,3 C 16,1 C 26,1 C 24 % 1016,1 hPa 0,0 l/m 16,3 km/h (3 Bft) O-SO 106 2 min 0,000 mm 0,7 UV-I 304 W/m -0,1 C 18,6 C 20,9 km/h (4 Bft) 100,00 %
21.04.2019 17:52 21,2 C 16,1 C 26,1 C 24 % 1016,0 hPa 0,0 l/m 14,2 km/h (3 Bft) O-NO 76 2 min 0,000 mm 0,7 UV-I 297 W/m -0,2 C 18,9 C 19,3 km/h (3 Bft) 100,00 %
21.04.2019 17:54 21,2 C 16,1 C 26,1 C 24 % 1015,9 hPa 0,0 l/m 15,5 km/h (3 Bft) O 97 2 min 0,000 mm 0,6 UV-I 292 W/m -0,2 C 18,6 C 20,9 km/h (4 Bft) 100,00 %
21.04.2019 17:56 21,2 C 16,1 C 26,1 C 24 % 1015,9 hPa 0,0 l/m 15,0 km/h (3 Bft) O-SO 102 2 min 0,000 mm 0,6 UV-I 286 W/m -0,2 C 18,7 C 22,5 km/h (4 Bft) 100,00 %
21.04.2019 17:58 21,2 C 16,1 C 25,6 C 24 % 1015,9 hPa 0,0 l/m 17,2 km/h (3 Bft) O 92 2 min 0,000 mm 0,6 UV-I 280 W/m -0,2 C 18,3 C 22,5 km/h (4 Bft) 100,00 %
21.04.2019 18:00 21,2 C 16,1 C 25,0 C 26 % 1015,9 hPa 0,0 l/m 13,2 km/h (3 Bft) O-NO 67 2 min 0,000 mm 0,6 UV-I 274 W/m 0,9 C 19,1 C 17,7 km/h (3 Bft) 100,00 %
21.04.2019 18:02 21,2 C 16,1 C 24,4 C 25 % 1015,9 hPa 0,0 l/m 14,3 km/h (3 Bft) O-NO 65 2 min 0,381 mm 0,5 UV-I 268 W/m 0,4 C 18,9 C 19,3 km/h (3 Bft) 97,87 %
21.04.2019 18:04 21,1 C 16,1 C 23,3 C 24 % 1015,8 hPa 0,0 l/m 14,4 km/h (3 Bft) O-NO 70 2 min 0,000 mm 0,5 UV-I 263 W/m -0,3 C 18,7 C 17,7 km/h (3 Bft) 100,00 %
21.04.2019 18:06 21,1 C 16,1 C 22,2 C 25 % 1015,8 hPa 0,0 l/m 11,4 km/h (2 Bft) O-NO 58 2 min 0,000 mm 0,5 UV-I 257 W/m 0,3 C 19,5 C 19,3 km/h (3 Bft) 100,00 %
21.04.2019 18:09 21,1 C 16,1 C 21,1 C 25 % 1015,8 hPa 0,0 l/m 14,0 km/h (3 Bft) O 101 3 min 0,000 mm 0,5 UV-I 249 W/m 0,3 C 18,8 C 20,9 km/h (4 Bft) 100,00 %
21.04.2019 18:10 21,1 C 16,1 C 21,1 C 26 % 1015,8 hPa 0,0 l/m 14,2 km/h (3 Bft) O-SO 106 1 min 0,000 mm 0,5 UV-I 243 W/m 0,9 C 18,8 C 17,7 km/h (3 Bft) 100,00 %
21.04.2019 18:12 21,0 C 16,1 C 21,1 C 26 % 1015,7 hPa 0,0 l/m 10,7 km/h (2 Bft) O 90 2 min 0,000 mm 0,4 UV-I 238 W/m 0,8 C 19,5 C 14,5 km/h (3 Bft) 100,00 %
21.04.2019 18:14 21,0 C 16,1 C 20,6 C 26 % 1015,7 hPa 0,0 l/m 11,6 km/h (2 Bft) O 91 2 min 0,000 mm 0,0 UV-I 233 W/m 0,8 C 19,3 C 16,1 km/h (3 Bft) 100,00 %
21.04.2019 18:16 20,9 C 16,1 C 20,0 C 26 % 1015,7 hPa 0,0 l/m 11,9 km/h (2 Bft) O-NO 64 2 min 0,000 mm 0,0 UV-I 228 W/m 0,7 C 19,1 C 16,1 km/h (3 Bft) 97,87 %
21.04.2019 18:18 20,9 C 16,1 C 20,0 C 26 % 1015,6 hPa 0,0 l/m 11,5 km/h (2 Bft) O-NO 59 2 min 0,000 mm 0,0 UV-I 222 W/m 0,7 C 19,2 C 16,1 km/h (3 Bft) 100,00 %
21.04.2019 18:20 20,8 C 16,1 C 20,0 C 26 % 1015,7 hPa 0,0 l/m 13,1 km/h (3 Bft) O-NO 69 2 min 0,000 mm 0,0 UV-I 217 W/m 0,6 C 18,7 C 17,7 km/h (3 Bft) 100,00 %
21.04.2019 18:22 20,8 C 16,1 C 19,4 C 25 % 1015,6 hPa 0,0 l/m 9,9 km/h (2 Bft) O 96 2 min 0,000 mm 0,0 UV-I 213 W/m 0,1 C 19,6 C 17,7 km/h (3 Bft) 97,87 %
21.04.2019 18:24 20,8 C 16,1 C 19,4 C 26 % 1015,6 hPa 0,0 l/m 11,7 km/h (2 Bft) O-NO 70 2 min 0,000 mm 0,0 UV-I 207 W/m 0,6 C 19,0 C 17,7 km/h (3 Bft) 100,00 %
21.04.2019 18:26 20,8 C 16,1 C 19,4 C 28 % 1015,6 hPa 0,0 l/m 10,3 km/h (2 Bft) O 91 2 min 0,000 mm 0,0 UV-I 202 W/m 1,6 C 19,4 C 14,5 km/h (3 Bft) 100,00 %
21.04.2019 18:28 20,7 C 16,1 C 18,9 C 26 % 1015,6 hPa 0,0 l/m 11,6 km/h (2 Bft) O 83 2 min 0,000 mm 0,0 UV-I 196 W/m 0,5 C 18,9 C 16,1 km/h (3 Bft) 97,87 %
21.04.2019 18:30 20,7 C 16,1 C 18,9 C 27 % 1015,6 hPa 0,0 l/m 10,5 km/h (2 Bft) O 97 2 min 0,000 mm 0,0 UV-I 190 W/m 1,0 C 19,3 C 16,1 km/h (3 Bft) 97,87 %
21.04.2019 18:32 20,6 C 16,1 C 18,9 C 26 % 1015,6 hPa 0,0 l/m 12,5 km/h (3 Bft) O 98 2 min 0,000 mm 0,0 UV-I 184 W/m 0,4 C 18,6 C 17,7 km/h (3 Bft) 96,00 %
21.04.2019 18:34 20,6 C 16,1 C 18,9 C 25 % 1015,5 hPa 0,0 l/m 11,5 km/h (2 Bft) O 100 2 min 0,000 mm 0,0 UV-I 179 W/m -0,1 C 18,9 C 16,1 km/h (3 Bft) 97,56 %
21.04.2019 18:36 20,6 C 16,1 C 18,9 C 25 % 1015,5 hPa 0,0 l/m 13,2 km/h (3 Bft) O 90 2 min 0,000 mm 0,0 UV-I 174 W/m -0,1 C 18,4 C 17,7 km/h (3 Bft) 97,87 %
21.04.2019 18:38 20,5 C 16,1 C 18,3 C 26 % 1015,5 hPa 0,0 l/m 13,5 km/h (3 Bft) O 82 2 min 0,000 mm 0,0 UV-I 171 W/m 0,3 C 18,2 C 17,7 km/h (3 Bft) 97,56 %
21.04.2019 18:40 20,4 C 16,1 C 18,3 C 26 % 1015,5 hPa 0,0 l/m 14,1 km/h (3 Bft) O 86 2 min 0,000 mm 0,0 UV-I 164 W/m 0,3 C 17,9 C 19,3 km/h (3 Bft) 95,24 %
21.04.2019 18:42 20,4 C 16,1 C 18,3 C 27 % 1015,5 hPa 0,0 l/m 13,2 km/h (3 Bft) O-NO 76 2 min 0,000 mm 0,0 UV-I 159 W/m 0,8 C 18,2 C 17,7 km/h (3 Bft) 98,18 %
21.04.2019 18:44 20,3 C 16,1 C 18,3 C 27 % 1015,5 hPa 0,0 l/m 14,6 km/h (3 Bft) O 101 2 min 0,000 mm 0,0 UV-I 153 W/m 0,7 C 17,7 C 19,3 km/h (3 Bft) 97,44 %
21.04.2019 18:46 20,3 C 16,1 C 18,3 C 28 % 1015,5 hPa 0,0 l/m 12,9 km/h (3 Bft) O 100 2 min 0,000 mm 0,0 UV-I 148 W/m 1,2 C 18,1 C 16,1 km/h (3 Bft) 94,83 %
21.04.2019 18:48 20,2 C 16,1 C 18,3 C 28 % 1015,4 hPa 0,0 l/m 13,1 km/h (3 Bft) O-SO 115 2 min 0,000 mm 0,0 UV-I 143 W/m 1,1 C 18,0 C 19,3 km/h (3 Bft) 100,00 %
21.04.2019 18:50 20,2 C 16,1 C 17,8 C 28 % 1015,5 hPa 0,0 l/m 13,0 km/h (3 Bft) O 100 2 min 0,000 mm 0,0 UV-I 138 W/m 1,1 C 18,0 C 17,7 km/h (3 Bft) 98,21 %
21.04.2019 18:52 20,1 C 16,1 C 17,8 C 28 % 1015,5 hPa 0,0 l/m 11,2 km/h (2 Bft) O-SO 104 2 min 0,000 mm 0,0 UV-I 133 W/m 1,0 C 18,4 C 16,1 km/h (3 Bft) 93,62 %
21.04.2019 18:54 20,1 C 16,1 C 17,8 C 28 % 1015,4 hPa 0,0 l/m 11,0 km/h (2 Bft) O 82 2 min 0,000 mm 0,0 UV-I 128 W/m 1,0 C 18,4 C 16,1 km/h (3 Bft) 96,00 %
21.04.2019 18:56 20,0 C 16,1 C 17,8 C 28 % 1015,4 hPa 0,0 l/m 9,2 km/h (2 Bft) O 79 2 min 0,000 mm 0,0 UV-I 124 W/m 0,9 C 18,9 C 12,9 km/h (3 Bft) 95,74 %
21.04.2019 18:59 19,8 C 16,1 C 17,2 C 29 % 1015,3 hPa 0,0 l/m 10,0 km/h (2 Bft) O 97 3 min 0,000 mm 0,0 UV-I 119 W/m 1,3 C 18,4 C 16,1 km/h (3 Bft) 94,29 %
21.04.2019 19:00 19,8 C 16,1 C 17,2 C 29 % 1015,3 hPa 0,0 l/m 10,2 km/h (2 Bft) O-NO 68 1 min 0,000 mm 0,0 UV-I 114 W/m 1,3 C 18,4 C 14,5 km/h (3 Bft) 100,00 %
21.04.2019 19:02 19,8 C 16,1 C 17,2 C 29 % 1015,4 hPa 0,0 l/m 14,8 km/h (3 Bft) O 101 2 min 0,254 mm 0,0 UV-I 110 W/m 1,3 C 17,1 C 19,3 km/h (3 Bft) 94,00 %
21.04.2019 19:04 19,7 C 16,1 C 17,2 C 30 % 1015,3 hPa 0,0 l/m 13,6 km/h (3 Bft) O-SO 103 2 min 0,000 mm 0,0 UV-I 106 W/m 1,6 C 17,2 C 19,3 km/h (3 Bft) 98,00 %
21.04.2019 19:06 19,6 C 16,1 C 16,7 C 32 % 1015,3 hPa 0,0 l/m 11,4 km/h (2 Bft) O-SO 105 2 min 0,000 mm 0,0 UV-I 102 W/m 2,5 C 17,7 C 16,1 km/h (3 Bft) 98,00 %
21.04.2019 19:08 19,5 C 16,1 C 16,7 C 32 % 1015,3 hPa 0,0 l/m 9,9 km/h (2 Bft) O-SO 115 2 min 0,000 mm 0,0 UV-I 98 W/m 2,4 C 18,1 C 14,5 km/h (3 Bft) 93,62 %
21.04.2019 19:10 19,4 C 16,1 C 16,7 C 32 % 1015,3 hPa 0,0 l/m 10,8 km/h (2 Bft) O 96 2 min 0,000 mm 0,0 UV-I 94 W/m 2,3 C 17,7 C 14,5 km/h (3 Bft) 97,37 %
21.04.2019 19:12 19,4 C 15,6 C 16,7 C 32 % 1015,3 hPa 0,0 l/m 11,5 km/h (2 Bft) O-SO 115 2 min 0,000 mm 0,0 UV-I 90 W/m 2,3 C 17,5 C 17,7 km/h (3 Bft) 96,43 %
21.04.2019 19:14 19,3 C 15,6 C 16,1 C 32 % 1015,2 hPa 0,0 l/m 11,1 km/h (2 Bft) O-NO 73 2 min 0,000 mm 0,0 UV-I 85 W/m 2,2 C 17,5 C 17,7 km/h (3 Bft) 100,00 %
21.04.2019 19:16 19,3 C 15,6 C 16,7 C 32 % 1015,2 hPa 0,0 l/m 13,4 km/h (3 Bft) O-SO 115 2 min 0,000 mm 0,0 UV-I 83 W/m 2,2 C 16,8 C 17,7 km/h (3 Bft) 98,11 %
21.04.2019 19:18 19,3 C 15,6 C 16,1 C 33 % 1015,3 hPa 0,0 l/m 8,9 km/h (2 Bft) O-SO 115 2 min 0,000 mm 0,0 UV-I 79 W/m 2,6 C 18,3 C 14,5 km/h (3 Bft) 100,00 %
21.04.2019 19:20 19,2 C 15,6 C 16,1 C 33 % 1015,2 hPa 0,0 l/m 8,8 km/h (2 Bft) O-SO 121 2 min 0,000 mm 0,0 UV-I 75 W/m 2,5 C 18,2 C 12,9 km/h (3 Bft) 100,00 %
21.04.2019 19:22 19,1 C 15,6 C 16,1 C 34 % 1015,2 hPa 0,0 l/m 10,9 km/h (2 Bft) O-SO 102 2 min 0,000 mm 0,0 UV-I 72 W/m 2,9 C 17,3 C 16,1 km/h (3 Bft) 98,00 %
21.04.2019 19:24 19,0 C 15,6 C 16,1 C 33 % 1015,2 hPa 0,0 l/m 10,6 km/h (2 Bft) O-SO 121 2 min 0,000 mm 0,0 UV-I 69 W/m 2,4 C 17,3 C 17,7 km/h (3 Bft) 100,00 %
21.04.2019 19:26 19,0 C 15,6 C 15,6 C 34 % 1015,2 hPa 0,0 l/m 11,7 km/h (2 Bft) O 96 2 min 0,000 mm 0,0 UV-I 65 W/m 2,8 C 17,0 C 16,1 km/h (3 Bft) 100,00 %
21.04.2019 19:29 18,8 C 15,6 C 15,6 C 34 % 1015,2 hPa 0,0 l/m 12,8 km/h (3 Bft) O 97 3 min 0,000 mm 0,0 UV-I 61 W/m 2,6 C 16,4 C 17,7 km/h (3 Bft) 100,00 %
21.04.2019 19:30 18,8 C 15,6 C 15,6 C 33 % 1015,2 hPa 0,0 l/m 13,8 km/h (3 Bft) O 92 1 min 0,000 mm 0,0 UV-I 58 W/m 2,2 C 16,1 C 17,7 km/h (3 Bft) 100,00 %
21.04.2019 19:32 18,8 C 15,6 C 15,6 C 35 % 1015,2 hPa 0,0 l/m 9,2 km/h (2 Bft) O-SO 113 2 min 0,000 mm 0,0 UV-I 55 W/m 3,0 C 17,6 C 14,5 km/h (3 Bft) 100,00 %
21.04.2019 19:34 18,6 C 15,6 C 15,6 C 34 % 1015,2 hPa 0,0 l/m 13,4 km/h (3 Bft) O-SO 103 2 min 0,000 mm 0,0 UV-I 53 W/m 2,4 C 16,0 C 17,7 km/h (3 Bft) 100,00 %
21.04.2019 19:36 18,6 C 15,6 C 15,0 C 34 % 1015,1 hPa 0,0 l/m 11,0 km/h (2 Bft) O-SO 105 2 min 0,000 mm 0,0 UV-I 49 W/m 2,4 C 16,7 C 16,1 km/h (3 Bft) 100,00 %
21.04.2019 19:38 18,4 C 15,6 C 15,0 C 35 % 1015,2 hPa 0,0 l/m 13,0 km/h (3 Bft) O-SO 120 2 min 0,000 mm 0,0 UV-I 46 W/m 2,7 C 15,9 C 19,3 km/h (3 Bft) 100,00 %
21.04.2019 19:40 18,3 C 15,6 C 15,0 C 35 % 1015,2 hPa 0,0 l/m 11,5 km/h (2 Bft) O-SO 102 2 min 0,000 mm 0,0 UV-I 42 W/m 2,6 C 16,2 C 16,1 km/h (3 Bft) 97,56 %
21.04.2019 19:42 18,2 C 15,6 C 14,4 C 35 % 1015,2 hPa 0,0 l/m 12,3 km/h (3 Bft) O-SO 105 2 min 0,000 mm 0,0 UV-I 38 W/m 2,5 C 15,9 C 19,3 km/h (3 Bft) 100,00 %
21.04.2019 19:44 18,1 C 15,6 C 14,4 C 35 % 1015,2 hPa 0,0 l/m 9,5 km/h (2 Bft) O 89 2 min 0,000 mm 0,0 UV-I 34 W/m 2,4 C 16,7 C 14,5 km/h (3 Bft) 100,00 %
21.04.2019 19:46 18,0 C 15,6 C 14,4 C 35 % 1015,2 hPa 0,0 l/m 11,6 km/h (2 Bft) O-SO 107 2 min 0,000 mm 0,0 UV-I 31 W/m 2,3 C 15,9 C 17,7 km/h (3 Bft) 100,00 %
21.04.2019 19:48 17,9 C 15,6 C 14,4 C 35 % 1015,1 hPa 0,0 l/m 10,8 km/h (2 Bft) O-SO 103 2 min 0,000 mm 0,0 UV-I 26 W/m 2,2 C 16,0 C 16,1 km/h (3 Bft) 100,00 %
21.04.2019 19:50 17,9 C 15,6 C 14,4 C 35 % 1015,1 hPa 0,0 l/m 11,9 km/h (2 Bft) O-SO 113 2 min 0,000 mm 0,0 UV-I 21 W/m 2,2 C 15,6 C 19,3 km/h (3 Bft) 100,00 %
21.04.2019 19:52 17,8 C 15,6 C 14,4 C 35 % 1015,1 hPa 0,0 l/m 12,6 km/h (3 Bft) O-SO 103 0 min 0,000 mm 0,0 UV-I 18 W/m 2,1 C 15,3 C 16,1 km/h (3 Bft) 100,00 %
21.04.2019 19:54 17,8 C 15,6 C 14,4 C 35 % 1015,1 hPa 0,0 l/m 13,4 km/h (3 Bft) O 86 0 min 0,000 mm 0,0 UV-I 17 W/m 2,1 C 15,1 C 19,3 km/h (3 Bft) 97,87 %
21.04.2019 19:56 17,7 C 15,6 C 14,4 C 35 % 1015,2 hPa 0,0 l/m 12,0 km/h (2 Bft) O 94 0 min 0,000 mm 0,0 UV-I 13 W/m 2,1 C 15,4 C 16,1 km/h (3 Bft) 100,00 %
21.04.2019 19:58 17,6 C 15,6 C 13,9 C 35 % 1015,3 hPa 0,0 l/m 13,8 km/h (3 Bft) O-SO 102 0 min 0,000 mm 0,0 UV-I 12 W/m 2,0 C 14,7 C 19,3 km/h (3 Bft) 100,00 %
21.04.2019 20:00 17,5 C 15,6 C 13,9 C 35 % 1015,3 hPa 0,0 l/m 14,4 km/h (3 Bft) O-SO 114 0 min 0,000 mm 0,0 UV-I 11 W/m 1,9 C 14,4 C 19,3 km/h (3 Bft) 98,51 %
21.04.2019 20:02 17,4 C 15,6 C 13,9 C 36 % 1015,2 hPa 0,0 l/m 12,5 km/h (3 Bft) O 97 0 min 0,153 mm 0,0 UV-I 11 W/m 2,2 C 14,9 C 17,7 km/h (3 Bft) 100,00 %
21.04.2019 20:04 17,3 C 15,6 C 13,9 C 35 % 1015,2 hPa 0,0 l/m 14,0 km/h (3 Bft) O 98 0 min 0,000 mm 0,0 UV-I 9 W/m 1,7 C 14,3 C 17,7 km/h (3 Bft) 100,00 %
21.04.2019 20:06 17,3 C 15,6 C 13,3 C 36 % 1015,2 hPa 0,0 l/m 12,3 km/h (3 Bft) O-SO 103 0 min 0,000 mm 0,0 UV-I 8 W/m 2,1 C 14,8 C 16,1 km/h (3 Bft) 100,00 %
21.04.2019 20:08 17,2 C 15,6 C 13,3 C 36 % 1015,2 hPa 0,0 l/m 13,6 km/h (3 Bft) O-SO 113 0 min 0,000 mm 0,0 UV-I 7 W/m 2,0 C 14,3 C 16,1 km/h (3 Bft) 100,00 %
21.04.2019 20:10 17,1 C 15,6 C 13,3 C 36 % 1015,1 hPa 0,0 l/m 13,0 km/h (3 Bft) O-NO 72 0 min 0,000 mm 0,0 UV-I 7 W/m 1,9 C 14,4 C 17,7 km/h (3 Bft) 100,00 %
21.04.2019 20:12 16,9 C 15,6 C 13,3 C 37 % 1015,1 hPa 0,0 l/m 12,3 km/h (3 Bft) O 91 0 min 0,000 mm 0,0 UV-I 5 W/m 2,1 C 14,4 C 16,1 km/h (3 Bft) 100,00 %
21.04.2019 20:14 16,8 C 15,6 C 12,8 C 37 % 1015,1 hPa 0,0 l/m 11,5 km/h (2 Bft) O-SO 102 0 min 0,000 mm 0,0 UV-I 5 W/m 2,0 C 14,5 C 17,7 km/h (3 Bft) 100,00 %
21.04.2019 20:16 16,7 C 15,6 C 12,8 C 37 % 1015,2 hPa 0,0 l/m 11,7 km/h (2 Bft) O-SO 111 0 min 0,000 mm 0,0 UV-I 5 W/m 1,9 C 14,3 C 14,5 km/h (3 Bft) 100,00 %
21.04.2019 20:18 16,6 C 15,6 C 12,8 C 38 % 1015,2 hPa 0,0 l/m 10,7 km/h (2 Bft) O 96 0 min 0,000 mm 0,0 UV-I 5 W/m 2,2 C 14,6 C 12,9 km/h (3 Bft) 100,00 %
21.04.2019 20:20 16,4 C 15,6 C 12,2 C 38 % 1015,2 hPa 0,0 l/m 10,5 km/h (2 Bft) O 99 0 min 0,000 mm 0,0 UV-I 2 W/m 2,1 C 14,5 C 14,5 km/h (3 Bft) 100,00 %
21.04.2019 20:22 16,3 C 15,6 C 12,2 C 39 % 1015,3 hPa 0,0 l/m 9,5 km/h (2 Bft) O-SO 105 0 min 0,000 mm 0,0 UV-I 0 W/m 2,3 C 14,8 C 12,9 km/h (3 Bft) 97,87 %
21.04.2019 20:24 16,2 C 15,6 C 12,2 C 39 % 1015,3 hPa 0,0 l/m 9,3 km/h (2 Bft) O-SO 102 0 min 0,000 mm 0,0 UV-I 0 W/m 2,2 C 14,7 C 14,5 km/h (3 Bft) 97,14 %
21.04.2019 20:26 16,1 C 15,6 C 12,2 C 39 % 1015,3 hPa 0,0 l/m 10,0 km/h (2 Bft) O-SO 109 0 min 0,000 mm 0,0 UV-I 0 W/m 2,1 C 14,3 C 12,9 km/h (3 Bft) 98,39 %
21.04.2019 20:29 16,0 C 15,6 C 11,7 C 39 % 1015,2 hPa 0,0 l/m 10,7 km/h (2 Bft) O-SO 104 0 min 0,000 mm 0,0 UV-I 0 W/m 2,1 C 13,9 C 12,9 km/h (3 Bft) 95,95 %
21.04.2019 20:30 16,0 C 15,6 C 11,7 C 39 % 1015,2 hPa 0,0 l/m 9,5 km/h (2 Bft) O 95 0 min 0,000 mm 0,0 UV-I 0 W/m 2,1 C 14,4 C 14,5 km/h (3 Bft) 92,86 %
21.04.2019 20:32 16,0 C 15,6 C 11,7 C 39 % 1015,3 hPa 0,0 l/m 10,3 km/h (2 Bft) O-SO 113 0 min 0,000 mm 0,0 UV-I 0 W/m 2,1 C 14,1 C 16,1 km/h (3 Bft) 95,74 %
21.04.2019 20:34 16,0 C 15,6 C 11,7 C 39 % 1015,3 hPa 0,0 l/m 9,8 km/h (2 Bft) O-SO 103 0 min 0,000 mm 0,0 UV-I 0 W/m 2,1 C 14,3 C 12,9 km/h (3 Bft) 95,83 %
21.04.2019 20:36 16,0 C 15,6 C 11,1 C 39 % 1015,3 hPa 0,0 l/m 8,9 km/h (2 Bft) O-SO 113 0 min 0,000 mm 0,0 UV-I 0 W/m 2,1 C 14,7 C 12,9 km/h (3 Bft) 93,88 %
21.04.2019 20:38 15,9 C 15,6 C 11,1 C 39 % 1015,3 hPa 0,0 l/m 7,3 km/h (2 Bft) O-SO 109 0 min 0,000 mm 0,0 UV-I 0 W/m 2,0 C 15,4 C 12,9 km/h (3 Bft) 95,83 %
21.04.2019 20:40 15,9 C 15,6 C 11,1 C 39 % 1015,3 hPa 0,0 l/m 9,6 km/h (2 Bft) O-SO 123 0 min 0,000 mm 0,0 UV-I 0 W/m 2,0 C 14,3 C 14,5 km/h (3 Bft) 92,31 %
21.04.2019 20:42 15,9 C 15,6 C 11,7 C 39 % 1015,4 hPa 0,0 l/m 10,3 km/h (2 Bft) O-SO 117 0 min 0,000 mm 0,0 UV-I 0 W/m 2,0 C 14,0 C 16,1 km/h (3 Bft) 92,86 %
21.04.2019 20:44 16,0 C 15,6 C 11,7 C 39 % 1015,4 hPa 0,0 l/m 10,8 km/h (2 Bft) O-NO 74 0 min 0,000 mm 0,0 UV-I 0 W/m 2,1 C 13,9 C 17,7 km/h (3 Bft) 95,12 %
21.04.2019 20:46 15,9 C 15,6 C 11,7 C 39 % 1015,4 hPa 0,0 l/m 12,2 km/h (2 Bft) O 98 0 min 0,000 mm 0,0 UV-I 0 W/m 2,0 C 13,2 C 17,7 km/h (3 Bft) 92,45 %
21.04.2019 20:48 15,9 C 15,6 C 11,1 C 39 % 1015,4 hPa 0,0 l/m 9,9 km/h (2 Bft) O 101 0 min 0,000 mm 0,0 UV-I 0 W/m 2,0 C 14,2 C 14,5 km/h (3 Bft) 95,12 %
21.04.2019 20:50 15,8 C 15,6 C 11,7 C 39 % 1015,5 hPa 0,0 l/m 11,1 km/h (2 Bft) O-SO 115 0 min 0,000 mm 0,0 UV-I 0 W/m 1,9 C 13,5 C 16,1 km/h (3 Bft) 94,64 %
21.04.2019 20:52 15,8 C 15,6 C 11,7 C 39 % 1015,5 hPa 0,0 l/m 8,6 km/h (2 Bft) O-SO 120 0 min 0,000 mm 0,0 UV-I 0 W/m 1,9 C 14,6 C 14,5 km/h (3 Bft) 92,68 %
21.04.2019 20:54 15,8 C 15,6 C 11,1 C 39 % 1015,5 hPa 0,0 l/m 8,8 km/h (2 Bft) O-SO 106 0 min 0,000 mm 0,0 UV-I 0 W/m 1,9 C 14,5 C 17,7 km/h (3 Bft) 96,23 %
21.04.2019 20:56 15,7 C 15,6 C 11,7 C 39 % 1015,5 hPa 0,0 l/m 10,2 km/h (2 Bft) O-SO 102 0 min 0,000 mm 0,0 UV-I 0 W/m 1,8 C 13,8 C 16,1 km/h (3 Bft) 94,29 %
21.04.2019 20:58 15,7 C 15,6 C 11,7 C 39 % 1015,5 hPa 0,0 l/m 10,5 km/h (2 Bft) O-SO 123 0 min 0,000 mm 0,0 UV-I 0 W/m 1,8 C 13,7 C 16,1 km/h (3 Bft) 96,61 %
21.04.2019 21:00 15,7 C 15,6 C 11,7 C 39 % 1015,5 hPa 0,0 l/m 10,7 km/h (2 Bft) O 97 0 min 0,000 mm 0,0 UV-I 0 W/m 1,8 C 13,6 C 16,1 km/h (3 Bft) 94,29 %
21.04.2019 21:02 15,6 C 15,6 C 11,7 C 39 % 1015,5 hPa 0,0 l/m 11,5 km/h (2 Bft) O 94 0 min 0,101 mm 0,0 UV-I 0 W/m 1,7 C 13,2 C 14,5 km/h (3 Bft) 94,64 %
21.04.2019 21:04 15,5 C 15,6 C 11,7 C 40 % 1015,5 hPa 0,0 l/m 10,7 km/h (2 Bft) O 87 0 min 0,000 mm 0,0 UV-I 0 W/m 2,0 C 13,4 C 16,1 km/h (3 Bft) 97,56 %
21.04.2019 21:06 15,4 C 15,6 C 11,1 C 40 % 1015,6 hPa 0,0 l/m 11,1 km/h (2 Bft) O-NO 68 0 min 0,000 mm 0,0 UV-I 0 W/m 1,9 C 13,1 C 14,5 km/h (3 Bft) 96,00 %
21.04.2019 21:08 15,3 C 15,6 C 11,7 C 40 % 1015,6 hPa 0,0 l/m 13,0 km/h (3 Bft) O-SO 103 0 min 0,000 mm 0,0 UV-I 0 W/m 1,8 C 12,2 C 16,1 km/h (3 Bft) 97,87 %
21.04.2019 21:10 15,2 C 15,6 C 11,7 C 40 % 1015,5 hPa 0,0 l/m 11,0 km/h (2 Bft) O 92 0 min 0,000 mm 0,0 UV-I 0 W/m 1,7 C 12,9 C 14,5 km/h (3 Bft) 96,00 %
21.04.2019 21:12 15,1 C 15,6 C 11,7 C 41 % 1015,6 hPa 0,0 l/m 8,3 km/h (2 Bft) O-NO 78 0 min 0,000 mm 0,0 UV-I 0 W/m 2,0 C 14,0 C 14,5 km/h (3 Bft) 98,00 %
21.04.2019 21:14 14,8 C 15,6 C 11,1 C 42 % 1015,6 hPa 0,0 l/m 8,0 km/h (2 Bft) O 88 0 min 0,000 mm 0,0 UV-I 0 W/m 2,0 C 13,9 C 12,9 km/h (3 Bft) 95,12 %
21.04.2019 21:16 14,5 C 15,6 C 11,1 C 42 % 1015,6 hPa 0,0 l/m 6,6 km/h (2 Bft) O 96 0 min 0,000 mm 0,0 UV-I 0 W/m 1,7 C 14,4 C 11,3 km/h (2 Bft) 98,00 %
21.04.2019 21:18 14,4 C 15,6 C 11,1 C 43 % 1015,6 hPa 0,0 l/m 9,7 km/h (2 Bft) O 98 0 min 0,000 mm 0,0 UV-I 0 W/m 2,0 C 12,6 C 17,7 km/h (3 Bft) 97,44 %
21.04.2019 21:20 14,3 C 15,6 C 10,6 C 43 % 1015,6 hPa 0,0 l/m 8,5 km/h (2 Bft) O 80 0 min 0,000 mm 0,0 UV-I 0 W/m 1,9 C 13,1 C 14,5 km/h (3 Bft) 98,00 %
21.04.2019 21:22 14,3 C 15,6 C 10,6 C 43 % 1015,6 hPa 0,0 l/m 9,6 km/h (2 Bft) O 90 0 min 0,000 mm 0,0 UV-I 0 W/m 1,9 C 12,5 C 14,5 km/h (3 Bft) 95,74 %
21.04.2019 21:24 14,3 C 15,6 C 10,6 C 43 % 1015,6 hPa 0,0 l/m 9,9 km/h (2 Bft) O-SO 107 0 min 0,000 mm 0,0 UV-I 0 W/m 1,9 C 12,4 C 14,5 km/h (3 Bft) 95,74 %
21.04.2019 21:26 14,3 C 15,6 C 11,1 C 43 % 1015,6 hPa 0,0 l/m 10,6 km/h (2 Bft) O 88 0 min 0,000 mm 0,0 UV-I 0 W/m 1,9 C 12,1 C 14,5 km/h (3 Bft) 98,11 %
21.04.2019 21:28 14,3 C 15,6 C 10,6 C 43 % 1015,6 hPa 0,0 l/m 11,2 km/h (2 Bft) O-SO 103 0 min 0,000 mm 0,0 UV-I 0 W/m 1,9 C 11,8 C 16,1 km/h (3 Bft) 100,00 %
21.04.2019 21:30 14,3 C 15,6 C 10,6 C 42 % 1015,6 hPa 0,0 l/m 11,1 km/h (2 Bft) O-SO 115 0 min 0,000 mm 0,0 UV-I 0 W/m 1,6 C 11,8 C 17,7 km/h (3 Bft) 97,06 %
21.04.2019 21:32 14,4 C 15,6 C 10,6 C 42 % 1015,6 hPa 0,0 l/m 10,4 km/h (2 Bft) O-SO 102 0 min 0,000 mm 0,0 UV-I 0 W/m 1,7 C 12,3 C 16,1 km/h (3 Bft) 93,62 %
21.04.2019 21:34 14,4 C 15,6 C 10,6 C 42 % 1015,6 hPa 0,0 l/m 13,5 km/h (3 Bft) O-SO 104 0 min 0,000 mm 0,0 UV-I 0 W/m 1,7 C 11,0 C 17,7 km/h (3 Bft) 97,37 %
21.04.2019 21:36 14,6 C 15,6 C 10,6 C 41 % 1015,6 hPa 0,0 l/m 13,4 km/h (3 Bft) O 90 0 min 0,000 mm 0,0 UV-I 0 W/m 1,5 C 11,3 C 17,7 km/h (3 Bft) 98,00 %
21.04.2019 21:38 14,6 C 15,6 C 11,1 C 41 % 1015,6 hPa 0,0 l/m 13,4 km/h (3 Bft) O 94 0 min 0,000 mm 0,0 UV-I 0 W/m 1,5 C 11,3 C 17,7 km/h (3 Bft) 98,11 %
21.04.2019 21:40 14,6 C 15,6 C 11,1 C 41 % 1015,6 hPa 0,0 l/m 13,7 km/h (3 Bft) O-SO 107 0 min 0,000 mm 0,0 UV-I 0 W/m 1,5 C 11,2 C 17,7 km/h (3 Bft) 97,87 %
21.04.2019 21:42 14,6 C 15,6 C 11,1 C 41 % 1015,6 hPa 0,0 l/m 12,8 km/h (3 Bft) O 86 0 min 0,000 mm 0,0 UV-I 0 W/m 1,5 C 11,5 C 17,7 km/h (3 Bft) 94,74 %
21.04.2019 21:44 14,6 C 15,6 C 11,1 C 41 % 1015,6 hPa 0,0 l/m 12,7 km/h (3 Bft) O 90 0 min 0,000 mm 0,0 UV-I 0 W/m 1,5 C 11,5 C 16,1 km/h (3 Bft) 96,23 %
21.04.2019 21:46 14,5 C 15,6 C 11,1 C 41 % 1015,6 hPa 0,0 l/m 12,5 km/h (3 Bft) O 101 0 min 0,000 mm 0,0 UV-I 0 W/m 1,4 C 11,5 C 16,1 km/h (3 Bft) 95,12 %
21.04.2019 21:48 14,4 C 15,6 C 11,1 C 41 % 1015,6 hPa 0,0 l/m 12,3 km/h (3 Bft) O-SO 103 0 min 0,000 mm 0,0 UV-I 0 W/m 1,3 C 11,5 C 16,1 km/h (3 Bft) 98,11 %
21.04.2019 21:50 14,3 C 15,6 C 11,1 C 42 % 1015,6 hPa 0,0 l/m 12,1 km/h (2 Bft) O 95 0 min 0,000 mm 0,0 UV-I 0 W/m 1,6 C 11,4 C 16,1 km/h (3 Bft) 97,22 %
21.04.2019 21:52 14,2 C 15,6 C 10,6 C 41 % 1015,6 hPa 0,0 l/m 12,8 km/h (3 Bft) O 88 0 min 0,000 mm 0,0 UV-I 0 W/m 1,1 C 11,0 C 16,1 km/h (3 Bft) 98,00 %
21.04.2019 21:54 14,2 C 15,6 C 10,6 C 41 % 1015,5 hPa 0,0 l/m 12,6 km/h (3 Bft) O-SO 103 0 min 0,000 mm 0,0 UV-I 0 W/m 1,1 C 11,1 C 14,5 km/h (3 Bft) 97,56 %
21.04.2019 21:56 14,2 C 15,6 C 10,6 C 42 % 1015,6 hPa 0,0 l/m 11,6 km/h (2 Bft) O 82 0 min 0,000 mm 0,0 UV-I 0 W/m 1,5 C 11,5 C 16,1 km/h (3 Bft) 98,11 %
21.04.2019 21:58 14,1 C 15,6 C 10,6 C 42 % 1015,5 hPa 0,0 l/m 11,9 km/h (2 Bft) O 84 0 min 0,000 mm 0,0 UV-I 0 W/m 1,4 C 11,3 C 14,5 km/h (3 Bft) 96,43 %
21.04.2019 22:00 14,1 C 15,6 C 10,6 C 42 % 1015,5 hPa 0,0 l/m 12,1 km/h (2 Bft) O 88 0 min 0,000 mm 0,0 UV-I 0 W/m 1,4 C 11,2 C 16,1 km/h (3 Bft) 100,00 %
21.04.2019 22:02 14,0 C 15,6 C 10,6 C 42 % 1015,5 hPa 0,0 l/m 11,9 km/h (2 Bft) O 94 0 min 0,077 mm 0,0 UV-I 0 W/m 1,3 C 11,2 C 17,7 km/h (3 Bft) 94,64 %
21.04.2019 22:04 13,9 C 15,6 C 10,6 C 42 % 1015,5 hPa 0,0 l/m 10,7 km/h (2 Bft) O 83 0 min 0,000 mm 0,0 UV-I 0 W/m 1,2 C 11,6 C 17,7 km/h (3 Bft) 97,56 %
21.04.2019 22:06 13,8 C 15,6 C 10,6 C 42 % 1015,5 hPa 0,0 l/m 12,5 km/h (3 Bft) O-SO 102 0 min 0,000 mm 0,0 UV-I 0 W/m 1,1 C 10,7 C 19,3 km/h (3 Bft) 100,00 %
21.04.2019 22:08 13,8 C 15,6 C 10,6 C 42 % 1015,5 hPa 0,0 l/m 11,6 km/h (2 Bft) O 94 0 min 0,000 mm 0,0 UV-I 0 W/m 1,1 C 11,1 C 14,5 km/h (3 Bft) 97,73 %
21.04.2019 22:10 13,8 C 15,6 C 10,6 C 42 % 1015,5 hPa 0,0 l/m 13,2 km/h (3 Bft) O-SO 117 0 min 0,000 mm 0,0 UV-I 0 W/m 1,1 C 10,4 C 16,1 km/h (3 Bft) 100,00 %
21.04.2019 22:12 13,8 C 15,6 C 10,6 C 42 % 1015,4 hPa 0,0 l/m 14,1 km/h (3 Bft) O 96 0 min 0,000 mm 0,0 UV-I 0 W/m 1,1 C 10,1 C 17,7 km/h (3 Bft) 97,37 %
21.04.2019 22:14 13,9 C 15,6 C 11,1 C 41 % 1015,4 hPa 0,0 l/m 12,7 km/h (3 Bft) O-SO 102 0 min 0,000 mm 0,0 UV-I 0 W/m 0,9 C 10,7 C 16,1 km/h (3 Bft) 98,11 %
21.04.2019 22:16 14,0 C 15,6 C 11,1 C 41 % 1015,4 hPa 0,0 l/m 14,4 km/h (3 Bft) O 96 0 min 0,000 mm 0,0 UV-I 0 W/m 1,0 C 10,2 C 22,5 km/h (4 Bft) 100,00 %
21.04.2019 22:18 14,1 C 15,6 C 11,1 C 41 % 1015,4 hPa 0,0 l/m 13,7 km/h (3 Bft) O-SO 113 0 min 0,000 mm 0,0 UV-I 0 W/m 1,1 C 10,6 C 20,9 km/h (4 Bft) 98,11 %
21.04.2019 22:20 14,2 C 15,6 C 11,1 C 41 % 1015,4 hPa 0,0 l/m 14,8 km/h (3 Bft) O-NO 76 0 min 0,000 mm 0,0 UV-I 0 W/m 1,1 C 10,3 C 19,3 km/h (3 Bft) 100,00 %
21.04.2019 22:22 14,1 C 15,6 C 11,1 C 41 % 1015,4 hPa 0,0 l/m 13,2 km/h (3 Bft) O-NO 76 0 min 0,000 mm 0,0 UV-I 0 W/m 1,1 C 10,8 C 17,7 km/h (3 Bft) 100,00 %
21.04.2019 22:24 14,1 C 15,6 C 11,1 C 41 % 1015,4 hPa 0,0 l/m 14,0 km/h (3 Bft) O-NO 75 0 min 0,000 mm 0,0 UV-I 0 W/m 1,1 C 10,5 C 19,3 km/h (3 Bft) 100,00 %
21.04.2019 22:26 14,0 C 15,6 C 11,1 C 41 % 1015,4 hPa 0,0 l/m 11,5 km/h (2 Bft) O 90 0 min 0,000 mm 0,0 UV-I 0 W/m 1,0 C 11,3 C 17,7 km/h (3 Bft) 100,00 %
21.04.2019 22:28 14,0 C 15,6 C 11,1 C 41 % 1015,4 hPa 0,0 l/m 12,2 km/h (2 Bft) O 80 0 min 0,000 mm 0,0 UV-I 0 W/m 1,0 C 11,0 C 16,1 km/h (3 Bft) 93,62 %
21.04.2019 22:30 13,9 C 15,6 C 11,1 C 41 % 1015,4 hPa 0,0 l/m 11,6 km/h (2 Bft) O 98 0 min 0,000 mm 0,0 UV-I 0 W/m 0,9 C 11,2 C 16,1 km/h (3 Bft) 94,00 %
21.04.2019 22:32 13,9 C 15,6 C 11,1 C 40 % 1015,3 hPa 0,0 l/m 10,7 km/h (2 Bft) O 96 0 min 0,000 mm 0,0 UV-I 0 W/m 0,5 C 11,6 C 16,1 km/h (3 Bft) 97,87 %
21.04.2019 22:34 13,8 C 15,6 C 11,1 C 40 % 1015,3 hPa 0,0 l/m 8,9 km/h (2 Bft) O-NO 71 0 min 0,000 mm 0,0 UV-I 0 W/m 0,4 C 12,3 C 14,5 km/h (3 Bft) 97,44 %
21.04.2019 22:36 13,8 C 15,6 C 10,6 C 40 % 1015,3 hPa 0,0 l/m 9,3 km/h (2 Bft) O 83 0 min 0,000 mm 0,0 UV-I 0 W/m 0,4 C 12,1 C 16,1 km/h (3 Bft) 96,36 %
21.04.2019 22:38 13,7 C 15,6 C 10,6 C 41 % 1015,3 hPa 0,0 l/m 10,9 km/h (2 Bft) O-NO 65 0 min 0,000 mm 0,0 UV-I 0 W/m 0,7 C 11,3 C 16,1 km/h (3 Bft) 97,87 %
21.04.2019 22:40 13,6 C 15,6 C 10,6 C 41 % 1015,3 hPa 0,0 l/m 10,9 km/h (2 Bft) O-NO 71 0 min 0,000 mm 0,0 UV-I 0 W/m 0,6 C 11,1 C 16,1 km/h (3 Bft) 96,00 %
21.04.2019 22:42 13,6 C 15,6 C 10,6 C 40 % 1015,2 hPa 0,0 l/m 12,4 km/h (3 Bft) O-NO 63 0 min 0,000 mm 0,0 UV-I 0 W/m 0,3 C 10,5 C 17,7 km/h (3 Bft) 97,37 %
21.04.2019 22:44 13,7 C 15,6 C 11,1 C 41 % 1015,2 hPa 0,0 l/m 11,7 km/h (2 Bft) O-NO 71 0 min 0,000 mm 0,0 UV-I 0 W/m 0,7 C 10,9 C 17,7 km/h (3 Bft) 98,00 %
21.04.2019 22:46 13,6 C 15,6 C 11,1 C 41 % 1015,3 hPa 0,0 l/m 10,5 km/h (2 Bft) O-NO 76 0 min 0,000 mm 0,0 UV-I 0 W/m 0,6 C 11,3 C 16,1 km/h (3 Bft) 97,56 %
21.04.2019 22:48 13,6 C 15,0 C 11,1 C 41 % 1015,3 hPa 0,0 l/m 12,4 km/h (3 Bft) O-NO 69 0 min 0,000 mm 0,0 UV-I 0 W/m 0,6 C 10,5 C 17,7 km/h (3 Bft) 94,00 %
21.04.2019 22:50 13,5 C 15,0 C 11,1 C 40 % 1015,3 hPa 0,0 l/m 10,6 km/h (2 Bft) O-NO 76 0 min 0,000 mm 0,0 UV-I 0 W/m 0,2 C 11,2 C 14,5 km/h (3 Bft) 96,23 %
21.04.2019 22:52 13,5 C 15,0 C 11,1 C 41 % 1015,3 hPa 0,0 l/m 10,7 km/h (2 Bft) O-NO 59 0 min 0,000 mm 0,0 UV-I 0 W/m 0,5 C 11,1 C 14,5 km/h (3 Bft) 97,56 %
21.04.2019 22:54 13,4 C 15,0 C 10,6 C 41 % 1015,3 hPa 0,0 l/m 9,0 km/h (2 Bft) O 89 0 min 0,000 mm 0,0 UV-I 0 W/m 0,4 C 11,9 C 16,1 km/h (3 Bft) 97,87 %
21.04.2019 22:56 13,3 C 15,0 C 10,6 C 41 % 1015,2 hPa 0,0 l/m 8,9 km/h (2 Bft) O-NO 59 0 min 0,000 mm 0,0 UV-I 0 W/m 0,3 C 11,8 C 14,5 km/h (3 Bft) 97,56 %
21.04.2019 22:58 13,1 C 15,0 C 10,0 C 41 % 1015,3 hPa 0,0 l/m 8,7 km/h (2 Bft) O-NO 63 0 min 0,000 mm 0,0 UV-I 0 W/m 0,2 C 11,7 C 14,5 km/h (3 Bft) 96,61 %
21.04.2019 23:00 12,8 C 15,0 C 10,0 C 42 % 1015,2 hPa 0,0 l/m 7,2 km/h (2 Bft) O-NO 67 0 min 0,076 mm 0,0 UV-I 0 W/m 0,2 C 12,3 C 12,9 km/h (3 Bft) 97,14 %
21.04.2019 23:02 12,6 C 15,6 C 10,0 C 43 % 1015,2 hPa 0,0 l/m 9,1 km/h (2 Bft) NO 49 0 min 0,000 mm 0,0 UV-I 0 W/m 0,4 C 10,9 C 14,5 km/h (3 Bft) 94,34 %
21.04.2019 23:04 12,5 C 15,6 C 9,4 C 43 % 1015,3 hPa 0,0 l/m 6,9 km/h (2 Bft) O-NO 59 0 min 0,000 mm 0,0 UV-I 0 W/m 0,3 C 12,2 C 14,5 km/h (3 Bft) 95,74 %
21.04.2019 23:06 12,6 C 15,0 C 9,4 C 42 % 1015,2 hPa 0,0 l/m 8,3 km/h (2 Bft) O-NO 74 0 min 0,000 mm 0,0 UV-I 0 W/m 0,0 C 11,4 C 14,5 km/h (3 Bft) 96,97 %
21.04.2019 23:08 12,5 C 15,6 C 9,4 C 43 % 1015,3 hPa 0,0 l/m 8,6 km/h (2 Bft) O-NO 71 0 min 0,000 mm 0,0 UV-I 0 W/m 0,3 C 11,1 C 14,5 km/h (3 Bft) 98,51 %
21.04.2019 23:10 12,4 C 15,6 C 9,4 C 43 % 1015,3 hPa 0,0 l/m 8,0 km/h (2 Bft) N-NO 23 0 min 0,000 mm 0,0 UV-I 0 W/m 0,2 C 11,4 C 11,3 km/h (2 Bft) 94,87 %
21.04.2019 23:12 12,3 C 15,6 C 9,4 C 44 % 1015,3 hPa 0,0 l/m 9,1 km/h (2 Bft) NO 45 0 min 0,000 mm 0,0 UV-I 0 W/m 0,4 C 10,6 C 14,5 km/h (3 Bft) 98,11 %
21.04.2019 23:14 12,2 C 15,0 C 9,4 C 44 % 1015,2 hPa 0,0 l/m 7,0 km/h (2 Bft) O-NO 69 0 min 0,000 mm 0,0 UV-I 0 W/m 0,3 C 11,8 C 11,3 km/h (2 Bft) 97,73 %
21.04.2019 23:16 12,2 C 15,0 C 9,4 C 44 % 1015,2 hPa 0,0 l/m 7,1 km/h (2 Bft) O-NO 76 0 min 0,000 mm 0,0 UV-I 0 W/m 0,3 C 11,7 C 12,9 km/h (3 Bft) 93,62 %
21.04.2019 23:18 12,1 C 15,0 C 9,4 C 44 % 1015,2 hPa 0,0 l/m 7,9 km/h (2 Bft) O-NO 58 0 min 0,000 mm 0,0 UV-I 0 W/m 0,2 C 11,1 C 14,5 km/h (3 Bft) 97,37 %
21.04.2019 23:20 12,1 C 15,0 C 9,4 C 44 % 1015,2 hPa 0,0 l/m 8,2 km/h (2 Bft) O-NO 65 0 min 0,000 mm 0,0 UV-I 0 W/m 0,2 C 10,9 C 11,3 km/h (2 Bft) 96,43 %
21.04.2019 23:22 12,1 C 15,0 C 8,9 C 43 % 1015,2 hPa 0,0 l/m 7,2 km/h (2 Bft) O-NO 64 0 min 0,000 mm 0,0 UV-I 0 W/m -0,1 C 11,6 C 12,9 km/h (3 Bft) 97,73 %
21.04.2019 23:24 12,1 C 15,0 C 8,9 C 43 % 1015,2 hPa 0,0 l/m 7,2 km/h (2 Bft) O 90 0 min 0,000 mm 0,0 UV-I 0 W/m -0,1 C 11,6 C 11,3 km/h (2 Bft) 97,73 %
21.04.2019 23:26 12,1 C 15,0 C 8,9 C 43 % 1015,2 hPa 0,0 l/m 7,4 km/h (2 Bft) NO 51 0 min 0,000 mm 0,0 UV-I 0 W/m -0,1 C 11,4 C 12,9 km/h (3 Bft) 96,23 %
21.04.2019 23:28 11,9 C 15,0 C 8,9 C 44 % 1015,2 hPa 0,0 l/m 6,6 km/h (2 Bft) O-NO 72 0 min 0,000 mm 0,0 UV-I 0 W/m 0,0 C 11,8 C 11,3 km/h (2 Bft) 100,00 %
21.04.2019 23:30 11,8 C 15,0 C 8,3 C 44 % 1015,2 hPa 0,0 l/m 8,4 km/h (2 Bft) O-NO 70 0 min 0,000 mm 0,0 UV-I 0 W/m -0,0 C 10,5 C 12,9 km/h (3 Bft) 100,00 %
21.04.2019 23:32 11,8 C 15,0 C 8,3 C 44 % 1015,1 hPa 0,0 l/m 7,9 km/h (2 Bft) O-NO 70 0 min 0,000 mm 0,0 UV-I 0 W/m -0,0 C 10,8 C 14,5 km/h (3 Bft) 100,00 %
21.04.2019 23:34 11,8 C 15,0 C 8,3 C 44 % 1015,2 hPa 0,0 l/m 7,5 km/h (2 Bft) O-NO 72 0 min 0,000 mm 0,0 UV-I 0 W/m -0,0 C 11,1 C 11,3 km/h (2 Bft) 98,00 %
21.04.2019 23:36 11,9 C 15,0 C 8,3 C 43 % 1015,2 hPa 0,0 l/m 6,8 km/h (2 Bft) O-NO 71 0 min 0,000 mm 0,0 UV-I 0 W/m -0,3 C 11,6 C 11,3 km/h (2 Bft) 97,87 %
21.04.2019 23:38 11,9 C 15,0 C 8,3 C 43 % 1015,1 hPa 0,0 l/m 7,1 km/h (2 Bft) O 80 0 min 0,000 mm 0,0 UV-I 0 W/m -0,3 C 11,4 C 12,9 km/h (3 Bft) 97,87 %
21.04.2019 23:40 11,8 C 15,0 C 7,8 C 44 % 1015,1 hPa 0,0 l/m 9,2 km/h (2 Bft) O-NO 77 0 min 0,000 mm 0,0 UV-I 0 W/m -0,0 C 10,0 C 14,5 km/h (3 Bft) 100,00 %
21.04.2019 23:42 11,8 C 15,0 C 8,3 C 43 % 1015,0 hPa 0,0 l/m 8,4 km/h (2 Bft) O-NO 78 0 min 0,000 mm 0,0 UV-I 0 W/m -0,4 C 10,5 C 11,3 km/h (2 Bft) 98,00 %
21.04.2019 23:44 11,9 C 15,0 C 8,3 C 43 % 1015,0 hPa 0,0 l/m 7,9 km/h (2 Bft) O-NO 68 0 min 0,000 mm 0,0 UV-I 0 W/m -0,3 C 10,9 C 12,9 km/h (3 Bft) 95,74 %
21.04.2019 23:46 11,9 C 15,0 C 8,3 C 43 % 1015,1 hPa 0,0 l/m 7,0 km/h (2 Bft) O 85 0 min 0,000 mm 0,0 UV-I 0 W/m -0,3 C 11,5 C 9,7 km/h (2 Bft) 100,00 %
21.04.2019 23:48 11,9 C 15,0 C 8,9 C 43 % 1015,0 hPa 0,0 l/m 8,1 km/h (2 Bft) O 94 0 min 0,000 mm 0,0 UV-I 0 W/m -0,3 C 10,8 C 12,9 km/h (3 Bft) 100,00 %
21.04.2019 23:50 12,0 C 15,0 C 8,9 C 43 % 1015,0 hPa 0,0 l/m 9,8 km/h (2 Bft) O-NO 76 0 min 0,000 mm 0,0 UV-I 0 W/m -0,2 C 9,9 C 14,5 km/h (3 Bft) 97,87 %
21.04.2019 23:52 12,1 C 15,0 C 8,9 C 43 % 1015,0 hPa 0,0 l/m 8,5 km/h (2 Bft) O 80 0 min 0,000 mm 0,0 UV-I 0 W/m -0,1 C 10,8 C 12,9 km/h (3 Bft) 100,00 %
21.04.2019 23:54 12,0 C 15,0 C 8,3 C 43 % 1015,0 hPa 0,0 l/m 7,2 km/h (2 Bft) O-NO 76 0 min 0,000 mm 0,0 UV-I 0 W/m -0,2 C 11,5 C 11,3 km/h (2 Bft) 100,00 %
21.04.2019 23:56 11,9 C 15,0 C 8,3 C 43 % 1015,0 hPa 0,0 l/m 6,3 km/h (2 Bft) O-NO 70 0 min 0,000 mm 0,0 UV-I 0 W/m -0,3 C 11,9 C 9,7 km/h (2 Bft) 100,00 %
21.04.2019 23:59 11,8 C 15,0 C 8,3 C 43 % 1015,0 hPa 0,0 l/m 6,5 km/h (2 Bft) O-NO 63 0 min 0,000 mm 0,0 UV-I 0 W/m -0,4 C 11,8 C 9,7 km/h (2 Bft) 100,00 %
_ Min-Zeit 05:46 03:38 05:10 17:00 23:42 - 06:28 - - - - - - 17:00 05:46 06:28 04:18
Minimum _ 3,1 C 13,9 C 0,0 C 20 % 1015,0 hPa - 0,0 km/h (0 Bft) - - - - - - -2,3 C 3,1 C 0,0 km/h (0 Bft) 88,89 %
_ Max-Zeit 15:30 16:48 14:12 06:18 00:00 00:00 12:18 - - 14:24 14:00 13:04 12:54 12:30 16:00 15:12 00:06
Maximum _ 21,9 C 16,1 C 33,9 C 79 % 1023,2 hPa 0,0 l/m 23,2 km/h
NO (4 Bft)
- - 4 min 0,660 mm 4,4 UV-I 831 W/m 4,8 C 20,5 C 37,0 km/h
O-NO (5 Bft)
100,00 %
Durchschnitt _ 13,5 C 14,8 C 15,4 C 46 % 1019,3 hPa #0,0 l/m 9,8 km/h (2 Bft) O-NO - #13:26 h #5,766 mm 2,6 UV-I 466 W/m 1,0 C 11,9 C 13,9 km/h (3 Bft) 97,44 %